[[{"header":{"parameterUnit":"m.s-1","parameterCategory":1,"la1":30.6,"la2":29.2853,"lo1":-89.7004,"lo2":-87.6739,"dy":0.0162,"dx":0.0183,"nx":112,"ny":82,"refTime":"2026-04-02T00:00:00:Z","depth":0,"parameterNumber":2,"parameterNumberName":"U-component_of_WINDS"},"data":[0.0,0.0,0.0,0.0,0.0,0.0,0.0,0.0,0.0,0.0,0.0,0.0,0.0,0.0,0.0,0.0,0.0,0.0,0.0,0.0,0.0,0.0,0.0,0.0,0.0,0.0,0.0,0.0,0.0,0.0,0.0,0.0,0.0,0.0,0.0,0.0,0.0,0.0,0.0,0.0,0.0,0.0,0.0,0.0,0.0,0.0,0.0,0.0,0.0,0.0,0.0,0.0,0.0,0.0,0.0,0.0,0.0,0.0,0.0,0.0,0.0,0.0,0.0,0.0,0.0,0.0,0.0,0.0,0.0,0.0,0.0,0.0,0.0,0.0,0.0,0.0,0.0,0.0,0.0,0.0,0.0,0.0,0.0,0.0,0.0,0.0,0.0,0.0,0.0,0.0,-4.4528,-4.8298,-5.2779,-5.5184,-5.4376,-5.326,-5.0991,-4.7135,0.0,0.0,0.0,0.0,0.0,0.0,0.0,0.0,0.0,0.0,0.0,0.0,0.0,0.0,0.0,0.0,0.0,0.0,0.0,0.0,0.0,0.0,0.0,0.0,0.0,0.0,0.0,0.0,0.0,0.0,0.0,0.0,0.0,0.0,0.0,0.0,0.0,0.0,0.0,0.0,0.0,0.0,0.0,0.0,0.0,0.0,0.0,0.0,0.0,0.0,0.0,0.0,0.0,0.0,0.0,0.0,0.0,0.0,0.0,0.0,0.0,0.0,0.0,0.0,0.0,0.0,0.0,0.0,0.0,0.0,0.0,0.0,0.0,0.0,0.0,0.0,0.0,0.0,0.0,0.0,0.0,0.0,0.0,0.0,0.0,0.0,0.0,0.0,0.0,0.0,0.0,0.0,0.0,0.0,0.0,0.0,0.0,0.0,0.0,0.0,0.0,0.0,0.0,0.0,-4.522,-5.0731,-5.3337,-5.4337,-5.3472,-5.1298,-4.9106,-4.7019,0.0,0.0,0.0,0.0,0.0,0.0,0.0,0.0,0.0,0.0,0.0,0.0,0.0,0.0,0.0,0.0,0.0,0.0,0.0,0.0,0.0,0.0,0.0,0.0,0.0,0.0,0.0,0.0,0.0,0.0,0.0,0.0,0.0,0.0,0.0,0.0,0.0,0.0,0.0,0.0,0.0,0.0,0.0,0.0,0.0,0.0,0.0,0.0,0.0,0.0,0.0,0.0,0.0,0.0,0.0,0.0,0.0,0.0,0.0,0.0,0.0,0.0,0.0,0.0,0.0,0.0,0.0,0.0,0.0,0.0,0.0,0.0,0.0,0.0,0.0,0.0,0.0,0.0,0.0,0.0,0.0,0.0,0.0,0.0,0.0,0.0,0.0,0.0,0.0,0.0,0.0,0.0,0.0,0.0,0.0,0.0,0.0,0.0,0.0,0.0,0.0,0.0,0.0,-4.3401,-4.631,-5.1171,-5.2957,-5.3433,-5.2558,-5.0587,-4.8471,-4.6336,-4.2948,0.0,0.0,0.0,0.0,0.0,0.0,0.0,0.0,0.0,0.0,0.0,0.0,0.0,0.0,0.0,0.0,0.0,0.0,0.0,0.0,0.0,0.0,0.0,0.0,0.0,0.0,0.0,0.0,0.0,0.0,0.0,0.0,0.0,0.0,0.0,0.0,0.0,0.0,0.0,0.0,0.0,0.0,0.0,0.0,0.0,0.0,0.0,0.0,0.0,0.0,0.0,0.0,0.0,0.0,0.0,0.0,0.0,0.0,0.0,0.0,0.0,0.0,0.0,0.0,0.0,0.0,0.0,0.0,0.0,0.0,0.0,0.0,0.0,0.0,0.0,0.0,0.0,0.0,0.0,0.0,0.0,0.0,0.0,0.0,0.0,0.0,0.0,0.0,0.0,0.0,0.0,0.0,0.0,0.0,0.0,0.0,0.0,0.0,0.0,0.0,0.0,0.0,-4.5519,-4.7495,-5.0715,-5.2028,-5.2267,-5.1201,-4.9409,-4.7357,-4.5062,-4.0759,0.0,0.0,0.0,0.0,0.0,0.0,0.0,0.0,0.0,0.0,0.0,0.0,0.0,0.0,0.0,0.0,0.0,0.0,0.0,0.0,0.0,0.0,0.0,0.0,0.0,0.0,0.0,0.0,0.0,0.0,0.0,0.0,0.0,0.0,0.0,0.0,0.0,0.0,0.0,0.0,0.0,0.0,0.0,0.0,0.0,0.0,0.0,0.0,0.0,0.0,0.0,0.0,0.0,0.0,0.0,0.0,0.0,0.0,0.0,0.0,0.0,0.0,0.0,0.0,0.0,0.0,0.0,0.0,0.0,0.0,0.0,0.0,0.0,0.0,0.0,0.0,0.0,0.0,0.0,0.0,0.0,0.0,0.0,0.0,0.0,0.0,0.0,0.0,0.0,0.0,0.0,0.0,0.0,0.0,0.0,0.0,0.0,0.0,0.0,0.0,0.0,0.0,-4.5767,-4.8602,-4.9635,-5.0627,-5.0599,-4.8985,-4.6605,-4.4558,-4.2994,-3.8237,0.0,0.0,0.0,0.0,0.0,0.0,0.0,0.0,0.0,0.0,0.0,0.0,0.0,0.0,0.0,0.0,0.0,0.0,0.0,0.0,0.0,0.0,0.0,0.0,0.0,0.0,0.0,0.0,0.0,0.0,0.0,0.0,0.0,0.0,0.0,0.0,0.0,0.0,0.0,0.0,0.0,0.0,0.0,0.0,0.0,0.0,0.0,0.0,0.0,0.0,0.0,0.0,0.0,0.0,0.0,0.0,0.0,0.0,0.0,0.0,0.0,0.0,0.0,0.0,0.0,0.0,0.0,0.0,0.0,0.0,0.0,0.0,0.0,0.0,0.0,0.0,0.0,0.0,0.0,0.0,0.0,0.0,0.0,0.0,0.0,0.0,0.0,0.0,0.0,0.0,0.0,0.0,0.0,0.0,0.0,0.0,0.0,0.0,0.0,0.0,0.0,0.0,-4.4234,-4.6619,-4.836,-4.9036,-4.8894,-4.7759,-4.5887,-4.4092,-4.2492,0.0,0.0,0.0,0.0,0.0,0.0,0.0,0.0,0.0,0.0,0.0,0.0,0.0,0.0,0.0,0.0,0.0,0.0,0.0,0.0,0.0,0.0,0.0,0.0,0.0,0.0,0.0,0.0,0.0,0.0,0.0,0.0,0.0,0.0,0.0,0.0,0.0,0.0,0.0,0.0,0.0,0.0,0.0,0.0,0.0,0.0,0.0,0.0,0.0,0.0,0.0,0.0,0.0,0.0,0.0,0.0,0.0,0.0,0.0,0.0,0.0,0.0,0.0,0.0,0.0,0.0,0.0,0.0,0.0,0.0,0.0,0.0,0.0,0.0,0.0,0.0,0.0,0.0,0.0,0.0,0.0,0.0,0.0,0.0,0.0,0.0,0.0,0.0,0.0,0.0,0.0,0.0,0.0,0.0,0.0,0.0,0.0,0.0,0.0,0.0,0.0,0.0,-4.0451,-4.292,-4.5141,-4.745,-4.7657,-4.7414,-4.6851,-4.4843,-4.2842,-4.0978,0.0,0.0,0.0,0.0,0.0,0.0,0.0,0.0,0.0,0.0,0.0,0.0,0.0,0.0,0.0,0.0,0.0,0.0,0.0,0.0,0.0,0.0,0.0,0.0,0.0,0.0,0.0,0.0,0.0,0.0,0.0,0.0,0.0,0.0,0.0,0.0,0.0,0.0,0.0,0.0,0.0,0.0,0.0,0.0,0.0,0.0,0.0,0.0,0.0,0.0,0.0,0.0,0.0,0.0,0.0,0.0,0.0,0.0,0.0,0.0,0.0,0.0,0.0,0.0,0.0,0.0,0.0,0.0,0.0,0.0,0.0,0.0,0.0,0.0,0.0,0.0,0.0,0.0,0.0,0.0,0.0,0.0,0.0,0.0,0.0,0.0,0.0,0.0,0.0,0.0,0.0,0.0,0.0,0.0,0.0,0.0,0.0,0.0,0.0,0.0,0.0,0.0,-3.935,-4.2128,-4.4627,-4.7021,-4.6614,-4.6186,-4.6168,-4.3158,-4.0341,0.0,0.0,0.0,0.0,0.0,0.0,0.0,0.0,0.0,0.0,0.0,0.0,0.0,0.0,0.0,0.0,0.0,0.0,0.0,0.0,0.0,0.0,0.0,0.0,0.0,0.0,0.0,0.0,0.0,0.0,0.0,0.0,0.0,0.0,0.0,0.0,0.0,0.0,0.0,0.0,0.0,0.0,0.0,0.0,0.0,0.0,0.0,0.0,0.0,0.0,0.0,0.0,0.0,0.0,0.0,0.0,0.0,0.0,0.0,0.0,0.0,0.0,0.0,0.0,0.0,0.0,0.0,0.0,0.0,0.0,0.0,0.0,0.0,0.0,0.0,0.0,0.0,0.0,0.0,0.0,0.0,0.0,0.0,0.0,0.0,0.0,0.0,0.0,0.0,0.0,0.0,0.0,0.0,0.0,0.0,0.0,0.0,0.0,0.0,0.0,0.0,0.0,0.0,-3.8597,-4.1695,-4.4045,-4.5332,-4.5276,-4.4686,-4.3546,-4.1572,-3.9368,-3.7031,0.0,0.0,0.0,0.0,0.0,0.0,0.0,0.0,0.0,0.0,0.0,0.0,0.0,0.0,0.0,0.0,0.0,0.0,0.0,0.0,0.0,0.0,0.0,0.0,0.0,0.0,0.0,0.0,0.0,0.0,0.0,0.0,0.0,0.0,0.0,0.0,0.0,0.0,0.0,0.0,0.0,0.0,0.0,0.0,0.0,0.0,0.0,0.0,0.0,0.0,0.0,0.0,0.0,0.0,0.0,0.0,0.0,0.0,0.0,0.0,0.0,0.0,0.0,0.0,0.0,0.0,0.0,0.0,0.0,0.0,0.0,0.0,0.0,0.0,0.0,0.0,0.0,0.0,0.0,0.0,0.0,0.0,0.0,0.0,0.0,0.0,0.0,0.0,0.0,0.0,0.0,0.0,0.0,0.0,0.0,0.0,0.0,0.0,0.0,0.0,0.0,0.0,-3.7753,-4.0744,-4.3094,-4.4562,-4.4415,-4.3828,-4.2855,-4.1328,-3.9118,-3.6029,0.0,0.0,0.0,0.0,0.0,0.0,0.0,0.0,0.0,0.0,0.0,0.0,0.0,0.0,0.0,0.0,0.0,0.0,0.0,0.0,0.0,0.0,0.0,0.0,0.0,0.0,0.0,0.0,0.0,0.0,0.0,0.0,0.0,0.0,0.0,0.0,0.0,0.0,0.0,0.0,0.0,0.0,0.0,0.0,0.0,0.0,0.0,0.0,0.0,0.0,0.0,0.0,0.0,0.0,0.0,0.0,0.0,0.0,0.0,0.0,0.0,0.0,0.0,0.0,0.0,0.0,0.0,0.0,0.0,0.0,0.0,0.0,0.0,0.0,0.0,0.0,0.0,0.0,0.0,0.0,0.0,0.0,0.0,0.0,0.0,0.0,0.0,0.0,0.0,0.0,0.0,0.0,0.0,0.0,0.0,0.0,0.0,0.0,0.0,0.0,0.0,0.0,-3.6853,-3.9554,-4.1977,-4.4342,-4.3847,-4.3351,-4.3277,-4.1809,-3.9205,-3.5261,0.0,0.0,0.0,0.0,0.0,0.0,0.0,0.0,0.0,0.0,0.0,0.0,0.0,0.0,0.0,0.0,0.0,0.0,0.0,0.0,0.0,0.0,0.0,0.0,0.0,0.0,0.0,0.0,0.0,0.0,0.0,0.0,0.0,0.0,0.0,0.0,0.0,0.0,0.0,0.0,0.0,0.0,0.0,0.0,0.0,0.0,0.0,0.0,0.0,0.0,0.0,0.0,0.0,0.0,0.0,0.0,0.0,0.0,0.0,0.0,-3.7248,0.0,0.0,0.0,0.0,0.0,0.0,0.0,0.0,0.0,0.0,0.0,0.0,0.0,0.0,0.0,0.0,0.0,0.0,0.0,0.0,0.0,0.0,0.0,0.0,0.0,0.0,0.0,0.0,0.0,0.0,0.0,0.0,0.0,0.0,0.0,0.0,0.0,0.0,0.0,0.0,0.0,-3.5967,-3.901,-4.1587,-4.3484,-4.2972,-4.2238,-4.1664,-4.0139,-3.8013,-3.5188,-3.2908,0.0,0.0,0.0,0.0,0.0,0.0,0.0,0.0,0.0,0.0,0.0,0.0,0.0,0.0,0.0,0.0,0.0,0.0,0.0,0.0,0.0,0.0,0.0,0.0,0.0,0.0,0.0,0.0,0.0,0.0,0.0,0.0,0.0,0.0,0.0,0.0,0.0,0.0,0.0,0.0,0.0,0.0,0.0,0.0,0.0,0.0,0.0,0.0,0.0,0.0,0.0,0.0,0.0,0.0,0.0,0.0,0.0,0.0,0.0,0.0,-3.8349,0.0,0.0,0.0,0.0,0.0,0.0,0.0,0.0,0.0,0.0,0.0,0.0,0.0,0.0,0.0,0.0,0.0,0.0,0.0,0.0,0.0,0.0,0.0,0.0,0.0,0.0,0.0,0.0,0.0,0.0,0.0,0.0,0.0,0.0,0.0,0.0,0.0,0.0,0.0,0.0,-3.4833,-3.7802,-4.0221,-4.1706,-4.1487,-4.0924,-4.016,-3.9323,-3.7551,-3.4519,-3.2793,0.0,0.0,0.0,0.0,0.0,0.0,0.0,0.0,0.0,0.0,0.0,0.0,0.0,0.0,0.0,0.0,0.0,0.0,0.0,0.0,0.0,0.0,0.0,0.0,0.0,0.0,0.0,0.0,0.0,0.0,0.0,0.0,0.0,0.0,0.0,0.0,0.0,0.0,0.0,0.0,0.0,0.0,0.0,0.0,0.0,0.0,0.0,0.0,0.0,0.0,0.0,0.0,0.0,-4.3015,-4.3284,-4.3267,-4.3132,-4.3064,-4.299,-4.1618,-4.0978,-4.0858,-3.9721,0.0,0.0,0.0,0.0,0.0,0.0,0.0,0.0,0.0,0.0,0.0,0.0,0.0,0.0,0.0,0.0,0.0,0.0,0.0,0.0,0.0,0.0,0.0,0.0,-3.698,-3.5943,0.0,0.0,0.0,0.0,0.0,0.0,0.0,0.0,0.0,0.0,0.0,0.0,-3.3979,-3.6647,-3.8796,-3.9944,-3.9928,-3.9587,-3.8959,-3.8779,-3.7363,-3.4199,-3.3123,-3.1411,0.0,0.0,0.0,0.0,0.0,0.0,0.0,0.0,0.0,0.0,0.0,0.0,0.0,0.0,0.0,0.0,0.0,0.0,0.0,0.0,0.0,0.0,0.0,0.0,0.0,0.0,0.0,0.0,0.0,0.0,0.0,0.0,-3.7533,-3.7736,0.0,0.0,0.0,0.0,0.0,0.0,0.0,0.0,0.0,0.0,0.0,0.0,0.0,-4.1265,-4.2039,-4.415,-4.5196,-4.5196,-4.6544,-4.7175,-4.7158,-4.6498,-4.6194,-4.6177,-4.5959,0.0,-4.1163,-4.1078,0.0,0.0,0.0,0.0,0.0,0.0,0.0,0.0,0.0,0.0,0.0,0.0,0.0,0.0,0.0,0.0,0.0,0.0,0.0,0.0,0.0,0.0,-3.8316,-3.7874,-3.7285,-3.6673,0.0,-3.336,-3.0717,-2.9918,-2.8682,0.0,0.0,0.0,0.0,0.0,0.0,0.0,-3.4341,-3.6684,-3.8481,-3.9403,-3.8872,-3.8486,-3.8493,-3.7854,-3.691,-3.5666,-3.4253,-3.2963,-3.1836,-2.9223,0.0,0.0,0.0,0.0,0.0,0.0,0.0,0.0,0.0,0.0,0.0,0.0,0.0,0.0,0.0,0.0,0.0,0.0,0.0,0.0,0.0,0.0,0.0,0.0,0.0,0.0,0.0,0.0,0.0,-3.7516,-3.8971,-3.8565,-3.9259,-3.8971,0.0,0.0,0.0,0.0,0.0,0.0,0.0,0.0,0.0,-4.2574,-4.2929,-4.3656,-4.4807,-4.6244,-4.6955,-4.6972,-4.802,-4.8528,-4.8528,-4.8189,-4.8037,-4.8003,-4.7597,-4.6261,-4.4248,-4.3034,-4.1264,-3.9197,0.0,0.0,0.0,0.0,-3.6531,-3.6724,-3.7861,-3.8245,0.0,-3.7379,0.0,0.0,0.0,0.0,0.0,0.0,0.0,0.0,0.0,0.0,-3.8514,-3.9005,-3.8894,-3.8539,-3.8132,-3.6405,-3.4375,0.0,-3.1636,-3.0472,-2.817,0.0,0.0,0.0,0.0,-3.1966,-3.3445,-3.5434,-3.6951,-3.7579,-3.7338,-3.7167,-3.7207,-3.6911,-3.6249,-3.5189,-3.4079,-3.2957,-3.1765,-3.0076,-2.862,0.0,0.0,0.0,0.0,0.0,0.0,0.0,0.0,0.0,0.0,0.0,0.0,0.0,0.0,0.0,0.0,0.0,0.0,0.0,0.0,0.0,0.0,0.0,0.0,0.0,0.0,0.0,0.0,-3.9114,-4.024,-3.9884,-4.1153,-4.0984,0.0,0.0,0.0,0.0,0.0,0.0,-4.2016,-4.2439,-4.3504,-4.5365,-4.5432,-4.6058,-4.7344,-4.8105,-4.8477,-4.8477,-4.9018,-4.9272,-4.9272,-4.9086,-4.9001,-4.8968,-4.824,-4.7597,-4.6904,-4.4654,-4.2828,-4.1356,-4.007,-3.9106,-3.8497,-3.8684,-3.8751,-3.8937,-4.0231,-4.0663,-4.0578,-4.002,0.0,-3.8159,-3.6451,0.0,0.0,0.0,0.0,-3.7026,-3.8159,-3.8599,-3.8971,-3.9893,-4.0096,-3.996,-3.9394,-3.87,-3.7468,0.0,-3.4312,-3.3159,-3.0387,0.0,0.0,0.0,0.0,-3.2339,-3.3131,-3.4623,-3.5717,-3.6088,-3.6131,-3.6131,-3.6131,-3.5942,-3.5472,-3.4544,-3.3626,-3.2628,-3.1532,-3.0641,-2.9463,-2.7978,0.0,0.0,0.0,0.0,0.0,0.0,0.0,0.0,0.0,0.0,0.0,0.0,0.0,0.0,0.0,0.0,0.0,0.0,0.0,0.0,0.0,0.0,0.0,0.0,0.0,0.0,0.0,0.0,0.0,-4.2049,-4.3498,0.0,0.0,0.0,0.0,-4.1035,-4.3047,-4.4361,-4.4429,-4.5754,-4.6887,-4.7733,-4.772,-4.8122,-4.8883,-4.961,-4.9982,-4.9982,-5.0016,-5.0033,-5.0016,-4.9323,-4.9001,-4.8968,-4.824,-4.7872,-4.7652,-4.5449,-4.3623,-4.2168,-4.139,-4.0646,-4.0062,-4.0781,-4.1035,-4.1136,-4.1914,-4.2185,-4.2168,-4.2134,-4.117,-3.9961,-3.9834,-3.8836,0.0,0.0,-3.9317,-3.9893,-3.9977,-4.051,-4.0882,-4.0265,-4.0096,-4.0096,-4.0045,-3.9486,-3.8505,0.0,-3.548,-3.4193,-3.3313,0.0,-3.2147,-3.2063,-3.2771,-3.358,-3.4307,-3.5098,-3.5622,-3.5644,-3.5644,-3.5644,-3.5644,-3.4984,-3.4544,-3.4489,-3.3156,-3.2327,-3.2242,-3.0869,-3.0057,-2.9958,-2.7791,0.0,0.0,0.0,0.0,0.0,0.0,0.0,0.0,0.0,0.0,0.0,0.0,0.0,0.0,0.0,0.0,0.0,0.0,0.0,0.0,0.0,0.0,0.0,0.0,0.0,0.0,0.0,0.0,-4.4028,-4.5887,0.0,-4.3272,-4.4095,-4.4498,-4.3759,-4.4884,-4.6072,-4.7063,-4.7147,-4.7718,-4.8944,-4.8539,-4.8639,-4.9396,-4.9177,-4.914,-4.9251,-4.9251,-4.9314,-4.9373,-4.912,-4.9001,-4.8934,-4.7716,-4.7192,-4.7056,-4.5326,-4.4564,-4.4418,-4.3673,-4.3217,-4.2963,-4.2726,-4.2946,-4.3335,-4.3006,-4.2878,-4.2709,-4.1658,-4.0656,-3.9833,-3.9833,-3.9463,-3.9211,-3.995,-4.0354,-4.0555,-4.0555,-4.0757,-4.0757,-4.0026,-3.9858,-3.9858,-3.9858,-3.9631,-3.9143,-3.8152,-3.6899,-3.5594,-3.432,-3.388,-3.3393,-3.2446,-3.3322,-3.4201,-3.4455,-3.5148,-3.56,-3.56,-3.56,-3.5397,-3.4928,-3.4641,-3.4303,-3.3829,-3.2408,-3.1599,-3.1599,-3.0632,-2.9888,-2.9397,-2.8604,-2.7317,0.0,0.0,0.0,0.0,0.0,0.0,0.0,0.0,0.0,0.0,0.0,0.0,0.0,0.0,0.0,0.0,0.0,0.0,0.0,0.0,0.0,0.0,0.0,0.0,0.0,-4.2775,-4.4804,-4.5761,-4.7883,-4.8268,-4.5761,-4.6848,-4.7431,-4.6678,-4.7314,-4.8167,-4.9188,-4.855,-4.8584,-4.9572,-4.8868,-4.8718,-4.922,-4.8735,-4.8564,-4.8707,-4.8707,-4.8753,-4.8846,-4.8846,-4.8711,-4.8377,-4.716,-4.6486,-4.6165,-4.4935,-4.4715,-4.512,-4.4745,-4.4615,-4.4519,-4.3939,-4.4029,-4.4367,-4.3457,-4.3116,-4.2914,-4.1607,-4.0843,-4.0491,-4.0742,-4.0809,-4.0977,-4.1703,-4.172,-4.1469,-4.1234,-4.0983,-4.0598,-3.9888,-3.9703,-3.9703,-3.9703,-3.9502,-3.9175,-3.869,-3.7748,-3.6622,-3.5358,-3.4936,-3.4447,-3.3533,-3.4165,-3.4806,-3.4829,-3.5206,-3.5526,-3.5571,-3.5571,-3.5267,-3.453,-3.4247,-3.3791,-3.298,-3.157,-3.076,-3.0721,-3.0032,-2.9426,-2.8955,-2.8448,-2.7215,-2.5189,0.0,0.0,0.0,0.0,0.0,0.0,0.0,0.0,0.0,0.0,0.0,0.0,0.0,0.0,0.0,0.0,0.0,0.0,0.0,0.0,0.0,0.0,0.0,-4.1749,-4.3884,-4.5842,-4.7331,-4.9422,-5.0175,-4.8736,-4.9907,-5.0443,-4.9674,-5.0292,-5.0677,-5.0643,-4.9941,-4.9539,-4.9539,-4.8868,-4.8483,-4.8483,-4.8483,-4.8483,-4.8483,-4.8483,-4.8483,-4.8515,-4.8515,-4.8098,-4.7362,-4.6608,-4.5885,-4.5148,-4.4398,-4.4097,-4.4126,-4.4457,-4.457,-4.4542,-4.4384,-4.431,-4.4164,-4.3266,-4.2959,-4.2825,-4.2082,-4.1831,-4.1965,-4.2657,-4.2892,-4.3076,-4.3796,-4.3494,-4.2775,-4.2027,-4.1308,-4.0598,-3.9845,-3.9677,-3.9677,-3.9644,-3.9091,-3.8564,-3.8514,-3.7953,-3.7216,-3.652,-3.58,-3.5337,-3.5469,-3.5377,0.0,-3.5469,-3.5377,-3.5354,-3.5469,-3.5492,-3.5189,-3.442,-3.3765,-3.2963,-3.198,-3.0619,-2.9832,-2.9766,-2.9139,-2.8809,-2.8826,-2.7363,-2.5883,-2.447,0.0,0.0,0.0,0.0,0.0,0.0,0.0,0.0,0.0,0.0,0.0,0.0,0.0,0.0,0.0,0.0,0.0,0.0,0.0,0.0,0.0,-4.0315,-4.2779,-4.3796,-4.5839,-4.7982,-5.0008,-5.1255,-5.1536,-5.0606,-5.1388,-5.1403,-5.0141,-5.0224,-5.0091,-4.9559,-4.8829,-4.843,-4.843,-4.8231,-4.8147,-4.8147,-4.8147,-4.8179,-4.8292,-4.8292,-4.8356,-4.8515,-4.8515,-4.8098,-4.7362,-4.6608,-4.5885,-4.5148,-4.4398,-4.4097,-4.4097,-4.4184,-4.4258,-4.4212,-4.4184,-4.4097,-4.3814,-4.25,-4.1966,-4.1621,-4.0402,-4.0014,-4.0064,-4.028,-4.0685,-4.115,-4.135,-4.1632,-4.167,-4.1001,-4.0668,-4.0319,-3.9588,-3.9405,-3.9256,-3.8714,-3.8448,-3.7983,-3.6904,-3.6563,-3.6396,-3.6396,-3.58,-3.5314,-3.5354,-3.5314,0.0,-3.5337,-3.5314,-3.5314,-3.5337,-3.5337,-3.4834,-3.356,-3.3302,-3.2391,-3.052,-2.9537,-2.9017,-2.8999,-2.8833,-2.8967,-2.952,-2.7542,-2.6319,0.0,0.0,0.0,0.0,0.0,0.0,0.0,0.0,0.0,0.0,0.0,0.0,0.0,0.0,0.0,0.0,0.0,0.0,0.0,0.0,0.0,0.0,-4.3002,-4.5467,-4.6808,-4.8117,-4.9508,-5.1116,-5.1962,-5.2243,-5.1812,-5.2161,-5.191,-5.075,-5.0386,-4.9889,-4.9144,-4.8398,-4.8001,-4.8001,-4.8001,-4.8001,-4.8001,-4.8001,-4.8033,-4.8115,-4.8115,-4.8179,-4.8308,-4.8308,-4.7741,0.0,-4.6291,-4.5507,-4.4493,-4.406,-4.3894,0.0,0.0,0.0,0.0,0.0,-4.391,-4.3547,-4.2097,-4.151,-4.1177,-3.9779,-3.9299,-3.9365,-3.9663,-4.0061,-4.0475,-4.0729,-4.0895,-4.0878,-4.0509,-4.0177,-3.9829,-3.9398,-3.9067,-3.8709,-3.8295,-3.7715,-3.7036,-3.6174,-3.5744,0.0,-3.5745,-3.5418,-3.5152,-3.5198,-3.5175,-3.5152,-3.5198,-3.5175,-3.5152,-3.5222,-3.5222,-3.4737,-3.3584,-3.326,0.0,0.0,0.0,-2.8808,-2.8171,-2.8154,0.0,0.0,0.0,0.0,0.0,0.0,0.0,0.0,-2.538,-2.5497,0.0,0.0,0.0,0.0,0.0,0.0,0.0,0.0,0.0,0.0,0.0,0.0,0.0,0.0,0.0,0.0,-4.5781,-4.7984,-5.0055,-5.0336,-5.0601,-5.1348,-5.2011,-5.2409,-5.2409,-5.2343,-5.1978,-5.1249,-5.0485,-4.9756,-4.9028,0.0,0.0,0.0,0.0,-4.8001,-4.8001,-4.8001,-4.8001,-4.8001,-4.8001,-4.8001,-4.8001,-4.7918,-4.7123,-4.5798,-4.5698,-4.4887,-4.3598,-4.3598,-4.3598,-4.3628,-4.3923,-4.4039,-4.401,-4.391,-4.3763,-4.3383,-4.1893,0.0,0.0,-3.9779,-3.9299,-3.9431,-4.0078,-4.0343,-4.0525,-4.1028,-4.0779,-4.0393,-4.031,-3.9796,-3.9299,-3.9299,-3.8725,-3.8169,-3.8096,-3.6986,-3.5976,-3.5893,-3.5346,-3.4899,-3.4899,-3.4899,-3.4947,-3.5065,-3.497,-3.4947,-3.5065,-3.497,-3.4947,-3.5065,0.0,0.0,-3.3922,-3.3362,-3.2567,-3.1416,-3.0248,-2.8974,-2.7676,-2.7626,-2.7663,-2.7701,-2.7579,-2.7842,-2.8491,-2.8431,-2.8475,-2.8608,-2.7329,-2.7065,0.0,0.0,0.0,0.0,0.0,0.0,0.0,0.0,0.0,0.0,0.0,0.0,0.0,0.0,0.0,-4.5069,-4.7736,-4.9922,-5.0932,-5.11,-5.1382,-5.2111,-5.2326,-5.2409,-5.2409,-5.1879,-5.1232,-5.0469,-4.974,-4.8995,-4.8249,-4.8084,-4.8001,-4.8001,-4.8001,-4.8001,-4.8001,-4.8001,-4.8001,-4.8001,0.0,0.0,-4.7984,-4.7388,-4.6626,-4.5765,-4.5152,-4.4406,-4.3598,-4.3598,-4.3598,-4.3598,-4.3658,-4.3687,-4.3687,-4.3658,-4.3628,-4.3383,-4.1893,-4.1409,-4.1177,-3.9779,-3.9299,-3.9332,-3.9481,-3.9928,0.0,-3.9846,-4.0044,-4.026,-3.9663,-3.9415,-3.9299,-3.9299,-3.8725,-3.802,-3.745,-3.6622,-3.5827,-3.523,-3.4998,-3.4899,-3.4899,-3.4899,-3.4899,-3.4923,-3.4923,-3.4899,-3.4947,-3.4923,-3.4899,-3.4947,-3.4947,-3.4399,-3.3056,-3.2846,-3.1928,-2.9943,-2.9586,-2.9304,-2.9022,-2.9006,-2.9022,-2.9025,-2.8495,-2.8279,-2.8412,-2.8409,-2.8969,-3.0079,-2.9221,-2.8893,0.0,0.0,0.0,0.0,0.0,0.0,0.0,0.0,0.0,0.0,0.0,-3.9852,-4.1685,0.0,-4.5433,-4.7653,-4.9541,-5.0999,-5.1763,-5.1547,-5.158,-5.2326,-5.1744,-5.1429,-5.1829,-5.1164,-5.0436,-4.9707,-4.9326,-4.8796,-4.805,-4.8001,-4.8001,-4.8001,-4.8001,-4.8001,-4.8001,-4.8001,-4.8001,-4.8001,-4.8001,-4.7819,-4.7438,-4.7073,-4.6295,-4.5218,-4.4854,-4.4274,-4.3598,-4.3598,-4.3598,-4.3598,-4.3598,-4.3598,-4.3598,-4.3598,-4.3402,-4.29,-4.1442,-4.0934,-4.0676,-3.9247,-3.9023,-3.9299,-3.9299,-3.9564,-3.9779,-3.9398,-3.9564,-3.9763,-3.9398,-3.9299,-3.9299,-3.9299,-3.8444,-3.7566,-3.7185,-3.6241,-3.5346,-3.4965,-3.4899,-3.4899,-3.4899,-3.4899,-3.4899,-3.4899,-3.4899,-3.4899,-3.4899,-3.4568,-3.4266,-3.4012,-3.3676,-3.3034,-3.2034,-3.1861,-3.1177,-2.9676,-2.9819,-2.9675,-2.9075,-2.9038,-2.9038,-2.9038,-2.8731,-2.8731,-2.9108,-2.9108,-2.9505,-3.0251,-3.0549,-3.0843,0.0,0.0,0.0,0.0,0.0,0.0,0.0,-3.8394,-3.9338,-4.0359,-4.1055,-4.2265,-4.4854,-4.5814,-4.7139,-4.9972,-5.0899,-5.1564,-5.231,-5.1628,-5.1382,-5.2111,-5.1015,-5.0436,-5.1015,-5.0419,-4.9756,-4.9144,-4.8978,-4.863,-4.8034,-4.8001,-4.8001,-4.8001,-4.8001,-4.8001,-4.8001,-4.8001,-4.7934,-4.7785,-4.7785,-4.7404,-4.6676,-4.6527,-4.5814,-4.4671,-4.4539,-4.4158,-4.3598,-4.3598,-4.3598,-4.3598,-4.3462,-4.3402,-4.3432,-4.3568,-4.3015,-4.2025,-4.0885,-4.0291,-3.982,-3.8544,-3.8562,-3.9121,-3.9121,-3.9202,-3.9299,-3.9299,-3.9299,-3.9299,-3.9299,-3.9299,-3.9265,-3.9133,-3.8063,-3.7069,-3.692,-3.5843,-3.4899,-3.4899,-3.4899,-3.4875,-3.4763,-3.4739,-3.469,-3.4582,-3.4475,-3.4362,-3.4191,-3.3665,-3.3146,-3.2773,-3.2216,-3.1622,-3.1036,-3.0733,-3.0313,-2.9694,-3.0027,-2.9788,-2.8823,-2.8785,-2.8785,-2.8785,-2.8785,-2.9124,-2.9793,-2.9705,-2.99,-3.0394,-3.1357,-3.2152,-3.6522,-3.5306,-3.529,-3.7257,-3.739,-3.8183,0.0,-4.285,-4.2618,-4.4638,-4.5135,-4.5682,-4.7322,-4.7703,-4.8498,-5.0783,-5.1265,-5.1564,-5.231,-5.1197,-5.0601,-5.1348,-5.0701,-5.0237,-5.032,-4.9674,-4.9193,-4.911,-4.8498,-4.81,-4.8001,-4.8001,-4.8001,-4.8001,-4.8001,-4.8001,-4.8001,-4.8001,-4.7669,-4.7023,-4.7023,-4.6626,-4.5897,-4.5235,-4.4854,-4.4655,-4.4026,-4.3664,-4.3598,-4.3598,-4.3598,-4.3522,-4.2943,-4.271,-4.2772,-4.3372,-4.238,-4.0706,-4.054,-3.973,-3.8594,-3.7771,-3.7908,-3.8407,-3.8407,-3.8843,-3.9299,-3.9299,-3.9299,-3.9299,-3.9299,-3.9299,-3.9133,-3.8477,-3.7698,-3.6936,-3.6257,-3.5479,-3.4899,-3.4899,-3.4899,-3.4756,-3.4275,-3.4201,-3.3998,-3.3396,-3.3015,-3.2474,-3.1693,-3.1532,-3.146,-3.1411,-3.1348,-3.1037,-3.0363,-2.9689,-2.9284,-2.9166,-2.9234,-2.9203,-2.9055,-2.9055,-2.9055,-2.9055,-2.9055,-2.9291,-2.9793,-2.9371,-3.0034,-3.1676,-3.1349,-3.183,-3.8271,-3.8022,-3.8411,-3.9736,-4.0796,-4.2071,-4.4191,-4.4556,-4.4804,-4.6162,-4.6444,-4.6891,-4.8365,-4.8995,-4.9723,-5.11,-5.168,-5.1912,-5.1796,-5.0866,-5.0171,-5.0021,-4.9375,-4.9094,-4.9525,-4.8895,-4.8465,-4.8465,-4.8166,-4.8001,-4.8001,-4.8001,-4.8001,-4.8001,-4.8001,-4.8001,-4.8001,-4.757,-4.7206,-4.6891,-4.646,-4.5864,-4.5135,-4.4821,-4.4456,-4.4012,-4.3336,-4.3235,-4.3568,-4.3174,-4.3005,-4.3005,-4.271,-4.2094,-4.1459,-4.211,-4.1342,-3.9869,-3.9471,-3.8686,-3.7748,-3.7032,-3.7251,-3.778,-3.778,-3.821,-3.8717,-3.8717,-3.8996,-3.9299,-3.9299,-3.9023,-3.8537,-3.7844,-3.6842,-3.5846,-3.5162,-3.4436,-3.391,-3.391,-3.391,-3.3834,-3.3604,-3.3594,-3.3252,-3.2272,-3.2228,-3.2185,-3.182,-3.1107,-3.0337,-2.9599,-2.9274,-2.8993,-2.8707,-2.8642,-2.8638,-2.8638,-2.8935,-2.8958,-2.8638,-2.8638,-2.8638,-2.8638,-2.8638,-2.8717,-2.8927,-2.8732,-2.9306,-3.0572,-3.0979,-3.1863,-3.905,-3.9829,-4.0829,-4.1541,-4.3214,-4.4804,-4.5202,-4.5715,-4.6311,-4.7057,-4.7206,-4.7587,-4.8879,-4.9375,-4.9972,-5.1116,-5.1597,-5.1744,-5.163,-5.0783,-5.0005,-4.9475,-4.858,-4.8216,-4.8746,-4.8315,-4.8001,-4.8001,-4.8001,-4.8001,-4.8001,-4.8001,-4.8001,-4.8001,-4.8001,-4.7901,-4.7703,-4.7173,-4.6692,-4.6278,-4.5748,-4.5102,-4.439,-4.4191,-4.3819,-4.3295,-4.2617,-4.2585,-4.2974,-4.2506,-4.2285,-4.2285,-4.2094,-4.1409,-4.0516,-4.0621,-3.9908,-3.8889,-3.8598,-3.7795,-3.6821,-3.63,-3.6569,-3.7131,-3.7131,-3.756,-3.808,-3.825,-3.8662,-3.9077,-3.9245,-3.8799,-3.8079,-3.7199,-3.6149,-3.5059,-3.42,-3.3572,-3.3182,-3.3182,-3.3182,-3.3145,-3.3013,-3.2986,-3.2616,-3.1573,-3.1453,-3.1415,-3.1212,-3.0208,-2.9142,-2.822,-2.7795,-2.76,-2.76,-2.7904,-2.8125,-2.8125,-2.8463,-2.8511,-2.811,-2.8125,-2.8125,-2.8125,-2.8125,-2.8183,-2.8288,-2.8158,-2.8693,-2.9807,-3.0454,-3.1477,-3.8427,-3.9785,-4.1558,-4.2274,-4.3595,-4.5052,-4.651,-4.6841,-4.7073,-4.7819,-4.7968,-4.8199,-4.8961,-4.8531,-4.8779,-5.0967,-5.0717,-5.0767,-5.2158,-5.1115,-5.0204,-5.0187,-4.8895,-4.8017,-4.8034,-4.8017,-4.8001,-4.8001,-4.8001,-4.8001,-4.8001,-4.8001,-4.8001,-4.8001,-4.8001,-4.7653,-4.6941,-4.6908,-4.6179,-4.4785,-4.4721,-4.4357,-4.3602,-4.2976,-4.2633,-4.2585,-4.1852,-4.1558,-4.1558,-4.1558,-4.1525,-4.1459,-4.0805,-4.0547,-4.0332,-3.8998,-3.8072,-3.7571,-3.8264,-3.7195,-3.5552,-3.5537,-3.5941,-3.643,-3.643,-3.689,-3.7531,-3.8137,-3.8306,-3.8463,-3.9121,-3.8799,-3.795,-3.6567,-3.5753,-3.4932,-3.3514,-3.3214,-3.3182,-3.3182,-3.3182,-3.3039,-3.252,-3.241,-3.2216,-3.1581,-3.0445,-2.9424,-2.8794,-2.8115,-2.7665,-2.7625,-2.7625,-2.76,-2.76,-2.761,-2.7625,-2.7625,-2.765,-2.765,-2.7625,-2.7625,-2.7625,-2.7625,-2.7625,-2.7845,-2.8288,-2.7845,-2.8541,-3.0262,-2.986,-3.0338,-4.0017,-4.1226,-4.2522,-4.4274,-4.5433,-4.6411,-4.7404,-4.7636,-4.7554,-4.7322,-4.7272,-4.7206,-4.6941,-4.7106,-4.7835,-4.9558,-5.0055,-5.0386,-5.0883,-5.0916,-5.0386,-4.8912,-4.8746,-4.8547,-4.805,-4.8001,-4.8001,-4.8001,-4.8001,-4.8001,-4.8001,-4.8001,-4.8001,-4.8001,-4.7537,-4.7156,-4.6891,-4.5914,-4.5185,-4.4671,-4.4208,-4.3603,-4.2943,-4.271,-4.2317,-4.1819,-4.1142,-4.1109,-4.1459,-4.1042,-4.0839,-4.0805,-4.0581,-3.9925,-3.9063,-3.8572,-3.7719,-3.6825,-3.7092,-3.6421,-3.5504,-3.5504,-3.5651,-3.5797,-3.5797,-3.6227,-3.6784,-3.6981,-3.7354,-3.7735,-3.7982,-3.7546,-3.6806,-3.588,-3.4868,-3.3859,-3.293,-3.2396,-3.2076,-3.2076,-3.2076,-3.1992,-3.1824,-3.1796,-3.1588,-3.0939,-3.0118,-2.9202,-2.8079,-2.775,-2.76,-2.76,-2.76,-2.76,-2.76,-2.76,-2.76,-2.76,-2.76,-2.76,-2.76,-2.76,-2.76,-2.76,-2.76,-2.7685,-2.7845,-2.7685,-2.8351,-2.9845,-3.0027,-3.0849,-4.1331,-4.2734,-4.4092,-4.5765,-4.6742,-4.7355,-4.7554,-4.7603,-4.7322,-4.6311,-4.6096,-4.5881,-4.5152,-4.54,-4.6295,-4.8034,-4.8945,-4.9707,-5.0485,-5.0767,-5.0369,-4.8961,-4.8746,-4.8531,-4.805,-4.7769,-4.7603,-4.7603,-4.7852,-4.7885,-4.762,-4.7868,-4.7885,-4.762,-4.7156,-4.6643,-4.6113,-4.5152,-4.4556,-4.4307,-4.3586,-4.3005,-4.2585,-4.2094,-4.1591,-4.1093,-4.0409,-4.0339,-4.0687,-4.0044,-3.9745,-3.973,-3.9486,-3.886,-3.8018,-3.7793,-3.7195,-3.6492,-3.6492,-3.6058,-3.5504,-3.5504,-3.5504,-3.5504,-3.5504,-3.5765,-3.6101,-3.6337,-3.6723,-3.7101,-3.734,-3.689,-3.6214,-3.5568,-3.4425,-3.332,-3.2632,-3.1974,-3.1511,-3.1511,-3.1511,-3.1511,-3.1511,-3.1511,-3.1271,-3.0612,-3.0163,-2.9457,-2.8139,-2.775,-2.76,-2.76,-2.76,-2.76,-2.76,-2.76,-2.76,-2.76,-2.76,-2.76,-2.76,-2.76,-2.76,-2.76,-2.76,-2.7575,-2.7539,-2.7575,-2.8263,-2.9552,-2.9936,-3.0823,-4.244,-4.4241,-4.603,-4.6775,-4.7454,-4.7769,-4.7057,-4.6841,-4.6378,-4.4937,-4.4605,-4.434,-4.3565,-4.3499,-4.4244,-4.6427,-4.7438,-4.8713,-5.0951,-5.0634,-5.0204,-5.0171,-4.8912,-4.805,-4.8001,-4.7338,-4.6874,-4.6841,0.0,-4.7653,-4.699,-4.7587,-4.762,-4.6924,-4.6825,-4.6113,-4.4705,-4.4655,-4.4291,-4.3598,-4.2912,-4.2585,-4.2491,-4.1142,-4.0478,-4.0409,-3.9687,-3.9364,-3.932,-3.8631,-3.8347,-3.8287,-3.7659,-3.7389,-3.7285,-3.6701,-3.6462,-3.6432,-3.6432,-3.6028,-3.5504,-3.5504,-3.5504,-3.5504,-3.5504,-3.5504,-3.5619,-3.6196,-3.6337,-3.6492,-3.7131,-3.6845,-3.6199,-3.5569,-3.444,-3.332,-3.2706,-3.1989,-3.1511,-3.1511,-3.1511,-3.1511,-3.1511,-3.1511,-3.1286,-3.0657,-3.0522,-3.0058,-2.8816,-2.8079,-2.7645,-2.7645,-2.7615,-2.76,-2.76,-2.76,-2.76,-2.76,-2.76,-2.76,-2.76,-2.76,-2.76,-2.76,-2.76,-2.7524,-2.7401,-2.7539,-2.8196,-2.9357,-2.951,-3.0268,-4.4456,-4.5765,-4.6792,-4.7537,-4.7454,-4.7123,-4.6941,-4.6046,-4.4986,-4.4075,-4.3446,-4.2684,-4.1442,-4.2088,-4.333,-4.4986,-4.6328,-4.7951,-5.0171,-5.032,-5.0005,-4.9458,-4.9061,-4.8597,-4.805,-4.7338,-4.6676,-4.6113,-4.6758,-4.7338,-4.7703,-4.7371,-4.709,-4.6908,-4.5814,-4.5069,-4.4688,-4.4158,-4.378,-4.3598,-4.2912,-4.2317,-4.1754,-4.0873,-4.0216,-3.9651,-3.8942,-3.8646,-3.8601,-3.7928,-3.7659,-3.7644,-3.7479,-3.7135,-3.6701,-3.6552,-3.6178,-3.5744,-3.5744,-3.5639,-3.5504,-3.5504,-3.5504,-3.5504,-3.5504,-3.5504,-3.5537,-3.5683,-3.5733,-3.5765,-3.5941,-3.5861,-3.5688,-3.5522,-3.4463,-3.344,-3.3275,-3.2318,-3.1511,-3.1511,-3.1511,-3.1511,-3.1511,-3.1511,-3.1451,-3.1271,-3.0808,-3.0223,-2.943,-2.8742,-2.8338,-2.8338,-2.7899,-2.76,-2.76,-2.76,-2.76,-2.76,-2.76,-2.76,-2.76,-2.76,-2.7549,-2.7437,-2.7437,-2.7386,-2.7258,-2.7284,-2.7776,-2.8661,-2.9205,-2.9876,-4.5864,-4.6825,-4.7487,-4.7901,-4.7454,-4.6643,-4.5682,-4.4821,-4.3661,-4.1629,-4.1177,-4.0663,-3.9206,-4.0133,-4.1574,-4.3015,-4.5019,-4.7189,-4.9409,-4.9723,-4.969,-4.9607,-4.9011,-4.8465,-4.805,-4.704,-4.6378,-4.6278,-4.6659,-4.6792,-4.656,-4.6775,-4.6593,-4.5947,-4.5119,-4.4539,-4.4224,-4.3493,-4.3174,-4.3143,-4.2158,-4.1459,-4.1042,-4.0355,-3.9622,-3.8945,0.0,-3.8227,-3.7913,-3.727,-3.7,-3.6985,-3.6686,-3.6357,-3.6058,-3.6058,-3.5818,-3.5504,-3.5504,-3.5504,-3.5504,-3.5504,-3.5504,-3.5504,-3.5504,-3.5504,-3.5504,-3.5504,-3.5504,-3.5504,-3.5504,-3.5504,-3.5504,-3.5504,-3.4472,-3.3499,-3.3499,-3.2437,-3.1511,-3.1511,-3.1511,-3.1511,-3.1511,-3.1511,-3.1511,-3.1511,-3.1182,-3.0808,-3.0477,-2.9355,-2.8607,-2.8607,-2.8004,-2.76,-2.76,-2.76,-2.76,-2.76,-2.76,-2.7575,-2.7514,-2.7514,-2.7463,-2.731,-2.731,-2.7248,-2.7119,-2.7435,-2.796,-2.8636,-2.9438,-3.0147,-4.6841,-4.7504,-4.7984,-4.7885,-4.7305,-4.6179,-4.3946,-4.33,-4.2224,-3.8907,-3.8626,-3.8602,-3.7218,-3.8228,-3.9746,-4.1061,-4.3645,-4.6311,-4.863,-4.8879,-4.9127,-4.9955,-4.8845,-4.8001,-4.8001,-4.6659,-4.6063,-4.6709,-4.6659,-4.6079,-4.4903,-4.5963,-4.598,-4.4589,-4.4539,-4.4211,-4.3462,-4.2881,-4.2554,-4.2443,-4.1142,-4.0512,-4.0478,-3.9647,-3.896,-3.8377,-3.8212,0.0,-3.724,-3.6611,-3.6357,-3.6297,-3.5729,-3.5504,-3.5504,-3.5504,-3.5504,-3.5504,-3.5504,-3.5504,-3.5504,-3.5504,-3.5504,-3.5504,-3.5504,-3.5504,-3.5504,-3.5504,-3.5504,-3.5504,-3.5504,-3.5504,-3.5504,-3.5504,-3.4532,-3.3619,-3.3619,-3.2587,-3.1615,-3.1525,-3.1511,-3.1511,-3.1511,-3.1511,-3.1511,-3.1511,-3.1511,-3.1511,-3.1467,-2.9941,-2.8816,-2.8742,-2.8139,-2.7705,-2.76,-2.76,-2.76,-2.76,-2.76,-2.7524,-2.7401,-2.7401,-2.7325,-2.7181,-2.7181,-2.7163,-2.7083,-2.7756,-2.8328,-2.8918,-2.9832,-3.0552,-4.7603,-4.7901,-4.7852,-4.7239,-4.6527,-4.54,-4.3184,-4.1789,-4.0431,-3.8593,-3.7831,-3.7218,-3.6357,-3.788,-3.958,-4.0442,-4.2502,-4.4986,-4.7802,-4.7669,-4.7785,-4.9144,-4.8531,-4.8001,-4.8001,-4.6659,-4.5847,-4.598,-4.5417,-4.5235,-4.5582,-4.5268,-4.4688,-4.3813,-4.378,-4.3457,-4.2772,-4.2648,-4.2285,-4.1689,-4.0873,-4.0512,-4.0462,-3.9149,-3.8497,-3.8332,-3.727,0.0,-3.6596,-3.5953,-3.5669,-3.5669,-3.5549,-3.5504,-3.5504,-3.5504,-3.5504,-3.5504,-3.5504,-3.5504,-3.5504,-3.5504,-3.5504,-3.5504,-3.5504,-3.5504,-3.5504,-3.5504,-3.5504,-3.5504,-3.5504,-3.5504,-3.5504,-3.5504,-3.4891,-3.4339,-3.4339,-3.3275,-3.2153,-3.1615,-3.1511,-3.1511,-3.1511,-3.1511,-3.1511,-3.1511,-3.1511,-3.1467,-3.1351,-3.0647,-2.9983,-2.946,-2.8816,-2.8188,-2.7645,-2.76,-2.76,-2.76,-2.76,-2.7524,-2.7401,-2.7401,-2.7273,-2.7055,-2.7029,-2.7199,-2.7563,-2.7706,-2.8167,-2.892,-2.9635,-3.0001,-4.7802,-4.8001,-4.7819,-4.7073,-4.6046,-4.4556,-4.1988,-4.0282,-3.8626,-3.6373,-3.5926,-3.5727,-3.4982,-3.6655,-3.8394,-3.9139,-4.1077,-4.3495,-4.6444,-4.6543,-4.7007,-4.8895,-4.8465,-4.7852,-4.7454,-4.6444,-4.5632,-4.5251,-4.4539,-4.4291,-4.4655,-4.4324,-4.3976,-4.3615,-4.3598,-4.3265,-4.2617,-4.2221,-4.1656,-4.0974,-4.025,-3.9718,-3.9388,-3.8702,-3.8033,-3.7375,-3.6746,0.0,-3.5953,-3.5639,-3.5504,-3.5504,-3.5504,-3.5504,-3.5504,-3.5504,-3.5504,-3.5504,-3.5504,-3.5504,-3.5504,-3.5504,-3.5504,-3.5504,-3.5504,-3.5504,-3.5504,-3.5504,-3.5504,-3.5504,-3.5504,-3.5504,-3.5504,-3.5504,-3.4981,-3.4414,-3.4038,-3.32,-3.2392,-3.2079,-3.1735,-3.1511,-3.1511,-3.1511,-3.1511,-3.1511,-3.1511,-3.1438,-3.1322,-3.1097,-3.065,-2.9941,-2.9327,-2.8833,-2.8505,-2.8189,-2.8021,-2.8021,-2.7902,-2.7665,-2.7211,-2.7818,-2.7918,-2.7368,-2.7715,-2.8008,-2.8231,-2.8522,-2.8898,-2.9275,-3.0002,-3.0353,-4.7603,-4.7885,-4.7785,-4.6891,-4.5665,-4.3893,-4.0873,-3.9023,-3.7185,-3.4369,-3.4137,-3.4286,-3.3872,-3.5346,-3.6986,-3.8046,-3.9752,-4.1988,-4.492,-4.545,-4.6328,-4.8382,-4.8266,-4.7719,-4.6974,-4.6228,-4.5483,-4.4754,-4.4026,-4.3598,-4.3598,-4.3462,-4.3402,-4.3402,-4.3235,-4.2834,-4.2158,-4.1558,-4.0863,-4.0056,-3.9455,-3.8841,-3.8167,-3.8048,-3.7434,-3.6477,-3.6342,0.0,0.0,-3.5504,-3.5504,-3.5504,-3.5504,-3.5504,-3.5504,-3.5504,-3.5504,-3.5504,-3.5504,-3.5504,-3.5504,-3.5504,-3.5504,-3.5504,-3.5504,-3.5504,-3.5504,-3.5504,-3.5504,-3.5504,-3.5504,-3.5504,-3.5504,-3.5504,-3.51,-3.4548,-3.3844,-3.3305,-3.2841,-3.2572,-3.2064,-3.1675,-3.1525,-3.1511,-3.1511,-3.1511,-3.1511,-3.1438,-3.1292,-3.1263,-3.0983,-3.0279,-2.9788,-2.9413,-2.9265,-2.8845,-2.8575,-2.8548,-2.8441,-2.8012,-2.7223,-2.8278,-2.8529,-2.7724,-2.8361,-2.8767,-2.8884,-2.9377,-2.9668,-2.9842,-3.0469,-3.0762,-4.6974,-4.7487,-4.7669,-4.6245,-4.5284,-4.3774,-4.021,-3.8245,-3.6555,-3.427,-3.3309,-3.31,-3.3673,-3.4502,-3.5777,-3.7855,-3.8924,-4.0481,-4.3383,-4.4373,-4.5367,-4.6924,-4.7636,-4.7719,-4.6974,-4.6228,-4.5483,-4.4754,-4.4026,-4.3598,-4.3598,-4.3005,-4.2679,-4.2679,-4.2045,-4.136,-4.0703,-4.0615,-3.9929,-3.8587,-3.8517,-3.8138,-3.7479,-3.6911,-3.6596,-3.6447,-3.5863,0.0,0.0,-3.5504,-3.5504,-3.5504,-3.5504,-3.5504,-3.5504,-3.5504,-3.5504,-3.5504,-3.5504,-3.5504,-3.5504,-3.5504,-3.5504,-3.5504,-3.5504,-3.5504,-3.5504,-3.5504,-3.5504,-3.5504,-3.5504,-3.5504,-3.5504,-3.5504,-3.5459,-3.522,-3.4532,-3.4369,-3.3979,-3.2751,-3.2437,-3.2198,-3.16,-3.1511,-3.1511,-3.1511,-3.1511,-3.1424,-3.1132,-3.1102,-3.0955,-3.0585,-3.0221,-2.9776,-2.9156,-2.9163,-2.9161,-2.9037,-2.9134,-2.8783,-2.7852,-2.8525,-2.8529,-2.7724,-2.8361,-2.8956,-2.9508,-2.9566,-2.9914,-3.0525,-3.0569,-3.0612,-4.6442,-4.6792,-4.6527,-4.5947,-4.4572,-4.2667,-3.9928,-3.7466,-3.5263,-3.3491,-3.2547,-3.2266,-3.2994,-3.3398,-3.4286,-3.6522,-3.6738,-3.7665,-4.0597,-4.164,-4.2949,-4.5284,-4.5814,-4.6063,-4.6212,-4.5566,-4.4821,-4.4092,-4.3764,-4.3432,-4.3005,-4.2758,-4.2396,-4.1949,-4.1656,-4.116,-4.0512,-4.0112,-3.9398,-3.8392,-3.7988,-3.7464,-3.6851,-3.6596,-3.6267,-3.5878,-3.5624,0.0,0.0,-3.5504,-3.5504,-3.5504,-3.5504,-3.5504,-3.5504,-3.5504,-3.5504,-3.5504,-3.5504,-3.5504,-3.5504,-3.5504,-3.5504,-3.5504,-3.5504,-3.5504,-3.5504,-3.5504,-3.5504,-3.5504,-3.5504,-3.5504,-3.5504,-3.5504,-3.5504,-3.5429,-3.516,-3.4771,-3.4234,-3.3275,-3.2781,-3.2273,-3.1615,-3.1511,-3.1511,-3.1511,-3.1511,-3.1395,-3.1132,-3.1117,-3.0984,-3.0642,-3.0543,-3.0397,-3.0162,-2.9838,-2.9632,-2.9589,-2.9166,-2.8585,-2.7819,-2.8766,-2.9013,-2.8318,-2.9334,-2.9973,-3.019,-3.019,-3.0321,-3.0598,-3.0598,-3.0598,-4.5282,-4.5698,-4.5417,-4.5202,-4.3661,-4.1624,-3.9454,-3.6688,-3.422,-3.2967,-3.1951,-3.1499,-3.2232,-3.2547,-3.3342,-3.5346,-3.5413,-3.6174,-3.8917,-3.9928,-4.1321,-4.3761,-4.4241,-4.4572,-4.5102,-4.4688,-4.4175,-4.3631,-4.3432,-4.3005,-4.2317,-4.2094,-4.1722,-4.1227,-4.079,-4.0359,-3.9875,-3.9203,-3.8538,-3.7823,-3.736,-3.6806,-3.6193,-3.6193,-3.5953,-3.5504,-3.5504,0.0,0.0,-3.5504,-3.5504,-3.5504,-3.5504,-3.5504,-3.5504,-3.5504,-3.5504,-3.5504,-3.5504,-3.5504,-3.5504,-3.5504,-3.5504,-3.5504,-3.5504,-3.5504,-3.5504,-3.5504,-3.5504,-3.5504,-3.5504,-3.5504,-3.5504,-3.5504,-3.5504,-3.5504,-3.5504,-3.513,-3.4577,-3.3841,-3.3199,-3.2512,-3.1811,-3.1572,-3.1438,-3.1511,-3.1467,-3.1366,-3.1132,-3.1043,-3.0925,-3.0642,-3.0672,-3.0732,-3.0732,-3.0382,-3.0148,-3.0119,-2.9609,-2.9013,-2.829,-2.9305,-2.961,-2.8971,-3.0045,-3.0598,-3.0598,-3.0598,-3.0598,-3.0598,-3.0598,-3.0598,-4.3264,-4.4175,-4.4522,-4.3797,-4.2489,-4.0834,-3.8709,-3.5926,-3.3613,-3.2868,-3.1537,-3.0737,-3.1482,-3.2216,-3.3199,-3.4667,-3.5512,-3.6754,-3.9,-3.9928,-4.0912,-4.234,-4.3168,-4.3615,-4.3615,-4.3615,-4.3598,-4.3598,-4.2974,0.0,-4.1558,-4.0873,-4.0512,-4.0512,-3.9143,-3.8427,-3.8427,-3.7749,-3.7105,-3.6507,-3.6492,-3.6148,-3.5519,-3.5519,-3.5519,0.0,0.0,0.0,0.0,-3.5504,-3.5504,-3.5504,-3.5504,-3.5504,-3.5504,-3.5504,-3.5504,-3.5504,-3.5504,-3.5504,-3.5504,-3.5504,-3.5504,-3.5504,-3.5504,-3.5504,-3.5504,-3.5504,-3.5504,-3.5504,-3.5504,-3.5504,-3.5504,-3.5504,-3.5504,-3.5504,-3.5504,-3.5504,-3.5215,-3.4354,-3.3684,-3.3045,-3.2332,-3.1708,-3.1351,-3.1467,-3.138,-3.1263,-3.1102,-3.0925,-3.0762,-3.0598,-3.0598,-3.0598,-3.0598,-3.0732,-3.0717,-3.0598,-3.0717,-3.0426,-2.9595,-3.0219,-3.0263,-2.9595,-3.0248,-3.0598,-3.0598,-3.0598,-3.0598,-3.0598,-3.0598,-3.0598,-4.0934,-4.1238,-4.1072,-4.1342,-4.0299,-3.8881,-3.7731,-3.5562,-3.3574,-3.2868,-3.1537,-3.0721,-3.1466,-3.1366,-3.2017,-3.4502,-3.4667,-3.5263,-3.7483,-3.8433,-3.96,-4.1534,-4.2892,-4.3451,-4.2961,-4.2912,-4.3113,-4.3568,-4.2974,-4.2285,-4.1525,-4.0422,-3.9596,-3.9078,-3.8637,-3.8167,-3.7719,-3.709,-3.6686,-3.6477,-3.6028,-3.5714,-3.5504,-3.5504,-3.5504,0.0,0.0,0.0,0.0,-3.5504,-3.5504,-3.5504,-3.5504,-3.5504,-3.5504,-3.5504,-3.5504,-3.5504,-3.5504,-3.5504,-3.5504,-3.5504,-3.5504,-3.5504,-3.5504,-3.5504,-3.5504,-3.5504,-3.5504,-3.5504,-3.5504,-3.5504,-3.5504,-3.5504,-3.5392,-3.5326,-3.5472,-3.5294,-3.4907,-3.4322,-3.3991,-3.3556,-3.2859,-3.221,-3.1781,-3.1856,-3.1442,-3.1102,-3.0925,-3.0821,-3.0762,-3.0598,-3.0598,-3.0598,-3.0598,-3.0642,-3.0642,-3.0598,-3.0205,-2.9871,-2.961,-2.9813,-2.9827,-2.9595,-3.0248,-3.0598,-3.0598,-3.0598,-3.0598,-3.0598,-3.0598,-3.0598,-3.9089,-3.9276,-3.9017,-3.9454,-3.8676,-3.7533,-3.6506,-3.4767,-3.3176,-3.2448,-3.1338,-3.0638,-3.1101,-3.1035,-3.1515,-3.3359,-3.374,-3.4381,-3.6073,-3.7151,-3.8509,-4.0369,-4.1949,-4.2572,-4.1852,-4.2029,-4.2349,-4.2772,-4.219,-4.1607,-4.116,-3.9831,-3.8743,-3.8068,-3.7793,-3.7479,-3.706,-3.6432,-3.6118,-3.6118,-3.5699,-3.5504,-3.5504,-3.5504,-3.5504,0.0,0.0,0.0,0.0,-3.5504,-3.5504,-3.5504,-3.5504,-3.5504,-3.5504,-3.5504,-3.5504,-3.5504,-3.5504,-3.5504,-3.5504,-3.5504,-3.5504,-3.5504,-3.5504,-3.5504,-3.5504,-3.5504,-3.5504,-3.5504,-3.5504,-3.5504,-3.5504,-3.5504,-3.5359,-3.5213,-3.5359,-3.5115,-3.4802,-3.4469,-3.4124,-3.3733,-3.3336,-3.2528,-3.194,-3.1985,-3.1426,-3.0955,-3.0821,-3.0762,-3.0702,-3.0598,-3.0598,-3.0598,-3.0598,-3.0598,-3.0598,-3.0598,-3.0205,-2.9987,-2.9987,-2.9987,-2.9987,-2.9987,-3.0409,-3.0598,-3.0598,-3.0598,-3.0598,-3.0598,-3.0598,-3.0598,0.0,-3.7983,-3.7897,-3.7897,-3.7334,-3.6439,-3.5048,-3.3624,0.0,-3.1747,-3.1019,-3.0522,-3.0572,-3.1135,-3.1648,-3.1813,-3.3027,-3.4246,-3.504,-3.6378,-3.7787,-3.9235,-4.0591,-4.1195,-4.0546,-4.1032,-4.1459,-4.1492,-4.0826,-4.0435,-4.0435,-3.9037,-3.7973,-3.736,-3.6746,-3.6417,-3.6417,-3.5804,-3.5504,-3.5504,-3.5504,-3.5504,-3.5504,-3.5504,-3.5504,0.0,0.0,0.0,0.0,-3.5504,-3.5504,-3.5504,-3.5504,-3.5504,-3.5504,-3.5504,-3.5504,-3.5504,-3.5504,-3.5504,-3.5504,-3.5504,-3.5504,-3.5504,-3.5504,-3.5504,-3.5504,-3.5504,-3.5504,-3.5504,-3.5504,-3.5504,-3.5504,-3.5504,-3.5326,-3.518,-3.518,-3.5001,-3.4835,-3.4731,-3.42,-3.3761,-3.3761,-3.2737,-3.1949,-3.2087,-3.1438,-3.0893,-3.0865,-3.073,-3.0656,-3.0598,-3.0598,-3.0598,-3.0598,-3.0598,-3.0598,-3.0598,-3.0598,-3.0598,-3.0598,-3.0598,-3.0598,-3.0598,-3.0598,-3.0598,-3.0598,-3.0598,-3.0598,-3.0598,-3.0598,-3.0627,-3.505,0.0,-3.4833,-3.4833,-3.427,-3.3624,0.0,-3.2514,-3.1797,-3.1648,-3.1019,-3.0671,-3.1234,-3.1482,-3.2144,-3.3856,-3.4883,-3.5762,-3.6572,-3.7937,-3.9188,-4.0104,-4.0531,-4.0859,-4.1207,-4.0932,-4.094,-4.1459,-4.0391,-3.9742,-3.9742,-3.7982,-3.6866,-3.6716,-3.6073,-3.5744,-3.5744,-3.5579,-3.5504,-3.5504,-3.5504,-3.5504,-3.5504,-3.5504,-3.5504,0.0,0.0,0.0,-3.5504,-3.5504,-3.5504,-3.5504,-3.5504,-3.5504,-3.5504,-3.5504,-3.5504,-3.5504,-3.5504,-3.5504,-3.5504,-3.5504,-3.5504,-3.5504,-3.5504,-3.5504,-3.5504,-3.5504,-3.5504,-3.5504,-3.5504,-3.5504,-3.5504,-3.5504,-3.5213,-3.5001,-3.518,-3.485,-3.4549,-3.4664,-3.4466,-3.4249,-3.4249,-3.3594,-3.3118,-3.315,-3.2533,-3.1905,-3.1397,-3.1293,-3.1105,-3.0656,-3.0598,-3.0598,-3.0598,-3.0598,-3.0598,-3.0598,-3.0598,-3.0598,-3.0598,-3.0598,-3.0598,-3.0598,-3.0598,-3.0598,-3.0598,-3.0598,-3.0598,-3.0598,-3.0598,-3.0843,-3.379,-3.3989,-3.4286,-3.4286,-3.3988,-3.3607,-3.3299,-3.2381,-3.1499,-3.1168,-3.0787,-3.0721,-3.1466,-3.1386,-3.1835,-3.3601,-3.4317,-3.5267,-3.7001,-3.8262,-3.9236,-3.9923,-4.0285,-4.0512,-4.0531,-4.0216,-4.0146,-4.0512,-3.9574,-3.9002,-3.9002,-3.7417,-3.6492,-3.6492,-3.5848,-3.5504,-3.5504,-3.5504,-3.5504,-3.5504,-3.5504,-3.5504,-3.5504,-3.5504,-3.5504,0.0,0.0,0.0,-3.5504,-3.5504,-3.5504,-3.5504,-3.5504,-3.5504,-3.5504,-3.5504,-3.5504,-3.5504,-3.5504,-3.5504,-3.5504,-3.5504,-3.5504,-3.5472,-3.5392,-3.5439,-3.5504,-3.5504,-3.5439,-3.5359,-3.5472,-3.5439,-3.5392,-3.5472,-3.518,-3.4935,-3.5034,-3.4716,-3.4414,-3.4549,-3.4481,-3.4414,-3.4414,-3.3891,-3.3503,-3.3503,-3.2919,-3.235,-3.2019,-3.1944,-3.1729,-3.1076,-3.1003,-3.0887,-3.0627,-3.0598,-3.0598,-3.0598,-3.0598,-3.0598,-3.0598,-3.0598,-3.0598,-3.0598,-3.0598,-3.0598,-3.0598,-3.0598,-3.0598,-3.0612,-3.0872,-3.1192,-3.3232,-3.3989,-3.4849,-3.4618,-3.4651,-3.4535,-3.3789,-3.268,-3.1581,-3.0952,-3.0837,-3.1031,-3.1687,-3.1596,-3.1831,-3.3034,-3.3616,-3.4789,-3.7275,-3.8115,-3.8757,-3.9474,-4.0021,-4.0111,-3.961,-3.9445,-3.9388,-3.9388,-3.8691,-3.8242,-3.8242,-3.703,-3.6342,-3.6342,-3.5804,-3.5504,-3.5504,-3.5504,-3.5504,-3.5504,-3.5504,-3.5504,-3.5504,-3.5504,-3.5504,-3.5504,0.0,0.0,-3.5504,-3.5504,-3.5504,-3.5504,-3.5504,-3.5504,-3.5504,-3.5504,-3.5504,-3.5504,-3.5504,-3.5504,-3.5504,-3.5504,-3.5504,-3.5472,-3.5261,-3.5326,-3.5439,-3.5439,-3.5326,-3.5213,-3.5359,-3.5294,-3.518,-3.5359,-3.5115,-3.4868,-3.4868,-3.4601,-3.4414,-3.4414,-3.4414,-3.4414,-3.4414,-3.3978,-3.3649,-3.3649,-3.3151,-3.2742,-3.2672,-3.2658,-3.2367,-3.1567,-3.1495,-3.1293,-3.0786,-3.0656,-3.0641,-3.0743,-3.0656,-3.0598,-3.0598,-3.0598,-3.0598,-3.0598,-3.0598,-3.0656,-3.0757,-3.0641,-3.0699,-3.0903,-3.1308,-3.1627,-3.2964,-3.3989,-3.4601,-3.3365,-3.3514,-3.3796,-3.305,-3.2702,-3.2497,-3.2381,-3.2348,-3.2446,-3.2729,-3.3603,-3.456,-3.5505,-3.6754,-3.7933,-3.8941,-3.8705,-3.8897,-4.0193,-3.9879,-3.9788,-4.0285,-3.9788,-3.9388,-3.9388,-3.8257,-3.7554,-3.7554,-3.6357,-3.5654,-3.5654,-3.5549,-3.5504,-3.5504,-3.5504,-3.5504,-3.5504,-3.5504,-3.5504,-3.5504,-3.5504,-3.5504,-3.5504,0.0,-3.5504,-3.5504,-3.5504,-3.5504,-3.5504,-3.5504,-3.5504,-3.5504,-3.5504,-3.5504,-3.5504,-3.5504,-3.5504,-3.5504,-3.5504,-3.5504,-3.5472,-3.5261,-3.5213,-3.5213,-3.5034,-3.5082,-3.518,-3.5034,-3.4968,-3.4935,-3.4968,-3.485,-3.4731,-3.4731,-3.4563,-3.4414,-3.4414,-3.4414,-3.4414,-3.4414,-3.4327,-3.4269,-3.4269,-3.4182,-3.392,-3.3416,-3.3358,-3.2861,-3.1642,-3.1495,-3.1451,-3.138,-3.0872,-3.083,-3.1337,-3.0872,-3.0598,-3.0598,-3.0598,-3.0598,-3.0598,-3.0598,-3.0843,-3.1366,-3.0843,-3.1148,-3.2208,-3.1729,-3.2121,-3.2047,-3.3073,-3.4137,-3.3458,-3.4435,-3.5495,-3.5148,-3.4137,-3.3276,-3.3276,-3.2984,-3.2869,-3.3437,-3.3742,-3.435,-3.5611,-3.6955,-3.8004,-3.8599,-3.8532,-3.8737,-3.9647,-3.9538,-3.9517,-3.9879,-3.9589,-3.926,-3.8901,-3.7958,-3.727,-3.6926,-3.6013,-3.5504,-3.5504,-3.5504,-3.5504,-3.5504,-3.5504,-3.5504,-3.5504,-3.5504,-3.5504,-3.5504,-3.5504,-3.5504,-3.5504,0.0,-3.5504,-3.5504,-3.5504,-3.5504,-3.5504,-3.5504,-3.5504,-3.5504,-3.5504,-3.5504,-3.5504,-3.5504,-3.5504,-3.5472,-3.5359,-3.5407,-3.5439,-3.5063,-3.5063,-3.5115,-3.475,-3.4783,-3.4931,-3.4902,-3.4835,-3.4817,-3.4868,-3.4817,-3.4698,-3.4698,-3.4549,-3.4414,-3.4414,-3.4414,-3.4414,-3.4414,-3.4414,-3.4414,-3.4414,-3.4414,-3.4312,-3.4008,-3.3978,-3.3616,-3.2672,-3.2571,-3.2425,-3.206,-3.1787,-3.1453,-3.1032,-3.1061,-3.109,-3.109,-3.109,-3.125,-3.1613,-3.1264,-3.1409,-3.2031,-3.1772,-3.1932,-3.2481,-3.2556,-3.289,-3.1679,-3.2595,-3.3789,-3.3789,-3.5197,-3.6721,-3.7251,-3.5777,-3.4452,-3.4989,-3.4391,-3.3955,-3.4644,-3.4548,-3.4794,-3.6128,-3.7292,-3.8111,-3.8234,-3.8454,-3.8668,-3.8994,-3.9177,-3.9265,-3.9265,-3.913,-3.8868,-3.8366,-3.7575,-3.6952,-3.6507,-3.5863,-3.5504,-3.5504,-3.5504,-3.5504,-3.5504,-3.5504,-3.5504,-3.5504,-3.5504,-3.5504,-3.5504,-3.5504,-3.5504,-3.5504,-3.5504,-3.5504,-3.5504,-3.5504,-3.5504,-3.5504,-3.5504,-3.5504,-3.5504,-3.5504,-3.5504,-3.5504,-3.5504,-3.5504,-3.5472,-3.5261,-3.5294,-3.5326,-3.4831,-3.4898,-3.4997,-3.4515,-3.4515,-3.465,-3.4769,-3.4716,-3.4664,-3.4769,-3.4716,-3.4631,-3.4631,-3.4515,-3.4414,-3.4414,-3.4414,-3.4414,-3.4414,-3.4414,-3.4414,-3.4414,-3.4414,-3.4414,-3.4414,-3.4414,-3.4167,-3.3561,-3.3503,-3.3242,-3.2539,-3.2658,-3.2251,-3.1105,-3.1337,-3.1553,-3.1743,-3.1712,-3.1973,-3.2481,-3.1988,-3.2046,-3.2745,-3.2585,-3.264,-3.2962,-3.3344,-3.359,-3.278,-3.3356,-3.3789,-3.3789,-3.4419,-3.5595,-3.7665,-3.6953,-3.6423,-3.8486,-3.7822,-3.6913,-3.7037,-3.763,-3.8241,-3.8701,-3.9588,-3.9912,-3.8876,-3.8906,-3.9009,-3.8855,-3.8819,-3.8819,-3.8819,-3.8353,-3.802,-3.8139,-3.6966,0.0,-3.6492,-3.5863,-3.5504,-3.5504,-3.5504,-3.5504,-3.5504,-3.5504,-3.5504,-3.5504,-3.5504,-3.5504,-3.5504,-3.5504,-3.5504,-3.5504,-3.5504,-3.5504,-3.5504,-3.5504,-3.5504,-3.5504,-3.5504,-3.5504,-3.5504,-3.5504,-3.5504,-3.5504,-3.5504,-3.5504,-3.5472,-3.5261,-3.5213,-3.5162,-3.4798,-3.4731,-3.4698,-3.4448,-3.4414,-3.4414,-3.4448,-3.4414,-3.4414,-3.4448,-3.4414,-3.4414,-3.4414,-3.4414,-3.4414,-3.4414,-3.4414,-3.4414,-3.4414,-3.4414,-3.4414,-3.4414,-3.4414,-3.4414,-3.4414,-3.4414,-3.4167,-3.3561,-3.3503,-3.3242,-3.2539,-3.3064,-3.3108,-3.2425,-3.1814,-3.177,-3.2394,-3.2423,-3.2437,-3.2481,-3.2437,-3.2759,-3.3431,-3.2803,-3.3122,-3.4269,-3.375,-3.3823,-3.2445,-3.309,-3.3905,-3.4369,-3.5032,-3.6042,-3.7788,-3.8112,-3.8437,-3.973,-3.9193,-3.8379,-3.8001,-3.8081,-3.8286,-3.8404,-3.9338,-3.9734,-3.8745,-3.9165,-3.9306,-3.8708,-3.8385,-3.8258,-3.8258,-3.7668,-3.7142,-3.6763,-3.629,0.0,-3.5714,-3.546,-3.5359,-3.5504,-3.5504,-3.5504,-3.5504,-3.5504,-3.5504,-3.5504,-3.5504,-3.5504,-3.5504,-3.5504,-3.5504,-3.5504,-3.5504,-3.5504,-3.5504,-3.5504,-3.5504,-3.5504,-3.5504,-3.5504,-3.5504,-3.5504,-3.5504,-3.5504,-3.5504,-3.5504,-3.5439,-3.5115,-3.518,-3.5261,-3.4683,-3.465,-3.4783,-3.4481,-3.4414,-3.4414,-3.4414,-3.4414,-3.4414,-3.4414,-3.4414,-3.4414,-3.4414,-3.4414,-3.4414,-3.4414,-3.4414,-3.4414,-3.4414,-3.4414,-3.4414,-3.4414,-3.4414,-3.4414,-3.4414,-3.4414,-3.4312,-3.408,-3.4051,-3.3964,-3.3717,-3.3558,-3.3561,-3.3655,-3.3093,-3.2846,-3.3093,-3.3108,-3.3296,-3.3655,-3.3311,-3.3427,-3.4051,-3.3819,-3.3949,-3.4399,-3.4167,-3.4182,-3.2567,-3.3056,-3.3905,-3.4419,-3.5462,-3.6738,-3.8212,-3.895,-3.9779,-4.1437,-4.1006,-3.9951,-3.8789,-3.8466,-3.8363,-3.8226,-3.8934,-3.9253,-3.85,-3.8971,-3.9126,-3.8485,-3.8172,-3.7908,-3.7717,-3.7086,-3.6447,-3.5835,0.0,0.0,0.0,-3.518,-3.5294,-3.5504,-3.5504,-3.5504,-3.5504,-3.5504,-3.5504,-3.5504,-3.5504,-3.5504,-3.5504,-3.5504,-3.5504,-3.5504,-3.5504,-3.5504,-3.5504,-3.5504,-3.5504,-3.5504,-3.5504,-3.5504,-3.5504,-3.5504,-3.5504,-3.5504,-3.5504,-3.5504,-3.5439,-3.5115,-3.518,-3.5294,-3.4683,-3.4668,-3.4835,-3.4481,-3.4448,-3.4481,-3.4414,-3.4414,-3.4414,-3.4414,-3.4414,-3.4414,-3.4414,-3.4414,-3.4414,-3.4414,-3.4414,-3.4414,-3.4414,-3.4414,-3.4414,-3.4414,-3.4414,-3.4414,-3.4414,-3.4414,-3.4414,-3.4414,-3.4414,-3.4414,-3.4414,-3.4008,-3.3949,-3.4385,-3.4008,-3.3794,-3.3794,-3.3794,-3.3978,-3.4399,-3.3978,-3.3978,-3.4414,-3.4414,-3.4414,-3.4414,-3.4414,-3.4414,-3.3282,-3.3439,-3.3829,-3.3806,-3.5479,-3.7516,-3.9,-3.9315,-4.0343,-4.3943,-4.3529,-4.1816,-3.9534,-3.9062,-3.8879,-3.8575,-3.868,-3.8649,-3.824,-3.8366,-3.8441,-3.8202,-3.8188,-3.7955,-3.736,-3.6693,-3.6096,-3.5614,0.0,0.0,0.0,-3.518,-3.5294,-3.5504,-3.5504,-3.5504,-3.5504,-3.5504,-3.5504,-3.5504,-3.5504,-3.5504,-3.5504,-3.5504,-3.5504,-3.5504,-3.5504,-3.5504,-3.5504,-3.5504,-3.5504,-3.5504,-3.5504,-3.5504,-3.5504,-3.5504,-3.5504,-3.5504,-3.5504,-3.5504,-3.5472,-3.5261,-3.518,-3.5148,-3.4798,-3.4783,-3.4835,-3.4481,-3.4549,-3.4664,-3.4448,-3.4414,-3.4414,-3.4414,-3.4414,-3.4414,-3.4414,-3.4414,-3.4414,-3.4414,-3.4414,-3.4414,-3.4414,-3.4414,-3.4414,-3.4414,-3.4414,-3.4414,-3.4414,-3.4414,-3.4414,-3.4414,-3.4414,-3.4414,-3.4414,-3.4414,-3.4414,-3.4414,-3.4414,-3.4414,-3.4414,-3.4414,-3.4414,-3.4414,-3.4414,-3.4414,-3.4414,-3.4414,-3.4414,-3.4414,-3.4414,-3.4414,-3.2533,-3.349,-3.4685,-3.4591,-3.7003,-3.9653,-4.0564,-4.0779,-4.1375,-4.3495,-4.2791,-4.1587,-4.0918,-3.975,-3.8849,-3.872,-3.8921,-3.8891,-3.826,-3.8647,-3.8815,-3.826,-3.7418,-3.6983,-3.7273,-3.5894,-3.5116,-3.5432,0.0,0.0,0.0,-3.4949,-3.5082,-3.5294,-3.5439,-3.5504,-3.5504,-3.5504,-3.5504,-3.5504,-3.5504,-3.5504,-3.5504,-3.5504,-3.5504,-3.5504,-3.5504,-3.5504,-3.5504,-3.5504,-3.5504,-3.5504,-3.5504,-3.5504,-3.5504,-3.5504,-3.5504,-3.5504,-3.5504,-3.5504,-3.5439,-3.5115,-3.518,-3.5309,-3.4683,-3.4668,-3.4835,-3.4481,-3.4448,-3.4481,-3.4414,-3.4414,-3.4414,-3.4414,-3.4414,-3.4414,-3.4414,-3.4414,-3.4414,-3.4414,-3.4414,-3.4414,-3.4414,-3.4414,-3.4414,-3.4414,-3.4414,-3.4414,-3.4414,-3.4414,-3.4414,-3.4414,-3.4414,-3.4414,-3.4414,-3.4414,-3.4414,-3.4414,-3.4414,-3.4414,-3.4414,-3.4414,-3.4414,-3.4414,-3.4414,-3.4414,-3.4414,-3.4414,-3.4414,-3.4414,-3.4414,-3.4414,-3.3254,-3.4334,-3.5642,-3.6448,-3.8337,-4.0293,-4.1558,-4.2303,-4.2883,-4.3466,-4.2722,-4.1829,-4.1453,-3.9987,-3.8771,-3.8691,-3.8745,-3.8667,-3.826,-3.8551,-3.8652,-3.8246,-3.752,-3.7128,-3.7288,-3.6243,-3.5503,0.0,0.0,0.0,0.0,-3.485,-3.5001,-3.518,-3.5392,-3.5504,-3.5504,-3.5504,-3.5504,-3.5504,-3.5504,-3.5504,-3.5504,-3.5504,-3.5504,-3.5504,-3.5504,-3.5504,-3.5504,-3.5504,-3.5504,-3.5504,-3.5504,-3.5504,-3.5504,-3.5504,-3.5504,-3.5504,-3.5407,-3.5359,-3.5326,-3.5001,-3.5082,-3.5148,-3.465,-3.4716,-3.4835,-3.4481,-3.4448,-3.4481,-3.4414,-3.4414,-3.4414,-3.4414,-3.4414,-3.4414,-3.4414,-3.4414,-3.4414,-3.4414,-3.4414,-3.4414,-3.4414,-3.4414,-3.4414,-3.4414,-3.4414,-3.4414,-3.4414,-3.4414,-3.4414,-3.4414,-3.4414,-3.4414,-3.4414,-3.4414,-3.4414,-3.4414,-3.4414,-3.4414,-3.4414,-3.4414,-3.4414,-3.4414,-3.4414,-3.4414,-3.4414,-3.4414,-3.4414,-3.4414,-3.4414,-3.4414,-3.4549,-3.5454,-3.6514,-3.8586,-3.9348,-4.01,-4.2154,-4.3645,-4.4406,-4.3671,-4.2974,-4.2205,-4.1313,-3.984,-3.8737,-3.8561,-3.8352,-3.8188,-3.813,-3.813,-3.813,-3.813,-3.8072,-3.7854,-3.7433,-3.7288,-3.6751,0.0,0.0,0.0,0.0,-3.4993,-3.5115,-3.5269,-3.5448,-3.5532,-3.5504,-3.5504,-3.5504,-3.5504,-3.5504,-3.5504,-3.5504,-3.5504,-3.5504,-3.5504,-3.5504,-3.5504,-3.5504,-3.5504,-3.5504,-3.5504,-3.5504,-3.5504,-3.5504,-3.5472,-3.5472,-3.5439,-3.5261,-3.518,-3.5148,-3.4935,-3.4902,-3.4868,-3.4731,-3.4783,-3.4802,-3.4481,-3.4515,-3.4631,-3.4448,-3.4414,-3.4414,-3.4414,-3.4414,-3.4414,-3.4414,-3.4414,-3.4414,-3.4414,-3.4414,-3.4414,-3.4414,-3.4414,-3.4414,-3.4414,-3.4414,-3.4414,-3.4414,-3.4414,-3.4414,-3.4414,-3.4414,-3.4414,-3.4414,-3.4414,-3.4414,-3.4414,-3.4414,-3.4414,-3.4414,-3.4414,-3.4414,-3.4414,-3.4414,-3.4414,-3.4414,-3.4414,-3.4414,-3.4414,-3.4414,-3.4443,-3.2617,-3.4391,-3.638,-3.7343,-3.9719,-4.2088,-4.3118,-4.3598,-4.3644,-4.2976,-4.2253,-4.1525,-4.0789,-3.9642,-3.8802,-3.873,-3.8427,-3.8028,-3.7564,-3.7491,-3.7491,-3.7491,-3.7041,-3.7056,-3.7926,-3.7114,0.0,0.0,0.0,0.0,-3.5944,-3.612,-3.6094,-3.5769,-3.5937,-3.5881,-3.5504,-3.5504,-3.5504,0.0,-3.5504,-3.5504,-3.5504,-3.5504,-3.5504,-3.5504,-3.5504,-3.5504,-3.5504,-3.5504,-3.5504,-3.5504,-3.5504,-3.5504,-3.5472,-3.5326,-3.5261,-3.5261,-3.5034,-3.4968,-3.4935,-3.4783,-3.4817,-3.4835,-3.4549,-3.4582,-3.4698,-3.4448,-3.4414,-3.4448,-3.4414,-3.4414,-3.4414,-3.4414,-3.4414,-3.4414,-3.4414,-3.4414,-3.4414,-3.4414,-3.4414,-3.4414,-3.4414,-3.4414,-3.4414,-3.4414,-3.4414,-3.4414,-3.4414,-3.4414,-3.4414,-3.4414,-3.4414,-3.4414,-3.4414,-3.4414,-3.4414,-3.4414,-3.4414,-3.4414,-3.4414,-3.4414,-3.4414,-3.4414,-3.4414,-3.4414,-3.4414,-3.4414,-3.4414,-3.4414,-3.4414,-3.4675,-3.3081,-3.4841,-3.6671,-3.8669,-4.0845,-4.2688,-4.3416,-4.3598,-4.3295,-4.2285,-4.1754,-4.1294,-4.0615,-3.9565,-3.8694,-3.8435,-3.8025,-3.7549,-3.6925,-3.6823,-3.6954,-3.7273,-3.6997,-3.7157,-3.8115,-3.7607,0.0,0.0,0.0,-3.6649,-3.633,-3.6201,-3.604,-3.5908,-3.6111,-3.5982,-3.5504,-3.5818,-3.5818,-3.5504,-3.5504,-3.5504,-3.5504,-3.5504,-3.5504,-3.5504,-3.5504,-3.5504,-3.5504,-3.5504,-3.5504,-3.5504,-3.5504,-3.5504,-3.5504,-3.5359,-3.5294,-3.518,-3.4968,-3.4868,-3.4783,-3.4616,-3.4616,-3.4635,-3.4448,-3.4481,-3.4515,-3.4414,-3.4414,-3.4414,-3.4414,-3.4414,-3.4414,-3.4414,-3.4414,-3.4414,-3.4414,-3.4414,-3.4414,-3.4414,-3.4414,-3.4414,-3.4414,-3.4414,-3.4414,-3.4414,-3.4414,-3.4414,-3.4414,-3.4414,-3.4414,-3.4414,-3.4414,-3.4414,-3.4414,-3.4414,-3.4414,-3.4414,-3.4414,-3.4414,-3.4414,-3.4414,-3.4414,-3.4414,-3.4414,-3.4414,-3.4414,-3.4414,-3.4414,-3.4428,-3.4719,-3.5087,-3.345,-3.5208,-3.6987,-4.0376,-4.1889,-4.2655,-4.3267,-4.3499,-4.3235,-4.1949,-4.1591,-4.126,-4.0443,-3.9493,-3.8627,-3.8043,-3.7594,-3.7041,-3.6278,-3.6228,-3.6519,-3.707,-3.7244,-3.7549,-3.8144,-3.8202,0.0,0.0,0.0,-3.7215,-3.6664,-3.6152,-3.599,-3.6232,-3.628,-3.6127,-3.5684,-3.6207,-3.6148,-3.5504,-3.5504,-3.5504,-3.5504,-3.5504,-3.5504,-3.5504,-3.5504,-3.5504,-3.5504,-3.5504,-3.5504,-3.5504,-3.5504,-3.5504,-3.5504,-3.5472,-3.5326,-3.5115,-3.4935,-3.4783,-3.4631,-3.4448,-3.4414,-3.4414,-3.4414,-3.4414,-3.4414,-3.4414,-3.4414,-3.4414,-3.4414,-3.4414,-3.4414,-3.4414,-3.4414,-3.4414,-3.4414,-3.4414,-3.4414,-3.4414,-3.4414,-3.4414,-3.4414,-3.4414,-3.4414,-3.4414,-3.4414,-3.4414,-3.4414,-3.4414,-3.4414,-3.4414,-3.4414,-3.4414,-3.4414,-3.4414,-3.4414,-3.4414,-3.4414,-3.4414,-3.4414,-3.4414,-3.4414,-3.4414,-3.4414,-3.4414,-3.4414,-3.4414,-3.4414,-3.4428,-3.5101,-3.5465,-3.03,-3.3295,-3.6821,-3.9779,-4.1524,-4.2522,-4.2605,-4.3135,-4.3386,-4.2617,-4.1949,-4.1093,-3.9788,-3.9126,-3.8649,-3.8172,-3.7652,-3.6903,-3.5842,-3.6058,-3.6344,-3.6431,-3.6954,-3.7549,-3.8144,0.0,0.0,0.0,-3.8086,-3.8043,-3.7955,-3.7375,-3.7208,-3.7538,-3.7057,-3.6674,-3.6357,-3.6447,-3.6148,-3.5504,-3.5504,-3.5504,-3.5504,-3.5504,-3.5504,-3.5504,-3.5504,-3.5504,-3.5504,-3.5504,-3.5504,-3.5504,-3.5504,-3.5504,-3.5472,-3.5294,-3.5115,-3.4902,-3.4798,-3.4582,-3.4448,-3.4414,-3.4414,-3.4414,-3.4414,-3.4414,-3.4414,-3.4414,-3.4414,-3.4414,-3.4414,-3.4414,-3.4414,-3.4414,-3.4414,-3.4414,-3.4414,-3.4414,-3.4414,-3.4414,-3.4414,-3.4414,-3.4414,-3.4414,-3.4414,-3.4414,-3.4414,-3.4414,-3.4414,-3.4414,-3.4414,-3.4414,-3.4414,-3.4414,-3.4414,-3.4414,-3.4414,-3.4414,-3.4414,-3.4414,-3.4414,-3.4414,-3.4414,-3.4414,-3.4414,-3.4414,-3.4414,-3.4414,-3.4414,-3.4428,-3.5101,-3.5697,-3.1016,-3.3823,-3.6688,-3.9166,-4.0547,-4.1425,-4.1806,-4.2125,-4.2281,-4.2028,-4.139,-4.0706,-4.0104,-3.9451,-3.8736,-3.81,-3.7688,-3.7018,-3.5671,-3.5965,-3.6301,-3.6301,-3.6896,-3.7549,-3.8144,0.0,0.0,0.0,-3.8202,-3.8202,-3.8202,-3.7636,-3.7237,-3.713,-3.6972,-3.6527,-3.5773,-3.6264,-3.6148,-3.5504,-3.5504,-3.5504,-3.5504,-3.5504,-3.5504,-3.5504,-3.5504,-3.5504,-3.5504,-3.5504,-3.5504,-3.5504,-3.5504,-3.5504,-3.5504,-3.5392,-3.5261,-3.5034,-3.4883,-3.4716,-3.4563,-3.4448,-3.4414,-3.4414,-3.4414,-3.4414,-3.4414,-3.4414,-3.4414,-3.4414,-3.4414,-3.4414,-3.4414,-3.4414,-3.4414,-3.4414,-3.4414,-3.4414,-3.4414,-3.4414,-3.4414,-3.4414,-3.4414,-3.4414,-3.4414,-3.4414,-3.4414,-3.4414,-3.4414,-3.4414,-3.4414,-3.4414,-3.4414,-3.4414,-3.4414,-3.4414,-3.4414,-3.4414,-3.4414,-3.4414,-3.4414,-3.4414,-3.4414,-3.4414,-3.4414,-3.4414,-3.4414,-3.4414,-3.4588,-3.5,-3.5604,-3.6243,-3.1368,-3.3456,-3.5307,-3.7642,-3.8884,-3.9785,-4.0663,-4.1011,-4.1201,-4.1425,-4.078,-4.0147,-4.0217,-3.9622,-3.886,-3.8151,-3.7832,-3.7206,-3.5939,-3.6262,-3.6619,-3.6562,-3.7143,-3.7709,-3.8159,0.0,0.0,0.0,-3.8057,-3.8043,-3.8188,-3.7476,-3.6983,-3.6863,-3.6717,-3.6256,-3.5466,-3.5974,-3.5983,-3.5504,-3.5504,-3.5504,-3.5504,-3.5504,-3.5504,-3.5504,-3.5504,-3.5504,-3.5504,-3.5504,-3.5504,-3.5504,-3.5439,-3.5439,-3.5439,-3.5359,-3.5228,-3.5049,-3.4902,-3.475,-3.4597,-3.4448,-3.4414,-3.4414,-3.4414,-3.4414,-3.4414,-3.4414,-3.453,-3.4617,-3.4457,-3.4646,-3.4849,-3.469,-3.4646,-3.4617,-3.4443,-3.423,-3.4147,-3.4346,-3.423,-3.4147,-3.4366,-3.4545,-3.4646,-3.4646,-3.4791,-3.4835,-3.4675,-3.4646,-3.4588,-3.4428,-3.4414,-3.4414,-3.4414,-3.4414,-3.4414,-3.4414,-3.4414,-3.4414,-3.4414,-3.4414,-3.4414,-3.4414,-3.4414,-3.4414,-3.4414,-3.4414,-3.4733,-3.5407,-3.6011,-3.6664,-2.9448,-3.056,-3.1742,-3.4526,-3.6257,-3.7649,-3.9083,-3.9962,-4.063,-4.1269,-4.0361,-3.9471,-3.944,-3.9245,-3.8954,-3.8461,-3.8103,-3.7647,-3.6919,-3.7219,-3.7448,-3.7281,-3.7781,-3.8173,-3.8202,0.0,0.0,0.0,-3.768,-3.7607,-3.8173,-3.7041,-3.6728,-3.7528,-3.6496,-3.6024,-3.6149,-3.5735,-3.5534,-3.5504,-3.5504,-3.5504,-3.5504,-3.5504,-3.5504,-3.5504,-3.5504,-3.5504,-3.5504,-3.5504,-3.5504,-3.5472,-3.5294,-3.5213,-3.518,-3.5001,-3.485,-3.4731,-3.4698,-3.4597,-3.4414,-3.4414,-3.4414,-3.4414,-3.4414,-3.4414,-3.4414,-3.4414,-3.4849,-3.5203,-3.4574,-3.5314,-3.6054,-3.5494,-3.5348,-3.5174,-3.4545,-3.3811,-3.3485,-3.4264,-3.3776,-3.352,-3.4264,-3.4907,-3.5348,-3.5348,-3.5822,-3.5981,-3.5421,-3.5348,-3.5116,-3.4472,-3.4414,-3.4414,-3.4414,-3.4414,-3.4414,-3.4414,-3.4414,-3.4414,-3.4414,-3.4414,-3.4414,-3.4414,-3.4414,-3.4414,-3.4414,-3.4414,-3.4733,-3.5407,-3.6011,-3.6664,-2.8861,-2.9973,-3.1262,-3.3173,-3.4435,-3.5545,-3.6877,-3.7518,-3.8129,-3.9182,-3.8732,-3.8276,-3.8743,-3.8378,-3.7908,-3.76,-3.7465,-3.7068,-3.6197,-3.6927,-3.7295,-3.6707,-3.7578,-3.8202,-3.8202,0.0,0.0,0.0,0.0,-3.7215,-3.6997,-3.6562,-3.6264,-3.6195,-3.6006,-3.5851,-3.575,-3.5591,-3.5504,-3.5504,-3.5504,-3.5504,-3.5504,-3.5504,-3.5504,-3.5504,-3.5504,-3.5504,-3.5504,-3.5504,-3.5504,-3.5472,-3.5294,-3.518,-3.518,-3.4968,-3.4868,-3.4817,-3.4731,-3.4664,-3.4563,-3.4448,-3.4414,-3.4486,-3.4893,-3.4649,-3.4405,-3.5363,-3.541,-3.521,-3.5536,-3.5967,-3.6257,-3.6025,-3.5967,-3.5753,-3.4946,-3.4256,-3.4136,-3.5371,-3.4939,-3.4624,-3.5478,-3.5822,-3.5967,-3.5967,-3.6156,-3.6228,-3.5996,-3.5967,-3.588,-3.5662,-3.5256,-3.5058,-3.5058,-3.4646,-3.4414,-3.4414,-3.4414,-3.4588,-3.5009,-3.5058,-3.5212,-3.5619,-3.5227,-3.482,-3.4414,-3.482,-3.5343,-3.5981,-3.6649,-3.7288,-2.7879,-2.8961,-3.0389,-3.1684,-3.2268,-3.3134,-3.5506,-3.5629,-3.5771,-3.7628,-3.7334,-3.6953,-3.7646,-3.7213,-3.6843,-3.7139,-3.7179,-3.6926,-3.6153,-3.6758,-3.7134,-3.67,-3.7186,-3.7651,0.0,0.0,0.0,0.0,0.0,0.0,-3.6315,-3.6112,-3.5741,-3.517,-3.538,-3.5459,-3.5407,-3.5392,-3.5439,-3.5504,-3.5504,-3.5504,-3.5504,-3.5504,-3.5504,-3.5504,-3.5504,-3.5504,-3.5504,-3.5504,-3.5504,-3.5472,-3.5294,-3.5148,-3.5082,-3.4916,-3.4802,-3.4702,-3.4616,-3.4597,-3.4597,-3.4448,-3.4559,-3.482,-3.5261,-3.5137,-3.4974,-3.569,-3.5605,-3.5335,-3.5396,-3.5817,-3.6207,-3.6207,-3.6207,-3.6047,-3.5451,-3.4655,-3.4385,-3.5611,-3.5192,-3.5008,-3.6122,-3.6504,-3.6649,-3.6649,-3.6823,-3.6867,-3.6664,-3.6649,-3.6475,-3.604,-3.5654,-3.5319,-3.5101,-3.4849,-3.4646,-3.4428,-3.4806,-3.514,-3.5392,-3.5595,-3.588,-3.6301,-3.5894,-3.5473,-3.5053,-3.529,-3.5842,-3.6649,-3.7099,-3.7622,0.0,0.0,0.0,-2.9872,-2.9712,-3.0465,-3.4903,-3.4332,-3.3712,-3.6663,-3.6205,-3.5537,-3.6214,-3.5863,-3.5908,-3.715,-3.7345,-3.7222,-3.6886,-3.6866,-3.6975,-3.7208,-3.6693,-3.6562,0.0,0.0,0.0,0.0,-3.5741,-3.5654,-3.6214,-3.5697,-3.5156,-3.4712,-3.4698,-3.4865,-3.518,-3.5213,-3.5326,-3.5504,-3.5504,-3.5504,-3.5504,-3.5504,-3.5504,-3.5504,-3.5504,-3.5504,-3.5504,-3.5504,-3.5504,-3.5472,-3.5294,-3.5082,-3.4902,-3.4765,-3.4563,-3.4414,-3.4414,-3.4414,-3.4414,-3.4428,-3.4864,-3.5407,-3.5436,-3.5816,-3.6101,-3.5257,-3.5484,-3.5631,-3.4131,-3.4892,-3.5999,-3.5999,-3.5999,-3.5961,-3.5961,-3.4892,-3.4123,-3.4887,-3.4413,-3.4403,-3.6021,-3.6823,-3.7258,-3.7258,-3.775,-3.791,-3.7367,-3.7295,-3.6802,-3.5595,-3.5436,-3.5174,-3.4516,-3.5058,-3.5131,-3.4486,-3.5619,-3.604,-3.545,-3.5996,-3.6344,-3.6359,-3.6344,-3.6344,-3.6359,-3.577,-3.6069,-3.7302,-3.7331,-3.7651,-2.6574,0.0,0.0,0.0,0.0,0.0,-3.056,-3.0445,-3.0586,-3.3222,-3.355,-3.3653,-3.4799,-3.5289,-3.5624,-3.5968,-3.6028,-3.5929,-3.5696,-3.6111,-3.6315,-3.6096,-3.6318,-3.6531,0.0,0.0,0.0,0.0,-3.5494,-3.5276,-3.4951,-3.4777,-3.467,-3.4698,-3.4783,-3.4949,-3.518,-3.5326,-3.5439,-3.5504,-3.5504,-3.5504,-3.5504,-3.5504,-3.5504,-3.5504,-3.5504,-3.5504,-3.5504,-3.5504,-3.5504,-3.5472,-3.5294,-3.5082,-3.4902,-3.4765,-3.4563,-3.4414,-3.4414,-3.4414,-3.4486,-3.4985,-3.5261,-3.5566,-3.6475,-3.5994,-3.5322,-3.6137,-3.5646,-3.4861,-3.5021,-3.5368,-3.5702,-3.5702,-3.5702,-3.5544,-3.4982,-3.4551,-3.4499,-3.5298,-3.4808,-3.458,-3.5613,-3.5961,-3.6071,-3.6071,-3.6196,-3.6487,-3.6943,-3.7005,-3.6949,-3.678,-3.633,-3.5981,-3.5793,-3.5532,-3.5319,-3.5145,-3.5851,-3.6228,-3.6054,-3.6678,-3.723,-3.7665,-3.7259,-3.7244,-3.768,-3.707,-3.6954,-3.7317,-3.7752,-3.8043,-2.675,-2.7359,-2.8171,-2.748,0.0,0.0,-2.921,-2.8827,-2.8778,-3.1463,-3.1814,-3.2093,-3.341,-3.3978,-3.4442,-3.4981,-3.507,-3.5111,-3.5184,-3.5555,-3.5781,-3.5712,-3.5756,-3.5877,0.0,-3.5697,-3.5357,-3.4994,-3.4965,-3.4806,-3.4428,-3.4414,-3.4448,-3.4563,-3.465,-3.4802,-3.5082,-3.518,-3.5326,-3.5504,-3.5504,-3.5504,-3.5504,-3.5504,-3.5504,-3.5504,-3.5504,-3.5504,-3.5504,-3.5504,-3.5504,-3.5472,-3.5294,-3.5082,-3.4902,-3.4765,-3.4563,-3.4414,-3.4414,-3.4414,-3.4516,-3.5189,-3.5581,-3.5917,-3.6552,-3.6206,-3.5656,-3.5801,-3.4909,-3.3979,-3.4428,-3.4841,-3.5087,-3.5087,-3.5087,-3.4965,-3.4509,-3.4105,-3.4092,-3.4924,-3.4703,-3.4662,-3.5467,-3.5615,-3.5615,-3.5615,-3.5615,-3.5775,-3.6281,-3.636,-3.6353,-3.6339,-3.5983,-3.5698,-3.5526,-3.5662,-3.5683,-3.5421,-3.6446,-3.6983,-3.6736,-3.7346,-3.7839,-3.8188,-3.7854,-3.7854,-3.8202,-3.7593,-3.7433,-3.768,-3.8043,-3.8202,-2.6916,-2.7337,-2.7977,-2.7596,-2.6751,0.0,-2.9286,-2.84,-2.7768,-3.0398,-3.0464,-3.0507,-3.1928,-3.2243,-3.2706,-3.3948,-3.4294,-3.4605,-3.5142,-3.5213,-3.537,-3.5798,-3.5203,0.0,-3.5444,-3.4835,-3.4414,-3.4414,-3.4414,-3.4414,-3.4414,-3.4414,-3.4414,-3.4414,-3.4414,-3.4582,-3.4868,-3.4902,-3.5115,-3.5472,-3.5504,-3.5504,-3.5504,-3.5504,-3.5504,-3.5472,-3.5472,-3.5472,-3.5472,-3.5439,-3.5472,-3.5472,-3.5294,-3.5082,-3.4902,-3.4765,-3.4563,-3.4414,-3.4414,-3.4414,-3.453,-3.5276,-3.5801,-3.6129,-3.6099,-3.6333,-3.6294,-3.4716,-3.3696,-3.3124,-3.3124,-3.3654,-3.4272,-3.4272,-3.4272,-3.4272,-3.4272,-3.3654,-3.3326,-3.4105,-3.4272,-3.4468,-3.5183,-3.5305,-3.5305,-3.5305,-3.5305,-3.5346,-3.5467,-3.5467,-3.5326,-3.492,-3.4869,-3.4741,-3.4347,-3.5472,-3.5991,-3.5499,-3.7193,-3.7941,-3.7331,-3.7883,-3.8202,-3.8202,-3.8202,-3.8202,-3.8202,-3.7665,-3.768,-3.8202,-3.8202,-3.8202,-2.6923,-2.7388,-2.7814,-2.699,-2.6878,0.0,-2.6596,-2.6206,-2.6219,-2.733,-2.7455,-2.7934,-2.9804,-3.0552,-3.1165,-3.1959,-3.2991,-3.4113,-3.5275,-3.5439,-3.5419,-3.5358,-3.5204,0.0,-3.4892,-3.4737,-3.4563,-3.4414,-3.4414,-3.4414,-3.4414,-3.4414,-3.4414,-3.4414,-3.4563,-3.4664,-3.4731,-3.5016,-3.518,-3.5261,-3.5439,-3.5504,-3.5504,-3.5504,-3.5407,-3.5261,-3.5261,-3.5261,-3.5261,-3.5082,-3.5213,-3.5472,-3.5294,-3.5082,-3.4902,-3.4765,-3.4563,-3.4414,-3.4414,-3.4414,-3.4603,-3.5749,-3.5741,-3.5427,-3.6416,-3.5854,-3.4675,-3.3654,-3.324,-3.3124,-3.3124,-3.324,-3.3368,-3.3368,-3.3368,-3.3368,-3.3368,-3.3197,-3.3154,-3.3326,-3.3368,-3.3398,-3.3556,-3.3598,-3.3598,-3.3598,-3.3598,-3.3839,-3.4538,-3.462,-3.4498,-3.4167,-3.4107,-3.4101,-3.4018,-3.4859,-3.556,-3.5868,-3.7322,-3.7941,-3.7331,-3.7883,-3.8202,-3.8202,-3.8202,-3.8202,-3.8202,-3.8086,-3.8086,-3.8202,-3.8202,-3.8202,-2.7344,-2.7491,-2.7708,-2.7214,-2.6998,0.0,0.0,-2.6078,-2.5899,-2.6896,-2.6581,-2.6602,-2.8304,-2.8858,-2.937,-3.0387,-3.1659,-3.2751,-3.3394,-3.4666,-3.5352,-3.4897,-3.5053,0.0,-3.4478,-3.4644,-3.4716,-3.4563,-3.4448,-3.4414,-3.4414,-3.4414,-3.4414,-3.4414,-3.4481,-3.4597,-3.4698,-3.4865,-3.5016,-3.518,-3.5294,-3.5392,-3.5504,-3.5392,-3.5294,-3.518,-3.5082,-3.5034,-3.5034,-3.4935,-3.5001,-3.518,-3.503,-3.4883,-3.4783,-3.4616,-3.4481,-3.4414,-3.4414,-3.4414,-3.4617,-3.5894,-3.5985,-3.5727,-3.6142,-3.5087,-3.3654,-3.3197,-3.3124,-3.3124,-3.3124,-3.3124,-3.3124,-3.3124,-3.3124,-3.3124,-3.3124,-3.3124,-3.3124,-3.3124,-3.3124,-3.3124,-3.3124,-3.3124,-3.3124,-3.3124,-3.3124,-3.324,-3.3696,-3.3738,-3.3623,-3.3276,-3.3235,-3.3296,-3.3382,-3.3843,-3.4454,-3.5303,-3.6098,-3.6497,-3.6434,-3.6754,-3.7116,-3.7529,-3.7962,-3.8202,-3.8202,-3.8202,-3.8202,-3.8202,-3.8202,-3.8202,-2.7974,-2.7884,-2.7914,-2.766,-2.739,-2.7195,0.0,0.0,0.0,0.0,0.0,-2.5974,-2.718,0.0,0.0,0.0,0.0,0.0,0.0,-3.3036,0.0,-3.4159,-3.4554,0.0,-3.4233,-3.4413,-3.4526,-3.4493,-3.4291,-3.4161,-3.4225,-3.4375,-3.4448,-3.4414,-3.4414,-3.4481,-3.4698,-3.4698,-3.4865,-3.5148,-3.518,-3.5294,-3.5439,-3.5261,-3.518,-3.5115,-3.4935,-3.4868,-3.4868,-3.4835,-3.4835,-3.4835,-3.4731,-3.4698,-3.4664,-3.4481,-3.4298,-3.4147,-3.4147,-3.4079,-3.4143,-3.544,-3.5868,-3.5817,-3.529,-3.415,-3.3124,-3.3124,-3.3124,-3.3124,-3.3124,-3.3124,-3.3124,-3.3124,-3.3124,-3.3124,-3.3124,-3.3124,-3.3124,-3.3124,-3.3124,-3.3124,-3.3124,-3.3124,-3.3124,-3.3124,-3.3124,-3.3124,-3.3124,-3.3124,-3.2925,-3.2418,-3.2368,-3.2398,-3.2459,-3.274,-3.3378,-3.4391,-3.4776,-3.5166,-3.5601,-3.5615,-3.5949,-3.6649,-3.7529,-3.7886,-3.772,-3.7886,-3.8037,-3.8202,-3.8202,-3.8202,-2.8667,-2.8906,-2.9097,-2.7899,-2.8438,-2.8678,0.0,0.0,-2.7091,-2.6033,0.0,0.0,0.0,0.0,0.0,0.0,0.0,0.0,-2.8936,-3.0163,-3.1495,-3.2602,-3.3289,0.0,0.0,-3.36,-3.3397,-3.3794,-3.3422,-3.3284,-3.3576,-3.4291,-3.4597,-3.4414,-3.4414,-3.4481,-3.4698,-3.4698,-3.4798,-3.4935,-3.5115,-3.5213,-3.5213,-3.5213,-3.5115,-3.4935,-3.4783,-3.4731,-3.4698,-3.4515,-3.4549,-3.4731,-3.4698,-3.4698,-3.4664,-3.4481,-3.3962,-3.3332,-3.3332,-3.2911,-3.2568,-3.3762,-3.4375,-3.4462,-3.3645,-3.324,-3.3124,-3.3124,-3.3124,-3.3124,-3.3124,-3.3124,-3.3124,-3.3124,-3.3124,-3.3124,-3.3124,-3.3124,-3.3124,-3.3124,-3.3124,-3.3124,-3.3124,-3.3124,-3.3124,-3.3124,-3.3124,-3.3124,-3.3124,-3.3124,-3.2684,-3.1634,-3.1549,-3.1375,-3.0884,-3.1993,-3.2975,-3.3618,-3.4794,-3.5547,-3.5615,-3.5615,-3.5669,-3.5749,-3.6596,-3.6674,-3.5895,-3.6674,-3.7453,-3.8202,-3.8202,-3.8202,-2.8682,0.0,0.0,0.0,0.0,0.0,-2.7121,0.0,-2.6986,0.0,0.0,0.0,0.0,0.0,0.0,0.0,-2.7141,0.0,0.0,0.0,-2.9879,0.0,0.0,0.0,0.0,0.0,0.0,0.0,-3.275,-3.2761,-3.3561,-3.3933,-3.4255,-3.4582,-3.4448,-3.4448,-3.4515,-3.4515,-3.4616,-3.4783,-3.4865,-3.4949,-3.5001,-3.4949,-3.485,-3.4783,-3.4582,-3.4515,-3.4515,-3.4414,-3.4448,-3.4515,-3.4515,-3.423,-3.3811,-3.3742,-3.3241,-3.2541,-3.2541,-3.2559,-3.2756,-3.3975,-3.4393,-3.4314,-3.3992,-3.3484,-3.3124,-3.3124,-3.3124,-3.3124,-3.3124,-3.3124,-3.3124,-3.3124,-3.3124,-3.3124,-3.3124,-3.3124,-3.3124,-3.3124,-3.3124,-3.3124,-3.3124,-3.3124,-3.3124,-3.3124,-3.3124,-3.3124,-3.3124,-3.3124,-3.2641,-3.1512,-3.1675,-3.165,-3.111,-3.1612,-3.2324,-3.3232,-3.3824,-3.415,-3.415,-3.4649,-3.4883,-3.4883,-3.5722,-3.5989,-3.5615,-3.5989,-3.6346,-3.6699,-3.7208,-3.772,-2.9175,0.0,0.0,0.0,0.0,0.0,0.0,0.0,0.0,0.0,0.0,0.0,0.0,0.0,0.0,0.0,0.0,-2.6692,0.0,-2.6707,0.0,0.0,0.0,0.0,0.0,0.0,0.0,0.0,0.0,-3.1883,-3.3167,-3.3434,-3.383,-3.4405,-3.4461,-3.4481,-3.4481,-3.4414,-3.4481,-3.4698,-3.4698,-3.475,-3.4835,-3.475,-3.4698,-3.4698,-3.4481,-3.4414,-3.438,-3.4147,-3.4079,-3.4045,-3.3859,-3.3276,-3.2635,-3.3038,-3.2599,-3.1809,-3.1934,-3.2297,-3.2826,-3.3741,-3.4037,-3.4021,-3.4021,-3.3611,-3.3124,-3.3124,-3.3124,-3.3124,-3.3124,-3.3124,-3.3124,-3.3124,-3.3124,-3.3124,-3.3124,-3.3124,-3.3124,-3.3124,-3.3124,-3.3124,-3.3124,-3.3124,-3.3124,-3.3124,-3.3124,-3.3124,-3.3124,-3.3124,-3.2704,-3.1725,-3.1976,-3.1989,-3.1436,-3.1524,-3.2039,-3.3061,-3.3124,-3.3124,-3.3124,-3.3696,-3.4021,-3.4021,-3.4841,-3.5142,-3.491,-3.5142,-3.5278,-3.5278,-3.6162,-3.6883,0.0,0.0,0.0,-2.9086,0.0,0.0,0.0,0.0,-2.8353,0.0,0.0,0.0,0.0,0.0,0.0,-2.5719,0.0,0.0,0.0,0.0,0.0,0.0,0.0,0.0,0.0,0.0,0.0,0.0,-3.0692,0.0,-3.1971,-3.2803,-3.3362,-3.3735,-3.4361,-3.4698,-3.4698,-3.4481,-3.4481,-3.4698,-3.4698,-3.4698,-3.4698,-3.4698,-3.4698,-3.4698,-3.4481,-3.4414,-3.4346,-3.3555,-3.3248,-3.3157,-3.2434,-3.1673,-3.1143,-3.2635,-3.2241,-3.1011,-3.1522,-3.1935,-3.2248,-3.2286,-3.2689,-3.3154,-3.3154,-3.3124,-3.3124,-3.3124,-3.3124,-3.3124,-3.3124,-3.3124,-3.3124,-3.3124,-3.3124,-3.3124,-3.3124,-3.3124,-3.3124,-3.3124,-3.3124,-3.3124,-3.3124,-3.3124,-3.3124,-3.3124,-3.3124,-3.3124,-3.3124,-3.3124,-3.2842,-3.2252,-3.2202,-3.1989,-3.1436,-3.1876,-3.2441,-3.3043,-3.3124,-3.3124,-3.3124,-3.3124,-3.3154,-3.3154,-3.3992,-3.4021,-3.3197,-3.4021,-3.4439,-3.4481,-3.5278,-3.5655,0.0,0.0,-3.0597,-2.952,0.0,0.0,0.0,0.0,0.0,0.0,0.0,0.0,0.0,0.0,0.0,-2.6303,0.0,0.0,0.0,0.0,0.0,0.0,0.0,0.0,0.0,0.0,0.0,0.0,-2.9617,0.0,0.0,-3.2583,-3.3395,-3.3883,-3.4427,-3.4631,-3.4481,-3.4414,-3.4414,-3.4481,-3.4481,-3.4481,-3.4481,-3.4481,-3.4481,-3.4481,-3.4414,-3.4113,-3.3589,-3.3297,-3.2897,-3.2434,-3.2182,-3.1599,-3.0957,-3.1476,-3.102,-3.0305,-3.1169,-3.182,-3.2277,-3.2667,-3.2918,-3.3124,-3.3124,-3.3124,-3.3124,-3.3124,-3.3124,-3.3124,-3.3124,-3.3124,-3.3124,-3.3124,-3.3124,-3.3124,-3.3124,-3.3124,-3.3124,-3.3124,-3.3124,-3.3124,-3.3124,-3.3124,-3.3124,-3.3124,-3.3124,-3.3124,-3.3124,-3.3124,-3.2855,-3.2277,-3.2554,-3.2554,-3.1989,-3.2453,-3.2867,-3.3111,-3.3124,-3.3124,-3.3124,-3.3124,-3.3124,-3.3124,-3.3411,-3.3411,-3.3124,-3.3411,-3.3526,-3.3539,-3.3839,-3.4553,-3.0761,-3.0866,0.0,-3.0073,-3.0103,0.0,-2.8618,0.0,0.0,0.0,0.0,0.0,0.0,0.0,0.0,0.0,0.0,0.0,0.0,-2.4649,0.0,0.0,0.0,-2.7779,0.0,-2.8274,-2.8491,-2.9041,-2.8958,-2.9507,0.0,0.0,-3.3193,-3.3689,-3.438,-3.4683,-3.4515,-3.4448,-3.4414,-3.4414,-3.4414,-3.4414,-3.4414,-3.4414,-3.423,-3.3962,-3.3962,-3.352,-3.2791,-3.2492,-3.2096,-3.1636,-3.1368,-3.0959,-3.0545,-3.0782,-3.0663,-3.0457,-3.1148,-3.1888,-3.2579,-3.2955,-3.3124,-3.3124,-3.3124,-3.3124,-3.3124,-3.3124,-3.3124,-3.3124,-3.3124,-3.3124,-3.3124,-3.3124,-3.3124,-3.3124,-3.3124,-3.3124,-3.3124,-3.3124,-3.3124,-3.3124,-3.3124,-3.3124,-3.3124,-3.3124,-3.3124,-3.3124,-3.3124,-3.3124,-3.293,-3.2554,-3.2855,-3.293,-3.2554,-3.2867,-3.3124,-3.3124,-3.3124,-3.3124,-3.3124,-3.3124,-3.3124,-3.3124,-3.3124,-3.3124,-3.3124,-3.3124,-3.3124,-3.3124,-3.3124,-3.367]},{"header":{"parameterUnit":"m.s-1","parameterCategory":1,"la1":30.6,"la2":29.2853,"lo1":-89.7004,"lo2":-87.6739,"dy":0.0162,"dx":0.0183,"nx":112,"ny":82,"refTime":"2026-04-02T00:00:00:Z","depth":0,"parameterNumber":3,"parameterNumberName":"V-component_of_WINDS"},"data":[0.0,0.0,0.0,0.0,0.0,0.0,0.0,0.0,0.0,0.0,0.0,0.0,0.0,0.0,0.0,0.0,0.0,0.0,0.0,0.0,0.0,0.0,0.0,0.0,0.0,0.0,0.0,0.0,0.0,0.0,0.0,0.0,0.0,0.0,0.0,0.0,0.0,0.0,0.0,0.0,0.0,0.0,0.0,0.0,0.0,0.0,0.0,0.0,0.0,0.0,0.0,0.0,0.0,0.0,0.0,0.0,0.0,0.0,0.0,0.0,0.0,0.0,0.0,0.0,0.0,0.0,0.0,0.0,0.0,0.0,0.0,0.0,0.0,0.0,0.0,0.0,0.0,0.0,0.0,0.0,0.0,0.0,0.0,0.0,0.0,0.0,0.0,0.0,0.0,0.0,0.7851,0.8516,0.9306,0.973,0.9588,0.9391,0.8991,0.8364,0.0,0.0,0.0,0.0,0.0,0.0,0.0,0.0,0.0,0.0,0.0,0.0,0.0,0.0,0.0,0.0,0.0,0.0,0.0,0.0,0.0,0.0,0.0,0.0,0.0,0.0,0.0,0.0,0.0,0.0,0.0,0.0,0.0,0.0,0.0,0.0,0.0,0.0,0.0,0.0,0.0,0.0,0.0,0.0,0.0,0.0,0.0,0.0,0.0,0.0,0.0,0.0,0.0,0.0,0.0,0.0,0.0,0.0,0.0,0.0,0.0,0.0,0.0,0.0,0.0,0.0,0.0,0.0,0.0,0.0,0.0,0.0,0.0,0.0,0.0,0.0,0.0,0.0,0.0,0.0,0.0,0.0,0.0,0.0,0.0,0.0,0.0,0.0,0.0,0.0,0.0,0.0,0.0,0.0,0.0,0.0,0.0,0.0,0.0,0.0,0.0,0.0,0.0,0.0,0.7974,0.9002,0.9405,0.9581,0.9429,0.9045,0.8659,0.8344,0.0,0.0,0.0,0.0,0.0,0.0,0.0,0.0,0.0,0.0,0.0,0.0,0.0,0.0,0.0,0.0,0.0,0.0,0.0,0.0,0.0,0.0,0.0,0.0,0.0,0.0,0.0,0.0,0.0,0.0,0.0,0.0,0.0,0.0,0.0,0.0,0.0,0.0,0.0,0.0,0.0,0.0,0.0,0.0,0.0,0.0,0.0,0.0,0.0,0.0,0.0,0.0,0.0,0.0,0.0,0.0,0.0,0.0,0.0,0.0,0.0,0.0,0.0,0.0,0.0,0.0,0.0,0.0,0.0,0.0,0.0,0.0,0.0,0.0,0.0,0.0,0.0,0.0,0.0,0.0,0.0,0.0,0.0,0.0,0.0,0.0,0.0,0.0,0.0,0.0,0.0,0.0,0.0,0.0,0.0,0.0,0.0,0.0,0.0,0.0,0.0,0.0,0.0,0.8044,0.8426,0.9947,0.9755,0.9422,0.9326,0.892,0.8547,0.817,0.7476,0.0,0.0,0.0,0.0,0.0,0.0,0.0,0.0,0.0,0.0,0.0,0.0,0.0,0.0,0.0,0.0,0.0,0.0,0.0,0.0,0.0,0.0,0.0,0.0,0.0,0.0,0.0,0.0,0.0,0.0,0.0,0.0,0.0,0.0,0.0,0.0,0.0,0.0,0.0,0.0,0.0,0.0,0.0,0.0,0.0,0.0,0.0,0.0,0.0,0.0,0.0,0.0,0.0,0.0,0.0,0.0,0.0,0.0,0.0,0.0,0.0,0.0,0.0,0.0,0.0,0.0,0.0,0.0,0.0,0.0,0.0,0.0,0.0,0.0,0.0,0.0,0.0,0.0,0.0,0.0,0.0,0.0,0.0,0.0,0.0,0.0,0.0,0.0,0.0,0.0,0.0,0.0,0.0,0.0,0.0,0.0,0.0,0.0,0.0,0.0,0.0,0.0,0.952,0.9609,1.1185,1.0644,1.0041,0.9895,0.9492,0.8991,0.8301,0.7508,0.0,0.0,0.0,0.0,0.0,0.0,0.0,0.0,0.0,0.0,0.0,0.0,0.0,0.0,0.0,0.0,0.0,0.0,0.0,0.0,0.0,0.0,0.0,0.0,0.0,0.0,0.0,0.0,0.0,0.0,0.0,0.0,0.0,0.0,0.0,0.0,0.0,0.0,0.0,0.0,0.0,0.0,0.0,0.0,0.0,0.0,0.0,0.0,0.0,0.0,0.0,0.0,0.0,0.0,0.0,0.0,0.0,0.0,0.0,0.0,0.0,0.0,0.0,0.0,0.0,0.0,0.0,0.0,0.0,0.0,0.0,0.0,0.0,0.0,0.0,0.0,0.0,0.0,0.0,0.0,0.0,0.0,0.0,0.0,0.0,0.0,0.0,0.0,0.0,0.0,0.0,0.0,0.0,0.0,0.0,0.0,0.0,0.0,0.0,0.0,0.0,0.0,1.173,1.223,1.2606,1.2505,1.2206,1.1817,1.1189,1.0338,0.9188,0.8084,0.0,0.0,0.0,0.0,0.0,0.0,0.0,0.0,0.0,0.0,0.0,0.0,0.0,0.0,0.0,0.0,0.0,0.0,0.0,0.0,0.0,0.0,0.0,0.0,0.0,0.0,0.0,0.0,0.0,0.0,0.0,0.0,0.0,0.0,0.0,0.0,0.0,0.0,0.0,0.0,0.0,0.0,0.0,0.0,0.0,0.0,0.0,0.0,0.0,0.0,0.0,0.0,0.0,0.0,0.0,0.0,0.0,0.0,0.0,0.0,0.0,0.0,0.0,0.0,0.0,0.0,0.0,0.0,0.0,0.0,0.0,0.0,0.0,0.0,0.0,0.0,0.0,0.0,0.0,0.0,0.0,0.0,0.0,0.0,0.0,0.0,0.0,0.0,0.0,0.0,0.0,0.0,0.0,0.0,0.0,0.0,0.0,0.0,0.0,0.0,0.0,0.0,1.2319,1.271,1.381,1.3197,1.2588,1.2296,1.1654,1.0942,1.025,0.0,0.0,0.0,0.0,0.0,0.0,0.0,0.0,0.0,0.0,0.0,0.0,0.0,0.0,0.0,0.0,0.0,0.0,0.0,0.0,0.0,0.0,0.0,0.0,0.0,0.0,0.0,0.0,0.0,0.0,0.0,0.0,0.0,0.0,0.0,0.0,0.0,0.0,0.0,0.0,0.0,0.0,0.0,0.0,0.0,0.0,0.0,0.0,0.0,0.0,0.0,0.0,0.0,0.0,0.0,0.0,0.0,0.0,0.0,0.0,0.0,0.0,0.0,0.0,0.0,0.0,0.0,0.0,0.0,0.0,0.0,0.0,0.0,0.0,0.0,0.0,0.0,0.0,0.0,0.0,0.0,0.0,0.0,0.0,0.0,0.0,0.0,0.0,0.0,0.0,0.0,0.0,0.0,0.0,0.0,0.0,0.0,0.0,0.0,0.0,0.0,0.0,1.329,1.3327,1.3747,1.5132,1.44,1.3708,1.3545,1.2753,1.1932,1.1124,0.0,0.0,0.0,0.0,0.0,0.0,0.0,0.0,0.0,0.0,0.0,0.0,0.0,0.0,0.0,0.0,0.0,0.0,0.0,0.0,0.0,0.0,0.0,0.0,0.0,0.0,0.0,0.0,0.0,0.0,0.0,0.0,0.0,0.0,0.0,0.0,0.0,0.0,0.0,0.0,0.0,0.0,0.0,0.0,0.0,0.0,0.0,0.0,0.0,0.0,0.0,0.0,0.0,0.0,0.0,0.0,0.0,0.0,0.0,0.0,0.0,0.0,0.0,0.0,0.0,0.0,0.0,0.0,0.0,0.0,0.0,0.0,0.0,0.0,0.0,0.0,0.0,0.0,0.0,0.0,0.0,0.0,0.0,0.0,0.0,0.0,0.0,0.0,0.0,0.0,0.0,0.0,0.0,0.0,0.0,0.0,0.0,0.0,0.0,0.0,0.0,0.0,1.4322,1.5022,1.5748,1.6593,1.6221,1.5903,1.5897,1.486,1.3498,0.0,0.0,0.0,0.0,0.0,0.0,0.0,0.0,0.0,0.0,0.0,0.0,0.0,0.0,0.0,0.0,0.0,0.0,0.0,0.0,0.0,0.0,0.0,0.0,0.0,0.0,0.0,0.0,0.0,0.0,0.0,0.0,0.0,0.0,0.0,0.0,0.0,0.0,0.0,0.0,0.0,0.0,0.0,0.0,0.0,0.0,0.0,0.0,0.0,0.0,0.0,0.0,0.0,0.0,0.0,0.0,0.0,0.0,0.0,0.0,0.0,0.0,0.0,0.0,0.0,0.0,0.0,0.0,0.0,0.0,0.0,0.0,0.0,0.0,0.0,0.0,0.0,0.0,0.0,0.0,0.0,0.0,0.0,0.0,0.0,0.0,0.0,0.0,0.0,0.0,0.0,0.0,0.0,0.0,0.0,0.0,0.0,0.0,0.0,0.0,0.0,0.0,0.0,1.4048,1.5073,1.5868,1.6388,1.6256,1.5989,1.5581,1.4721,1.3748,1.2615,0.0,0.0,0.0,0.0,0.0,0.0,0.0,0.0,0.0,0.0,0.0,0.0,0.0,0.0,0.0,0.0,0.0,0.0,0.0,0.0,0.0,0.0,0.0,0.0,0.0,0.0,0.0,0.0,0.0,0.0,0.0,0.0,0.0,0.0,0.0,0.0,0.0,0.0,0.0,0.0,0.0,0.0,0.0,0.0,0.0,0.0,0.0,0.0,0.0,0.0,0.0,0.0,0.0,0.0,0.0,0.0,0.0,0.0,0.0,0.0,0.0,0.0,0.0,0.0,0.0,0.0,0.0,0.0,0.0,0.0,0.0,0.0,0.0,0.0,0.0,0.0,0.0,0.0,0.0,0.0,0.0,0.0,0.0,0.0,0.0,0.0,0.0,0.0,0.0,0.0,0.0,0.0,0.0,0.0,0.0,0.0,0.0,0.0,0.0,0.0,0.0,0.0,1.3741,1.483,1.5685,1.6219,1.6166,1.5952,1.5598,1.494,1.4045,1.2936,0.0,0.0,0.0,0.0,0.0,0.0,0.0,0.0,0.0,0.0,0.0,0.0,0.0,0.0,0.0,0.0,0.0,0.0,0.0,0.0,0.0,0.0,0.0,0.0,0.0,0.0,0.0,0.0,0.0,0.0,0.0,0.0,0.0,0.0,0.0,0.0,0.0,0.0,0.0,0.0,0.0,0.0,0.0,0.0,0.0,0.0,0.0,0.0,0.0,0.0,0.0,0.0,0.0,0.0,0.0,0.0,0.0,0.0,0.0,0.0,0.0,0.0,0.0,0.0,0.0,0.0,0.0,0.0,0.0,0.0,0.0,0.0,0.0,0.0,0.0,0.0,0.0,0.0,0.0,0.0,0.0,0.0,0.0,0.0,0.0,0.0,0.0,0.0,0.0,0.0,0.0,0.0,0.0,0.0,0.0,0.0,0.0,0.0,0.0,0.0,0.0,0.0,1.3414,1.4445,1.5382,1.6194,1.6013,1.5778,1.5752,1.5217,1.4318,1.2878,0.0,0.0,0.0,0.0,0.0,0.0,0.0,0.0,0.0,0.0,0.0,0.0,0.0,0.0,0.0,0.0,0.0,0.0,0.0,0.0,0.0,0.0,0.0,0.0,0.0,0.0,0.0,0.0,0.0,0.0,0.0,0.0,0.0,0.0,0.0,0.0,0.0,0.0,0.0,0.0,0.0,0.0,0.0,0.0,0.0,0.0,0.0,0.0,0.0,0.0,0.0,0.0,0.0,0.0,0.0,0.0,0.0,0.0,0.0,0.0,1.8218,0.0,0.0,0.0,0.0,0.0,0.0,0.0,0.0,0.0,0.0,0.0,0.0,0.0,0.0,0.0,0.0,0.0,0.0,0.0,0.0,0.0,0.0,0.0,0.0,0.0,0.0,0.0,0.0,0.0,0.0,0.0,0.0,0.0,0.0,0.0,0.0,0.0,0.0,0.0,0.0,0.0,1.3447,1.4731,1.5704,1.615,1.596,1.5635,1.5216,1.4609,1.3883,1.2851,1.1977,0.0,0.0,0.0,0.0,0.0,0.0,0.0,0.0,0.0,0.0,0.0,0.0,0.0,0.0,0.0,0.0,0.0,0.0,0.0,0.0,0.0,0.0,0.0,0.0,0.0,0.0,0.0,0.0,0.0,0.0,0.0,0.0,0.0,0.0,0.0,0.0,0.0,0.0,0.0,0.0,0.0,0.0,0.0,0.0,0.0,0.0,0.0,0.0,0.0,0.0,0.0,0.0,0.0,0.0,0.0,0.0,0.0,0.0,0.0,0.0,1.912,0.0,0.0,0.0,0.0,0.0,0.0,0.0,0.0,0.0,0.0,0.0,0.0,0.0,0.0,0.0,0.0,0.0,0.0,0.0,0.0,0.0,0.0,0.0,0.0,0.0,0.0,0.0,0.0,0.0,0.0,0.0,0.0,0.0,0.0,0.0,0.0,0.0,0.0,0.0,0.0,1.3941,1.561,1.666,1.6533,1.6395,1.6172,1.5769,1.544,1.4981,1.4298,1.3667,0.0,0.0,0.0,0.0,0.0,0.0,0.0,0.0,0.0,0.0,0.0,0.0,0.0,0.0,0.0,0.0,0.0,0.0,0.0,0.0,0.0,0.0,0.0,0.0,0.0,0.0,0.0,0.0,0.0,0.0,0.0,0.0,0.0,0.0,0.0,0.0,0.0,0.0,0.0,0.0,0.0,0.0,0.0,0.0,0.0,0.0,0.0,0.0,0.0,0.0,0.0,0.0,0.0,2.4399,2.499,2.498,2.4902,2.4863,2.4758,2.2773,2.1903,2.1839,2.0898,0.0,0.0,0.0,0.0,0.0,0.0,0.0,0.0,0.0,0.0,0.0,0.0,0.0,0.0,0.0,0.0,0.0,0.0,0.0,0.0,0.0,0.0,0.0,0.0,1.8539,1.8166,0.0,0.0,0.0,0.0,0.0,0.0,0.0,0.0,0.0,0.0,0.0,0.0,1.4819,1.6701,1.7732,1.7265,1.7154,1.7008,1.6738,1.6661,1.644,1.6038,1.5666,1.4898,0.0,0.0,0.0,0.0,0.0,0.0,0.0,0.0,0.0,0.0,0.0,0.0,0.0,0.0,0.0,0.0,0.0,0.0,0.0,0.0,0.0,0.0,0.0,0.0,0.0,0.0,0.0,0.0,0.0,0.0,0.0,0.0,2.167,2.1787,0.0,0.0,0.0,0.0,0.0,0.0,0.0,0.0,0.0,0.0,0.0,0.0,0.0,2.3406,2.3784,2.517,2.5897,2.5897,2.6805,2.7236,2.7226,2.6846,2.667,2.666,2.6334,0.0,2.3467,2.3182,0.0,0.0,0.0,0.0,0.0,0.0,0.0,0.0,0.0,0.0,0.0,0.0,0.0,0.0,0.0,0.0,0.0,0.0,0.0,0.0,0.0,0.0,2.1678,2.1428,2.1041,2.0696,0.0,1.7551,1.4857,1.431,1.368,0.0,0.0,0.0,0.0,0.0,0.0,0.0,1.6196,1.7546,1.8406,1.8374,1.8126,1.7844,1.7644,1.7351,1.7065,1.6774,1.6109,1.5546,1.5142,1.3861,0.0,0.0,0.0,0.0,0.0,0.0,0.0,0.0,0.0,0.0,0.0,0.0,0.0,0.0,0.0,0.0,0.0,0.0,0.0,0.0,0.0,0.0,0.0,0.0,0.0,0.0,0.0,0.0,0.0,2.166,2.25,2.2266,2.2666,2.25,0.0,0.0,0.0,0.0,0.0,0.0,0.0,0.0,0.0,2.458,2.4785,2.5205,2.5869,2.6699,2.7109,2.7119,2.7725,2.8018,2.8018,2.7822,2.7734,2.7715,2.748,2.6709,2.5547,2.4721,2.3644,2.246,0.0,0.0,0.0,0.0,2.0826,2.0883,2.153,2.1803,0.0,2.131,0.0,0.0,0.0,0.0,0.0,0.0,0.0,0.0,0.0,0.0,2.2236,2.2519,2.2399,2.2194,2.196,2.0335,1.8471,0.0,1.6381,1.561,1.393,0.0,0.0,0.0,0.0,1.6508,1.7133,1.8643,1.9492,1.9044,1.8871,1.8734,1.8652,1.8504,1.847,1.8563,1.8072,1.7478,1.689,1.5907,1.4899,0.0,0.0,0.0,0.0,0.0,0.0,0.0,0.0,0.0,0.0,0.0,0.0,0.0,0.0,0.0,0.0,0.0,0.0,0.0,0.0,0.0,0.0,0.0,0.0,0.0,0.0,0.0,0.0,2.2526,2.3232,2.3027,2.376,2.3662,0.0,0.0,0.0,0.0,0.0,0.0,2.4258,2.4502,2.5117,2.6191,2.623,2.6592,2.7334,2.7773,2.7988,2.7988,2.8301,2.8447,2.8447,2.834,2.8291,2.8271,2.7851,2.748,2.708,2.5781,2.4727,2.3877,2.3135,2.2578,2.2227,2.2334,2.2373,2.248,2.3169,2.3477,2.3428,2.3105,0.0,2.2031,2.1045,0.0,0.0,0.0,0.0,2.1377,2.2031,2.2285,2.25,2.2974,2.3091,2.3013,2.2744,2.2344,2.1469,0.0,1.8873,1.8051,1.5945,0.0,0.0,0.0,0.0,1.788,1.8223,1.9639,2.0362,1.9696,1.9618,1.9618,1.9618,1.9515,1.9561,1.9894,1.9414,1.8838,1.8159,1.7513,1.6542,1.5191,0.0,0.0,0.0,0.0,0.0,0.0,0.0,0.0,0.0,0.0,0.0,0.0,0.0,0.0,0.0,0.0,0.0,0.0,0.0,0.0,0.0,0.0,0.0,0.0,0.0,0.0,0.0,0.0,0.0,2.4277,2.505,0.0,0.0,0.0,0.0,2.3691,2.4853,2.5547,2.5586,2.6416,2.707,2.7559,2.762,2.7783,2.8223,2.8643,2.8857,2.8857,2.8877,2.8887,2.8877,2.8476,2.8291,2.8271,2.7851,2.7708,2.7581,2.624,2.5185,2.4346,2.3896,2.3467,2.3188,2.3545,2.3691,2.375,2.4199,2.4355,2.4346,2.4326,2.3769,2.3129,2.2998,2.2422,0.0,0.0,2.2643,2.2974,2.3023,2.3389,2.3603,2.3188,2.3091,2.3091,2.3062,2.274,2.2175,0.0,2.0382,1.9642,1.9136,0.0,1.842,1.8372,1.8825,1.9338,1.9757,2.0264,2.0566,2.0527,2.0527,2.0527,2.0527,2.0147,1.9894,1.9912,1.9095,1.8617,1.8568,1.7822,1.7353,1.7252,1.6005,0.0,0.0,0.0,0.0,0.0,0.0,0.0,0.0,0.0,0.0,0.0,0.0,0.0,0.0,0.0,0.0,0.0,0.0,0.0,0.0,0.0,0.0,0.0,0.0,0.0,0.0,0.0,0.0,2.6194,2.7232,0.0,2.5744,2.6234,2.6473,2.6034,2.6703,2.7342,2.793,2.798,2.8319,2.9046,2.8734,2.8794,2.9242,2.9112,2.8945,2.8794,2.8794,2.8687,2.8506,2.8359,2.8291,2.8252,2.7549,2.7246,2.7168,2.6103,2.5664,2.5644,2.5215,2.4951,2.4805,2.4668,2.4795,2.5019,2.508,2.5068,2.497,2.46,2.4068,2.358,2.358,2.3361,2.3212,2.365,2.3889,2.4008,2.4008,2.4128,2.4128,2.3636,2.3537,2.3537,2.3537,2.3461,2.3172,2.2585,2.1519,2.0498,1.9814,1.9561,1.9231,1.8685,1.9238,1.9746,1.9893,2.0293,2.0605,2.0605,2.0605,2.0488,2.0166,2.0,1.9805,1.9531,1.8711,1.8198,1.8198,1.7686,1.7256,1.6973,1.6473,1.5771,0.0,0.0,0.0,0.0,0.0,0.0,0.0,0.0,0.0,0.0,0.0,0.0,0.0,0.0,0.0,0.0,0.0,0.0,0.0,0.0,0.0,0.0,0.0,0.0,0.0,2.5702,2.6988,2.7632,2.8842,2.9074,2.7632,2.8288,2.857,2.8116,2.8499,2.9013,2.9628,2.9172,2.9192,2.9786,2.9363,2.9273,2.9574,2.9283,2.9036,2.8834,2.8834,2.8717,2.8558,2.8558,2.8479,2.8354,2.7572,2.7178,2.699,2.6271,2.6143,2.6379,2.5898,2.5693,2.5703,2.5496,2.5613,2.5809,2.5662,2.5587,2.5468,2.4877,2.448,2.4269,2.442,2.446,2.456,2.5058,2.5068,2.4917,2.4776,2.4625,2.4394,2.3908,2.3797,2.3797,2.3797,2.3677,2.3539,2.3247,2.2347,2.1411,2.0672,2.0425,2.0139,1.9458,1.9925,2.0299,2.0261,2.0583,2.077,2.0693,2.0693,2.0516,2.0036,1.9822,1.9558,1.9282,1.8365,1.7894,1.7961,1.7514,1.7118,1.6801,1.6507,1.5792,1.4653,0.0,0.0,0.0,0.0,0.0,0.0,0.0,0.0,0.0,0.0,0.0,0.0,0.0,0.0,0.0,0.0,0.0,0.0,0.0,0.0,0.0,0.0,0.0,2.5209,2.6433,2.7613,2.8509,2.9769,3.0223,2.9356,3.0061,3.0384,2.9995,3.0293,3.0525,3.0505,3.0082,2.984,2.984,2.9363,2.9132,2.9132,2.9132,2.9132,2.9132,2.9132,2.9132,2.9079,2.9079,2.89,2.8458,2.8005,2.7502,2.7061,2.6677,2.6496,2.6448,2.5927,2.5732,2.5781,2.6014,2.61,2.6079,2.5869,2.5812,2.5732,2.5223,2.5072,2.5153,2.5631,2.5772,2.5883,2.6315,2.6134,2.5702,2.5315,2.4882,2.4394,2.3941,2.3841,2.3841,2.382,2.3488,2.3229,2.3199,2.2804,2.2362,2.1889,2.1458,2.1128,2.0945,2.1099,0.0,2.0945,2.1099,2.1138,2.0945,2.0906,2.0728,2.0224,1.9642,1.9272,1.9168,1.8171,1.766,1.7885,1.7336,1.7012,1.7022,1.6158,1.5284,1.445,0.0,0.0,0.0,0.0,0.0,0.0,0.0,0.0,0.0,0.0,0.0,0.0,0.0,0.0,0.0,0.0,0.0,0.0,0.0,0.0,0.0,2.5192,2.6667,2.7102,2.8366,2.9692,3.0871,3.164,3.1891,3.1316,3.1722,3.1809,3.1028,3.1079,3.0997,3.0668,3.0216,2.9969,2.9969,2.9846,2.9722,2.9722,2.9722,2.9669,2.9448,2.9448,2.9343,2.9079,2.9079,2.89,2.8458,2.8005,2.7502,2.7061,2.6677,2.6496,2.6496,2.6352,2.6265,2.6304,2.6352,2.6496,2.6587,2.5853,2.5717,2.5756,2.4941,2.4641,2.4671,2.4805,2.5115,2.5402,2.5526,2.57,2.5786,2.531,2.5105,2.4889,2.4438,2.4325,2.4233,2.3957,2.3793,2.3505,2.2837,2.2571,2.2358,2.1869,2.1458,2.1167,2.1138,2.1167,0.0,2.1128,2.1167,2.1167,2.1128,2.1128,2.0827,2.0066,1.9813,1.9319,1.8338,1.766,1.7349,1.7381,1.7239,1.7319,1.765,1.6467,1.5736,0.0,0.0,0.0,0.0,0.0,0.0,0.0,0.0,0.0,0.0,0.0,0.0,0.0,0.0,0.0,0.0,0.0,0.0,0.0,0.0,0.0,0.0,2.6936,2.8411,2.9249,3.0067,3.0936,3.1864,3.239,3.2566,3.2297,3.2514,3.2437,3.1712,3.1485,3.1174,3.0708,3.0243,2.9994,2.9994,2.9994,2.9994,2.9994,2.9994,2.9942,2.9774,2.9774,2.9669,2.9459,2.9459,2.9113,0.0,2.8228,2.775,2.7199,2.6934,2.6832,0.0,0.0,0.0,0.0,0.0,2.6842,2.6948,2.5987,2.575,2.573,2.4797,2.4497,2.4538,2.4724,2.4972,2.523,2.5451,2.5554,2.5544,2.5251,2.5044,2.4828,2.4559,2.4352,2.4188,2.3929,2.3567,2.3143,2.2604,2.2335,0.0,2.1851,2.1598,2.1436,2.1359,2.1397,2.1436,2.1359,2.1397,2.1436,2.132,2.132,2.1027,2.0329,2.0034,0.0,0.0,0.0,1.7395,1.7052,1.7042,0.0,0.0,0.0,0.0,0.0,0.0,0.0,0.0,1.5363,1.5434,0.0,0.0,0.0,0.0,0.0,0.0,0.0,0.0,0.0,0.0,0.0,0.0,0.0,0.0,0.0,0.0,2.8607,2.9984,3.1278,3.1454,3.1619,3.2008,3.2421,3.2669,3.2669,3.2628,3.2401,3.1946,3.1547,3.1091,3.0636,0.0,0.0,0.0,0.0,2.9994,2.9994,2.9994,2.9994,2.9994,2.9994,2.9994,2.9994,2.9942,2.9446,2.8618,2.8556,2.8048,2.7309,2.7309,2.7309,2.7262,2.6784,2.6592,2.664,2.6842,2.7081,2.7175,2.6241,0.0,0.0,2.4797,2.4497,2.458,2.4983,2.5148,2.5261,2.5637,2.5482,2.5179,2.5127,2.4807,2.4497,2.4497,2.4198,2.3909,2.3805,2.3111,2.248,2.2428,2.2087,2.1807,2.1807,2.1807,2.1731,2.154,2.1693,2.1731,2.154,2.1693,2.1731,2.154,0.0,0.0,2.0788,2.0244,1.9859,1.9679,1.8672,1.7799,1.7001,1.697,1.691,1.6809,1.6859,1.7103,1.7502,1.7637,1.775,1.7833,1.6706,1.6464,0.0,0.0,0.0,0.0,0.0,0.0,0.0,0.0,0.0,0.0,0.0,0.0,0.0,0.0,0.0,2.8162,2.9829,3.1195,3.1826,3.1853,3.2029,3.2483,3.2618,3.2669,3.2669,3.2339,3.1936,3.1536,3.1081,3.0615,3.0149,3.0046,2.9994,2.9994,2.9994,2.9994,2.9994,2.9994,2.9994,2.9994,0.0,0.0,2.9984,2.9611,2.9135,2.8597,2.8214,2.7748,2.7309,2.7309,2.7309,2.7309,2.7214,2.7167,2.7167,2.7214,2.7262,2.7175,2.6241,2.5875,2.573,2.4797,2.4497,2.4518,2.4611,2.489,0.0,2.4838,2.4962,2.5096,2.4724,2.4569,2.4497,2.4497,2.4198,2.3815,2.3401,2.2884,2.2387,2.2014,2.1869,2.1807,2.1807,2.1807,2.1807,2.1769,2.1769,2.1807,2.1731,2.1769,2.1807,2.1731,2.1731,2.1391,2.0555,2.0375,1.9854,1.8756,1.8442,1.8267,1.8091,1.8081,1.8091,1.8049,1.7719,1.7585,1.7668,1.7709,1.8102,1.8796,1.8215,1.7967,0.0,0.0,0.0,0.0,0.0,0.0,0.0,0.0,0.0,0.0,0.0,2.4902,2.5985,0.0,2.839,2.9777,3.0957,3.1868,3.2266,3.2132,3.2153,3.2618,3.2333,3.2137,3.2308,3.1971,3.1516,3.106,3.0822,3.0491,3.0025,2.9994,2.9994,2.9994,2.9994,2.9994,2.9994,2.9994,2.9994,2.9994,2.9994,2.988,2.9642,2.9415,2.8928,2.8255,2.8028,2.7665,2.7309,2.7309,2.7309,2.7309,2.7309,2.7309,2.7309,2.7309,2.7584,2.7859,2.6913,2.6583,2.6478,2.5487,2.4861,2.4497,2.4497,2.4662,2.4797,2.4559,2.4662,2.4786,2.4559,2.4497,2.4497,2.4497,2.4022,2.3474,2.3236,2.2646,2.2087,2.1849,2.1807,2.1807,2.1807,2.1807,2.1807,2.1807,2.1807,2.1807,2.1807,2.16,2.1568,2.193,2.1765,2.1607,2.1455,2.0938,2.0198,1.9318,1.8951,1.8814,1.8881,1.8903,1.8903,1.8903,1.8658,1.8658,1.8903,1.8903,1.9437,2.0501,2.0124,1.9744,0.0,0.0,0.0,0.0,0.0,0.0,0.0,2.3991,2.4581,2.5158,2.5592,2.6346,2.8028,2.8628,2.9456,3.1226,3.1805,3.2142,3.2607,3.2261,3.2029,3.2483,3.1878,3.1516,3.1878,3.1505,3.1091,3.0708,3.0605,3.0387,3.0015,2.9994,2.9994,2.9994,2.9994,2.9994,2.9994,2.9994,2.9953,2.986,2.986,2.9622,2.9166,2.9073,2.8628,2.7914,2.7831,2.7593,2.7309,2.7309,2.7309,2.7309,2.7489,2.7584,2.7536,2.7357,2.7934,2.8681,2.7577,2.7305,2.7303,2.6367,2.5463,2.4743,2.4743,2.4615,2.4497,2.4497,2.4497,2.4497,2.4497,2.4497,2.4476,2.4394,2.3784,2.3163,2.307,2.2397,2.1807,2.1807,2.1807,2.1845,2.1987,2.2025,2.1993,2.1872,2.1858,2.1891,2.194,2.1602,2.1577,2.2106,2.1883,2.1886,2.2343,2.142,2.0688,2.0313,1.9781,1.9576,1.9717,1.9737,1.9737,1.9737,1.9737,1.983,2.0096,2.0226,2.0839,2.1831,2.1753,2.1382,2.2822,2.2115,2.2213,2.3451,2.3534,2.4033,0.0,2.6775,2.663,2.7893,2.8204,2.8545,2.957,2.9808,3.0305,3.1733,3.1957,3.2142,3.2607,3.1992,3.1619,3.2008,3.1681,3.1391,3.1443,3.104,3.0739,3.0688,3.0305,3.0056,2.9994,2.9994,2.9994,2.9994,2.9994,2.9994,2.9994,2.9994,2.9787,2.9384,2.9384,2.9135,2.868,2.8266,2.8028,2.7903,2.751,2.7351,2.7309,2.7309,2.7309,2.7394,2.8222,2.8538,2.8445,2.7631,2.8117,2.9035,2.7668,2.7433,2.7656,2.7129,2.6359,2.5663,2.5663,2.5105,2.4497,2.4497,2.4497,2.4497,2.4497,2.4497,2.4394,2.4043,2.3557,2.308,2.2656,2.217,2.1807,2.1807,2.1807,2.2035,2.274,2.2852,2.2663,2.2157,2.206,2.2163,2.2398,2.2388,2.2388,2.2457,2.2412,2.2241,2.1908,2.1373,2.1033,2.0996,2.0901,2.0878,2.0917,2.0917,2.0917,2.0917,2.0917,2.0653,2.0096,2.0709,2.1226,2.1669,2.2207,2.2339,2.3856,2.3701,2.4002,2.483,2.5492,2.6289,2.7614,2.7841,2.7997,2.8845,2.9021,2.9301,3.0222,3.0615,3.1071,3.1853,3.2215,3.2359,3.2287,3.1785,3.135,3.1257,3.0853,3.0677,3.0946,3.0553,3.0284,3.0284,3.0098,2.9994,2.9994,2.9994,2.9994,2.9994,2.9994,2.9994,2.9994,2.9725,2.9497,2.9301,2.9032,2.8659,2.8204,2.8007,2.7779,2.7569,2.7941,2.7809,2.7357,2.7904,2.8128,2.8128,2.8538,2.9406,3.026,2.9349,2.9489,3.0044,2.914,2.8757,2.8575,2.8096,2.7313,2.6577,2.6577,2.5955,2.5263,2.5263,2.4903,2.4497,2.4497,2.4861,2.5146,2.4635,2.4559,2.4464,2.3941,2.3446,2.3143,2.3143,2.3143,2.3254,2.3585,2.3632,2.3609,2.3501,2.3094,2.2852,2.296,2.2445,2.2143,2.2254,2.2615,2.2754,2.258,2.2027,2.1678,2.1678,2.1313,2.1282,2.1678,2.1678,2.1678,2.1678,2.1678,2.1542,2.1259,2.1553,2.2285,2.3459,2.2819,2.2833,2.4342,2.4828,2.5513,2.5958,2.7003,2.7997,2.8245,2.8566,2.8938,2.9404,2.9497,2.9735,3.0543,3.0853,3.1226,3.1864,3.2163,3.2333,3.2184,3.1733,3.1247,3.0915,3.0356,3.0129,3.046,3.0191,2.9994,2.9994,2.9994,2.9994,2.9994,2.9994,2.9994,2.9994,2.9994,2.9932,2.9808,2.9477,2.9177,2.8918,2.8587,2.8183,2.7738,2.8017,2.7983,2.7715,2.8678,2.8724,2.8175,2.8806,2.913,2.913,2.9406,3.0362,3.1512,3.0959,3.083,3.0864,3.0224,2.9728,2.9354,2.9004,2.8251,2.7476,2.7476,2.6853,2.611,2.5861,2.5348,2.4775,2.4583,2.5137,2.5624,2.4973,2.5194,2.5413,2.4734,2.4336,2.4108,2.4108,2.4108,2.4192,2.4373,2.4409,2.4578,2.5002,2.4299,2.3673,2.352,2.2711,2.221,2.2347,2.2811,2.3108,2.3108,2.2647,2.2372,2.2372,2.1939,2.1877,2.2359,2.2372,2.2372,2.2372,2.2372,2.2267,2.2101,2.2298,2.3131,2.4516,2.358,2.372,2.4012,2.4861,2.5968,2.648,2.7241,2.8152,2.9063,2.927,2.9415,2.988,2.9973,3.0118,3.0594,3.0325,3.0481,3.1771,3.1692,3.1723,3.2592,3.194,3.1371,3.136,3.0553,3.0005,3.0015,3.0005,2.9994,2.9994,2.9994,2.9994,2.9994,2.9994,2.9994,2.9994,2.9994,2.9777,2.9332,2.9311,2.8856,2.7917,2.7945,2.7717,2.7378,2.8243,2.8689,2.8724,2.9715,3.0125,3.0125,3.0125,3.017,3.026,3.1169,3.1536,3.1653,3.2005,3.1805,3.1248,3.0301,2.9919,2.9765,2.9753,2.917,2.8462,2.8462,2.7799,2.6894,2.6027,2.5777,2.5579,2.4743,2.5137,2.5537,2.4549,2.4977,2.5322,2.4349,2.4131,2.4108,2.4108,2.4108,2.4337,2.5123,2.5264,2.5511,2.6324,2.549,2.458,2.4054,2.3435,2.306,2.3078,2.3078,2.3108,2.3108,2.3065,2.3078,2.3078,2.3047,2.3047,2.3078,2.3078,2.3078,2.3078,2.3078,2.275,2.2101,2.275,2.3319,2.3857,2.4451,2.5344,2.5006,2.5761,2.6635,2.7665,2.839,2.9001,2.9622,2.9766,2.9715,2.957,2.9539,2.9497,2.9332,2.9435,2.9891,3.0967,3.1278,3.1485,3.1795,3.1816,3.1485,3.0563,3.046,3.0336,3.0025,2.9994,2.9994,2.9994,2.9994,2.9994,2.9994,2.9994,2.9994,2.9994,2.9704,2.9466,2.9301,2.869,2.8235,2.7914,2.7624,2.7778,2.8222,2.8538,2.9084,2.9761,3.0722,3.0767,3.026,3.0857,3.1125,3.1169,3.1492,3.1758,3.1987,3.2151,3.165,3.0831,3.0509,3.0157,2.9792,2.9792,2.9585,2.9378,2.9378,2.8752,2.7971,2.7678,2.7139,2.6607,2.6287,2.6905,2.7422,2.6671,2.6876,2.7054,2.637,2.5943,2.5687,2.5687,2.5687,2.5791,2.606,2.6094,2.6039,2.5904,2.5272,2.4449,2.3509,2.3233,2.3108,2.3108,2.3108,2.3108,2.3108,2.3108,2.3108,2.3108,2.3108,2.3108,2.3108,2.3108,2.3108,2.3108,2.3108,2.2975,2.275,2.2975,2.3579,2.4439,2.4153,2.4594,2.5889,2.6703,2.7552,2.8597,2.9208,2.9591,2.9715,2.9746,2.957,2.8938,2.8804,2.8669,2.8214,2.8369,2.8928,3.0015,3.0584,3.106,3.1547,3.1723,3.1474,3.0594,3.046,3.0325,3.0025,2.9849,2.9746,2.9746,2.9901,2.9922,2.9756,2.9911,2.9922,2.9756,2.9466,2.9145,2.8814,2.8214,2.7841,2.7686,2.7767,2.8128,2.8724,2.9406,3.0079,3.0756,3.1713,3.1801,3.1291,3.1639,3.1827,3.1815,3.162,3.1679,3.1901,3.1712,3.121,3.062,3.062,3.0256,2.9792,2.9792,2.9792,2.9792,2.9792,2.9417,2.891,2.8581,2.8051,2.7516,2.7191,2.7799,2.8357,2.7726,2.7877,2.7959,2.7442,2.6889,2.6499,2.6499,2.6499,2.6499,2.6499,2.6499,2.6298,2.5686,2.531,2.4662,2.3559,2.3233,2.3108,2.3108,2.3108,2.3108,2.3108,2.3108,2.3108,2.3108,2.3108,2.3108,2.3108,2.3108,2.3108,2.3108,2.3108,2.3138,2.321,2.3138,2.3715,2.4852,2.4296,2.4627,2.6584,2.7645,2.8763,2.9228,2.9653,2.9849,2.9404,2.927,2.898,2.8079,2.7872,2.7707,2.7289,2.7247,2.7714,2.9011,2.9642,3.0439,3.176,3.164,3.1371,3.135,3.0563,3.0025,2.9994,2.958,2.929,2.927,0.0,2.9777,2.9363,2.9735,2.9756,2.9321,2.9259,2.8814,2.7935,2.7903,2.7676,2.7309,2.8269,2.8724,2.8863,3.0722,3.1625,3.1713,3.2643,3.3031,3.2993,3.2416,3.2177,3.2127,3.1599,3.1373,3.1286,3.0796,3.0595,3.057,3.057,3.0231,2.9792,2.9792,2.9792,2.9792,2.9792,2.9792,2.9624,2.8791,2.8581,2.8383,2.7476,2.7891,2.8409,2.7852,2.7889,2.7959,2.7444,2.6901,2.6499,2.6499,2.6499,2.6499,2.6499,2.6499,2.6311,2.5724,2.5611,2.5222,2.418,2.3509,2.3145,2.3145,2.312,2.3108,2.3108,2.3108,2.3108,2.3108,2.3108,2.3108,2.3108,2.3108,2.3108,2.3108,2.3108,2.3198,2.3403,2.321,2.3764,2.4963,2.4872,2.5398,2.7779,2.8597,2.9239,2.9704,2.9653,2.9446,2.9332,2.8773,2.811,2.7541,2.7148,2.6672,2.5896,2.6299,2.7076,2.811,2.8949,2.9963,3.135,3.1443,3.1247,3.0905,3.0657,3.0367,3.0025,2.958,2.9166,2.8814,2.9218,2.958,2.9808,2.9601,2.9425,2.9311,2.8628,2.8162,2.7924,2.7593,2.7423,2.7309,2.8269,2.9084,2.9852,3.108,3.1989,3.2686,3.2531,3.2428,3.239,3.1825,3.1599,3.1587,3.1449,3.116,3.0796,3.067,3.0357,2.9993,2.9993,2.9905,2.9792,2.9792,2.9792,2.9792,2.9792,2.9792,2.9753,2.9546,2.9456,2.9417,2.917,2.93,2.9419,2.9282,2.8662,2.8059,2.7921,2.7178,2.6499,2.6499,2.6499,2.6499,2.6499,2.6499,2.6449,2.6298,2.5908,2.536,2.4695,2.4117,2.3778,2.3778,2.3358,2.3108,2.3108,2.3108,2.3108,2.3108,2.3108,2.3108,2.3108,2.3108,2.3168,2.333,2.333,2.339,2.3539,2.3509,2.3776,2.4424,2.4779,2.5347,2.8659,2.9259,2.9673,2.9932,2.9653,2.9145,2.8545,2.8007,2.7282,2.6076,2.573,2.5409,2.4498,2.5078,2.5978,2.6879,2.8131,2.9487,3.0874,3.1071,3.105,3.0998,3.0626,3.0284,3.0025,2.9394,2.898,2.8918,2.9156,2.9239,2.9094,2.9228,2.9114,2.8711,2.8193,2.7831,2.7634,2.7841,2.7904,2.7951,2.9314,3.026,3.0857,3.1813,3.2445,3.2679,0.0,3.2077,3.1813,3.1273,3.1047,3.1035,3.0783,3.0507,3.0256,3.0256,3.0055,2.9792,2.9792,2.9792,2.9792,2.9792,2.9792,2.9792,2.9792,2.9792,2.9792,2.9792,2.9792,2.9792,2.9792,2.9792,2.9792,2.9792,2.8925,2.8109,2.8109,2.7278,2.6499,2.6499,2.6499,2.6499,2.6499,2.6499,2.6499,2.6499,2.6223,2.5908,2.5573,2.4632,2.4004,2.4004,2.3446,2.3108,2.3108,2.3108,2.3108,2.3108,2.3108,2.3138,2.3241,2.3241,2.33,2.348,2.348,2.3582,2.373,2.3902,2.4251,2.4783,2.5198,2.5691,2.927,2.9684,2.9984,2.9922,2.9559,2.8856,2.7527,2.7123,2.6449,2.4312,2.4136,2.4063,2.3256,2.3888,2.4776,2.5658,2.7272,2.8938,3.0387,3.0543,3.0698,3.1215,3.0522,2.9994,2.9994,2.9156,2.8783,2.9187,2.9156,2.8794,2.8059,2.8721,2.8731,2.7862,2.7831,2.7693,2.7489,2.8315,2.8771,2.8899,3.0722,3.1581,3.1625,3.2537,3.2692,3.2202,3.2064,0.0,3.1248,3.0721,3.0507,3.0457,2.998,2.9792,2.9792,2.9792,2.9792,2.9792,2.9792,2.9792,2.9792,2.9792,2.9792,2.9792,2.9792,2.9792,2.9792,2.9792,2.9792,2.9792,2.9792,2.9792,2.9792,2.9792,2.8976,2.821,2.821,2.7344,2.6587,2.6512,2.6499,2.6499,2.6499,2.6499,2.6499,2.6499,2.6499,2.6499,2.6521,2.5179,2.418,2.4117,2.3559,2.3195,2.3108,2.3108,2.3108,2.3108,2.3108,2.3198,2.3403,2.3403,2.3492,2.3628,2.3628,2.3769,2.4066,2.4395,2.4898,2.5528,2.5818,2.6209,2.9746,2.9932,2.9901,2.9518,2.9073,2.8369,2.705,2.6113,2.5264,2.4115,2.3639,2.3256,2.2718,2.367,2.4673,2.521,2.6558,2.811,2.987,2.9787,2.986,3.0708,3.0325,2.9994,2.9994,2.9156,2.8649,2.8731,2.838,2.8266,2.8483,2.8286,2.7924,2.7444,2.7423,2.7752,2.8445,2.8631,2.913,2.9943,3.108,3.1581,3.1613,3.2128,3.2303,3.2164,3.1273,0.0,3.0708,3.0168,2.993,2.993,2.9829,2.9792,2.9792,2.9792,2.9792,2.9792,2.9792,2.9792,2.9792,2.9792,2.9792,2.9792,2.9792,2.9792,2.9792,2.9792,2.9792,2.9792,2.9792,2.9792,2.9792,2.9792,2.9277,2.875,2.875,2.7921,2.704,2.6587,2.6499,2.6499,2.6499,2.6499,2.6499,2.6499,2.6499,2.6521,2.6658,2.5887,2.5159,2.472,2.418,2.3653,2.3145,2.3108,2.3108,2.3108,2.3108,2.3198,2.3403,2.3403,2.3552,2.3832,2.3861,2.417,2.4818,2.4892,2.514,2.5586,2.6104,2.6368,2.987,2.9994,2.988,2.9415,2.8773,2.7841,2.6237,2.5171,2.4136,2.2729,2.2449,2.2325,2.1859,2.2904,2.3991,2.4457,2.5668,2.7179,2.9021,2.9083,2.9373,3.0553,3.0284,2.9901,2.9653,2.9021,2.8514,2.8276,2.7831,2.7676,2.7903,2.7696,2.7479,2.732,2.7309,2.7762,2.8678,2.9222,2.9988,3.0946,3.1945,3.2234,3.1896,3.2117,3.1913,3.1361,3.0834,0.0,3.0168,2.9905,2.9792,2.9792,2.9792,2.9792,2.9792,2.9792,2.9792,2.9792,2.9792,2.9792,2.9792,2.9792,2.9792,2.9792,2.9792,2.9792,2.9792,2.9792,2.9792,2.9792,2.9792,2.9792,2.9792,2.9792,2.9352,2.8813,2.8561,2.7858,2.7241,2.6977,2.6688,2.6499,2.6499,2.6499,2.6499,2.6499,2.6499,2.6555,2.6692,2.6384,2.6005,2.5572,2.4937,2.4463,2.4185,2.3864,2.3669,2.3669,2.3778,2.3785,2.3654,2.4235,2.4537,2.448,2.4736,2.5053,2.5419,2.5738,2.5963,2.6186,2.6661,2.6854,2.9746,2.9922,2.986,2.9301,2.8535,2.7427,2.5478,2.4385,2.3236,2.1476,2.1331,2.1424,2.1166,2.2087,2.3111,2.3774,2.484,2.6237,2.8069,2.84,2.8949,3.0232,3.016,2.9818,2.9352,2.8887,2.8421,2.7966,2.751,2.7309,2.7309,2.7489,2.7584,2.7584,2.7809,2.8351,2.9314,3.0125,3.0932,3.1719,3.2524,3.2591,3.2026,3.1926,3.1411,3.0608,3.0495,0.0,0.0,2.9792,2.9792,2.9792,2.9792,2.9792,2.9792,2.9792,2.9792,2.9792,2.9792,2.9792,2.9792,2.9792,2.9792,2.9792,2.9792,2.9792,2.9792,2.9792,2.9792,2.9792,2.9792,2.9792,2.9792,2.9792,2.9453,2.8925,2.8398,2.7946,2.7557,2.7331,2.6964,2.6637,2.6512,2.6499,2.6499,2.6499,2.6499,2.6555,2.6726,2.676,2.6697,2.6495,2.578,2.5288,2.516,2.469,2.4405,2.4436,2.456,2.4458,2.4085,2.5073,2.5408,2.5018,2.5537,2.5845,2.6007,2.6452,2.6771,2.687,2.7194,2.7335,2.9352,2.9673,2.9787,2.8897,2.8297,2.7287,2.5065,2.3898,2.2842,2.1414,2.0814,2.0633,2.1041,2.1559,2.2356,2.3712,2.4322,2.5295,2.7175,2.7728,2.8349,2.9321,2.9766,2.9818,2.9352,2.8887,2.8421,2.7966,2.751,2.7309,2.7309,2.8128,2.8585,2.8585,2.9441,3.0396,3.1303,3.1448,3.169,3.2164,3.2248,3.2001,3.1449,3.0972,3.0708,3.0583,3.0093,0.0,0.0,2.9792,2.9792,2.9792,2.9792,2.9792,2.9792,2.9792,2.9792,2.9792,2.9792,2.9792,2.9792,2.9792,2.9792,2.9792,2.9792,2.9792,2.9792,2.9792,2.9792,2.9792,2.9792,2.9792,2.9792,2.9792,2.9754,2.9553,2.8976,2.8775,2.8449,2.7482,2.7278,2.7077,2.6575,2.6499,2.6499,2.6499,2.6499,2.6602,2.6943,2.6977,2.7087,2.7358,2.662,2.5884,2.5345,2.5129,2.5071,2.5186,2.5103,2.4911,2.4641,2.5236,2.5408,2.5018,2.5537,2.6073,2.6627,2.668,2.6935,2.7425,2.7464,2.7503,2.895,2.9239,2.9073,2.8711,2.7852,2.6662,2.489,2.3412,2.2035,2.0928,2.0338,2.0162,2.0617,2.0819,2.1424,2.2822,2.2956,2.3536,2.5368,2.602,2.6837,2.8297,2.8628,2.8783,2.8876,2.8473,2.8007,2.7552,2.7413,2.7536,2.8128,2.8502,2.9002,2.9578,2.9988,3.0666,3.1581,3.1268,3.1479,3.2215,3.1876,3.1436,3.0922,3.0708,3.0432,3.0105,2.9892,0.0,0.0,2.9792,2.9792,2.9792,2.9792,2.9792,2.9792,2.9792,2.9792,2.9792,2.9792,2.9792,2.9792,2.9792,2.9792,2.9792,2.9792,2.9792,2.9792,2.9792,2.9792,2.9792,2.9792,2.9792,2.9792,2.9792,2.9792,2.9729,2.9503,2.9176,2.8662,2.7921,2.7507,2.714,2.6587,2.6499,2.6499,2.6499,2.6499,2.6636,2.6943,2.699,2.7113,2.7469,2.7141,2.6775,2.651,2.6109,2.5929,2.5949,2.5691,2.5345,2.4884,2.5788,2.6009,2.5497,2.6354,2.6929,2.7183,2.7183,2.7301,2.749,2.749,2.749,2.8227,2.8556,2.838,2.8245,2.7282,2.6009,2.4654,2.2925,2.1383,2.055,1.9965,1.973,2.0141,2.0338,2.0834,2.2087,2.2128,2.2604,2.4259,2.489,2.5757,2.7345,2.7645,2.7852,2.8183,2.7924,2.7603,2.733,2.7536,2.8128,2.9084,2.9406,2.9897,3.0576,3.0737,3.1109,3.1789,3.1254,3.1208,3.1738,3.1348,3.0884,3.0369,3.0369,3.0168,2.9792,2.9792,0.0,0.0,2.9792,2.9792,2.9792,2.9792,2.9792,2.9792,2.9792,2.9792,2.9792,2.9792,2.9792,2.9792,2.9792,2.9792,2.9792,2.9792,2.9792,2.9792,2.9792,2.9792,2.9792,2.9792,2.9792,2.9792,2.9792,2.9792,2.9792,2.9792,2.9478,2.9013,2.8522,2.7981,2.7463,2.693,2.6669,2.6555,2.6499,2.6521,2.6671,2.6943,2.7045,2.718,2.7469,2.7436,2.7369,2.7369,2.6939,2.6673,2.6706,2.6427,2.6009,2.5528,2.6444,2.6661,2.6086,2.6994,2.749,2.749,2.749,2.749,2.749,2.749,2.749,2.7034,2.7603,2.7821,2.7434,2.6615,2.5578,2.4188,2.2449,2.0953,2.0488,1.9706,1.9253,1.972,2.0131,2.0695,2.1662,2.219,2.2967,2.4311,2.489,2.5564,2.6521,2.704,2.732,2.732,2.732,2.7309,2.7309,2.8175,0.0,3.0125,3.108,3.1581,3.1581,3.1981,3.2173,3.2173,3.1675,3.1135,3.0633,3.062,3.0331,2.9804,2.9804,2.9804,0.0,0.0,0.0,0.0,2.9792,2.9792,2.9792,2.9792,2.9792,2.9792,2.9792,2.9792,2.9792,2.9792,2.9792,2.9792,2.9792,2.9792,2.9792,2.9792,2.9792,2.9792,2.9792,2.9792,2.9792,2.9792,2.9792,2.9792,2.9792,2.9792,2.9792,2.9792,2.9792,2.968,2.9276,2.8768,2.8223,2.7675,2.7081,2.6658,2.6521,2.6624,2.676,2.6977,2.718,2.7335,2.749,2.749,2.749,2.749,2.7369,2.7356,2.749,2.7356,2.7096,2.6706,2.721,2.7249,2.6706,2.7236,2.749,2.749,2.749,2.749,2.749,2.749,2.749,2.5454,2.5706,2.5602,2.5834,2.5181,2.4354,2.3577,2.2221,2.0979,2.0488,1.9706,1.9243,1.971,1.9647,2.0006,2.1559,2.1662,2.2035,2.3422,2.484,2.584,2.6079,2.7655,2.8623,2.8301,2.8269,2.7998,2.7357,2.8175,2.913,3.017,3.0738,3.1355,3.1999,3.2134,3.2026,3.165,3.1122,3.0783,3.0608,3.0231,2.9967,2.9792,2.9792,2.9792,0.0,0.0,0.0,0.0,2.9792,2.9792,2.9792,2.9792,2.9792,2.9792,2.9792,2.9792,2.9792,2.9792,2.9792,2.9792,2.9792,2.9792,2.9792,2.9792,2.9792,2.9792,2.9792,2.9792,2.9792,2.9792,2.9792,2.9792,2.9792,2.9895,2.9972,2.983,3.0011,3.0012,2.9314,2.916,2.8977,2.8439,2.7876,2.7506,2.7449,2.7152,2.6977,2.718,2.7268,2.7335,2.749,2.749,2.749,2.749,2.7469,2.7469,2.749,2.7137,2.6837,2.6719,2.6844,2.6857,2.6706,2.7236,2.749,2.749,2.749,2.749,2.749,2.749,2.749,2.413,2.4423,2.4321,2.4654,2.4167,2.3453,2.2811,2.1725,2.0731,2.0276,1.9582,1.9191,1.9482,1.944,1.9741,2.0845,2.1083,2.1641,2.3203,2.4765,2.6036,2.691,2.8095,2.8918,2.8966,2.9157,2.9037,2.8445,2.9268,3.0091,3.0666,3.112,3.1514,3.1872,3.1712,3.1449,3.1097,3.057,3.0306,3.0306,2.9955,2.9792,2.9792,2.9792,2.9792,0.0,0.0,0.0,0.0,2.9792,2.9792,2.9792,2.9792,2.9792,2.9792,2.9792,2.9792,2.9792,2.9792,2.9792,2.9792,2.9792,2.9792,2.9792,2.9792,2.9792,2.9792,2.9792,2.9792,2.9792,2.9792,2.9792,2.9792,2.9792,2.9934,3.0075,2.9934,3.019,3.0253,2.9832,2.9664,2.9518,2.9171,2.8463,2.7949,2.7927,2.7439,2.7146,2.7268,2.7335,2.7403,2.749,2.749,2.749,2.749,2.749,2.749,2.749,2.7196,2.7,2.7,2.7,2.7,2.7,2.732,2.749,2.749,2.749,2.749,2.749,2.749,2.749,0.0,2.3505,2.3681,2.3681,2.3329,2.277,2.1901,2.101,0.0,1.9886,1.943,1.9119,1.915,1.9502,1.9824,1.9927,2.0638,2.1817,2.3635,2.4827,2.6397,2.8703,2.8555,2.8578,2.9458,3.0017,3.026,3.0215,3.1045,3.1521,3.1521,3.1895,3.1863,3.1348,3.0834,3.0557,3.0557,3.0043,2.9792,2.9792,2.9792,2.9792,2.9792,2.9792,2.9792,0.0,0.0,0.0,0.0,2.9792,2.9792,2.9792,2.9792,2.9792,2.9792,2.9792,2.9792,2.9792,2.9792,2.9792,2.9792,2.9792,2.9792,2.9792,2.9792,2.9792,2.9792,2.9792,2.9792,2.9792,2.9792,2.9792,2.9792,2.9792,2.9972,3.0113,3.0113,3.0292,3.0482,3.066,3.0258,2.987,2.987,2.8964,2.8204,2.8077,2.7692,2.7452,2.7367,2.7488,2.7542,2.749,2.749,2.749,2.749,2.749,2.749,2.749,2.749,2.749,2.749,2.749,2.749,2.749,2.749,2.749,2.749,2.749,2.749,2.749,2.749,2.7516,2.1113,0.0,2.1766,2.1766,2.1414,2.101,0.0,2.0317,1.9917,1.9824,1.943,1.9212,1.9564,1.972,2.0135,2.1155,2.1797,2.2783,2.461,2.6625,2.8668,3.0703,3.082,3.058,3.0076,3.0775,3.0991,3.026,3.0714,3.098,3.098,3.0964,3.0934,3.0809,3.0269,2.9993,2.9993,2.9854,2.9792,2.9792,2.9792,2.9792,2.9792,2.9792,2.9792,0.0,0.0,0.0,2.9792,2.9792,2.9792,2.9792,2.9792,2.9792,2.9792,2.9792,2.9792,2.9792,2.9792,2.9792,2.9792,2.9792,2.9792,2.9792,2.9792,2.9792,2.9792,2.9792,2.9792,2.9792,2.9792,2.9792,2.9792,2.9792,3.0075,3.0292,3.0113,3.0495,3.0836,3.0736,3.0694,3.0703,3.0703,3.0116,2.9624,2.9587,2.9164,2.8665,2.8208,2.8177,2.8007,2.7542,2.749,2.749,2.749,2.749,2.749,2.749,2.749,2.749,2.749,2.749,2.749,2.749,2.749,2.749,2.749,2.749,2.749,2.749,2.749,2.7771,2.0253,2.0828,2.1424,2.1424,2.1238,2.1,2.0757,2.0234,1.973,1.9523,1.9285,1.9243,1.971,2.0091,2.0477,2.1047,2.2392,2.4238,2.676,2.8377,3.0039,3.2042,3.1901,3.1581,3.1524,3.1989,3.2077,3.1581,3.1478,3.1442,3.1442,3.0913,3.062,3.062,3.008,2.9792,2.9792,2.9792,2.9792,2.9792,2.9792,2.9792,2.9792,2.9792,2.9792,0.0,0.0,0.0,2.9792,2.9792,2.9792,2.9792,2.9792,2.9792,2.9792,2.9792,2.9792,2.9792,2.9792,2.9792,2.9792,2.9792,2.9792,2.983,2.9895,2.9869,2.9792,2.9792,2.9869,2.9934,2.983,2.9869,2.9895,2.983,3.0113,3.0368,3.0254,3.0647,3.0986,3.0836,3.0911,3.0986,3.0986,3.0516,3.01,3.01,2.964,2.9192,2.883,2.8826,2.8569,2.7981,2.7915,2.7811,2.7516,2.749,2.749,2.749,2.749,2.749,2.749,2.749,2.749,2.749,2.749,2.749,2.749,2.749,2.749,2.7503,2.7798,2.8085,1.9968,2.0828,2.1776,2.1631,2.1652,2.158,2.1114,2.042,1.9782,1.9388,1.9316,1.9484,2.009,2.0666,2.1019,2.0994,2.3158,2.5978,2.9188,3.0048,3.0967,3.2685,3.2264,3.212,3.2797,3.3025,3.3124,3.3124,3.2466,3.2089,3.2089,3.1072,3.0495,3.0495,3.0043,2.9792,2.9792,2.9792,2.9792,2.9792,2.9792,2.9792,2.9792,2.9792,2.9792,2.9792,0.0,0.0,2.9792,2.9792,2.9792,2.9792,2.9792,2.9792,2.9792,2.9792,2.9792,2.9792,2.9792,2.9792,2.9792,2.9792,2.9792,2.983,3.0049,2.9972,2.9869,2.9869,2.9972,3.0075,2.9934,3.0011,3.0113,2.9934,3.019,3.0444,3.0444,3.0748,3.0986,3.0986,3.0986,3.0986,3.0986,3.0594,3.0231,3.0231,2.9849,2.9545,2.9418,2.9405,2.9144,2.8486,2.842,2.8177,2.7659,2.7542,2.7529,2.762,2.7542,2.749,2.749,2.749,2.749,2.749,2.749,2.7542,2.7633,2.7529,2.7581,2.7764,2.819,2.8477,1.9807,2.0828,2.1621,2.0798,2.0891,2.1067,2.0602,2.0385,2.0307,2.0234,2.0213,2.0571,2.1714,2.177,2.2124,2.35,2.5795,2.8197,3.0356,3.1343,3.1851,3.1828,3.2438,3.2581,3.1901,3.2581,3.3124,3.3124,3.2102,3.1512,3.1512,3.0507,2.9917,2.9917,2.9829,2.9792,2.9792,2.9792,2.9792,2.9792,2.9792,2.9792,2.9792,2.9792,2.9792,2.9792,0.0,2.9792,2.9792,2.9792,2.9792,2.9792,2.9792,2.9792,2.9792,2.9792,2.9792,2.9792,2.9792,2.9792,2.9792,2.9792,2.9792,2.983,3.0049,3.0075,3.0075,3.0254,3.0228,3.0113,3.0254,3.033,3.0368,3.033,3.0495,3.066,3.066,3.0849,3.0986,3.0986,3.0986,3.0986,3.0986,3.0908,3.0856,3.0856,3.0777,3.0542,3.0022,2.997,2.9588,2.849,2.842,2.8381,2.8255,2.7798,2.7699,2.8216,2.7798,2.749,2.749,2.749,2.749,2.749,2.749,2.7771,2.8242,2.7771,2.8046,2.9,2.8569,2.8922,1.9209,2.0267,2.1331,2.0907,2.1518,2.218,2.1963,2.1331,2.0793,2.0793,2.056,2.0889,2.2448,2.2974,2.4052,2.6835,2.8101,2.9492,3.1536,3.2047,3.2289,3.2537,3.2884,3.2939,3.2438,3.2853,3.2943,3.2641,3.1851,3.1273,3.0984,3.0218,2.9792,2.9792,2.9792,2.9792,2.9792,2.9792,2.9792,2.9792,2.9792,2.9792,2.9792,2.9792,2.9792,2.9792,0.0,2.9792,2.9792,2.9792,2.9792,2.9792,2.9792,2.9792,2.9792,2.9792,2.9792,2.9792,2.9792,2.9792,2.983,2.9934,2.9908,2.9869,3.0279,3.0279,3.019,3.0609,3.0571,3.0432,3.0406,3.0482,3.0533,3.0444,3.0533,3.0698,3.0698,3.0836,3.0986,3.0986,3.0986,3.0986,3.0986,3.0986,3.0986,3.0986,3.0986,3.0895,3.062,3.0594,3.0268,2.9418,2.9327,2.9196,2.893,2.8621,2.832,2.7941,2.7968,2.7994,2.7994,2.7994,2.8137,2.8464,2.815,2.8281,2.8904,2.8608,2.8752,2.931,2.9314,2.9614,1.8988,1.9925,2.1114,2.1114,2.1994,2.2946,2.3277,2.2356,2.1528,2.1811,2.1699,2.1946,2.3313,2.4416,2.6101,2.9126,2.9797,3.0587,3.2583,3.2626,3.2735,3.3377,3.3313,3.324,3.324,3.3126,3.2832,3.2336,3.1669,3.1075,3.0633,3.0093,2.9792,2.9792,2.9792,2.9792,2.9792,2.9792,2.9792,2.9792,2.9792,2.9792,2.9792,2.9792,2.9792,2.9792,2.9792,2.9792,2.9792,2.9792,2.9792,2.9792,2.9792,2.9792,2.9792,2.9792,2.9792,2.9792,2.9792,2.9792,2.983,3.0049,3.0011,2.9972,3.0546,3.047,3.0356,3.0874,3.0874,3.0723,3.0558,3.0647,3.0736,3.0558,3.0647,3.0773,3.0773,3.0874,3.0986,3.0986,3.0986,3.0986,3.0986,3.0986,3.0986,3.0986,3.0986,3.0986,3.0986,3.0986,3.0764,3.0153,3.01,2.9865,2.9362,2.9405,2.9039,2.8007,2.8216,2.8472,2.8582,2.8616,2.8852,2.931,2.8865,2.8917,2.9483,2.934,2.9454,2.968,2.9957,3.0179,1.9696,2.0441,2.1114,2.1114,2.1507,2.2242,2.3536,2.3091,2.276,2.3991,2.4562,2.4839,2.4864,2.6349,2.7911,2.8965,3.0446,3.1962,3.3424,3.345,3.339,3.3628,3.367,3.367,3.367,3.3193,3.2832,3.2574,3.1572,0.0,3.062,3.0093,2.9792,2.9792,2.9792,2.9792,2.9792,2.9792,2.9792,2.9792,2.9792,2.9792,2.9792,2.9792,2.9792,2.9792,2.9792,2.9792,2.9792,2.9792,2.9792,2.9792,2.9792,2.9792,2.9792,2.9792,2.9792,2.9792,2.9792,2.9792,2.983,3.0049,3.0075,3.0164,3.0584,3.066,3.0698,3.0949,3.0986,3.0986,3.0949,3.0986,3.0986,3.0949,3.0986,3.0986,3.0986,3.0986,3.0986,3.0986,3.0986,3.0986,3.0986,3.0986,3.0986,3.0986,3.0986,3.0986,3.0986,3.0986,3.0764,3.0153,3.01,2.9865,2.9362,2.9771,2.981,2.9196,2.8708,2.8669,2.9231,2.9258,2.9271,2.931,2.9271,2.9497,3.0035,2.9536,2.9823,3.0856,3.0322,3.0388,1.9495,2.0277,2.1186,2.1476,2.189,2.2522,2.367,2.3815,2.396,2.4766,2.4849,2.4924,2.5391,2.7667,2.9511,2.987,3.1927,3.3563,3.3904,3.4046,3.4093,3.3946,3.3515,3.3184,3.3184,3.2672,3.2145,3.1747,3.1339,0.0,3.0301,3.0086,2.9934,2.9792,2.9792,2.9792,2.9792,2.9792,2.9792,2.9792,2.9792,2.9792,2.9792,2.9792,2.9792,2.9792,2.9792,2.9792,2.9792,2.9792,2.9792,2.9792,2.9792,2.9792,2.9792,2.9792,2.9792,2.9792,2.9792,2.9792,2.9869,3.019,3.0113,3.0049,3.0685,3.0723,3.0571,3.0911,3.0986,3.0986,3.0986,3.0986,3.0986,3.0986,3.0986,3.0986,3.0986,3.0986,3.0986,3.0986,3.0986,3.0986,3.0986,3.0986,3.0986,3.0986,3.0986,3.0986,3.0986,3.0986,3.0895,3.0686,3.066,3.0581,3.0359,3.0215,3.0153,3.037,2.9797,2.9575,2.9797,2.981,2.998,3.037,2.9993,3.0098,3.066,3.0451,3.0568,3.0973,3.0764,3.0777,1.952,2.0257,2.1186,2.1507,2.2159,2.2956,2.3877,2.428,2.4797,2.583,2.5561,2.5513,2.6596,2.8528,3.0175,3.0817,3.2814,3.4272,3.4212,3.4327,3.4388,3.4199,3.3698,3.3318,3.315,3.2596,3.1963,3.1357,0.0,0.0,0.0,3.0113,3.0011,2.9792,2.9792,2.9792,2.9792,2.9792,2.9792,2.9792,2.9792,2.9792,2.9792,2.9792,2.9792,2.9792,2.9792,2.9792,2.9792,2.9792,2.9792,2.9792,2.9792,2.9792,2.9792,2.9792,2.9792,2.9792,2.9792,2.9792,2.9869,3.019,3.0113,3.0011,3.0685,3.0672,3.0482,3.0911,3.0949,3.0911,3.0986,3.0986,3.0986,3.0986,3.0986,3.0986,3.0986,3.0986,3.0986,3.0986,3.0986,3.0986,3.0986,3.0986,3.0986,3.0986,3.0986,3.0986,3.0986,3.0986,3.0986,3.0986,3.0986,3.0986,3.0986,3.062,3.0568,3.096,3.062,3.0361,3.0361,3.0361,3.0594,3.0973,3.0594,3.0594,3.0986,3.0986,3.0986,3.0986,3.0986,3.0986,1.9998,2.0492,2.1087,2.1124,2.217,2.3443,2.4311,2.4507,2.5148,2.7458,2.72,2.7091,2.8723,2.9036,2.9765,3.1658,3.2963,3.3894,3.4356,3.4243,3.416,3.4397,3.4384,3.4175,3.3639,3.3038,3.2358,3.1578,0.0,0.0,0.0,3.0113,3.0011,2.9792,2.9792,2.9792,2.9792,2.9792,2.9792,2.9792,2.9792,2.9792,2.9792,2.9792,2.9792,2.9792,2.9792,2.9792,2.9792,2.9792,2.9792,2.9792,2.9792,2.9792,2.9792,2.9792,2.9792,2.9792,2.9792,2.9792,2.983,3.0049,3.0113,3.0152,3.0584,3.0571,3.0482,3.0911,3.0836,3.0736,3.0949,3.0986,3.0986,3.0986,3.0986,3.0986,3.0986,3.0986,3.0986,3.0986,3.0986,3.0986,3.0986,3.0986,3.0986,3.0986,3.0986,3.0986,3.0986,3.0986,3.0986,3.0986,3.0986,3.0986,3.0986,3.0986,3.0986,3.0986,3.0986,3.0986,3.0986,3.0986,3.0986,3.0986,3.0986,3.0986,3.0986,3.0986,3.0986,3.0986,3.0986,3.0986,1.95,2.0372,2.1412,2.1563,2.3122,2.4778,2.5347,2.5482,2.5854,2.7179,2.7524,2.7722,2.8188,2.9682,3.104,3.1635,3.3462,3.4712,3.445,3.4721,3.4796,3.445,3.3692,3.33,3.3561,3.2319,3.1549,3.1694,0.0,0.0,0.0,3.0381,3.0228,3.0011,2.9869,2.9792,2.9792,2.9792,2.9792,2.9792,2.9792,2.9792,2.9792,2.9792,2.9792,2.9792,2.9792,2.9792,2.9792,2.9792,2.9792,2.9792,2.9792,2.9792,2.9792,2.9792,2.9792,2.9792,2.9792,2.9792,2.9869,3.019,3.0113,3.0023,3.0685,3.0672,3.0482,3.0911,3.0949,3.0911,3.0986,3.0986,3.0986,3.0986,3.0986,3.0986,3.0986,3.0986,3.0986,3.0986,3.0986,3.0986,3.0986,3.0986,3.0986,3.0986,3.0986,3.0986,3.0986,3.0986,3.0986,3.0986,3.0986,3.0986,3.0986,3.0986,3.0986,3.0986,3.0986,3.0986,3.0986,3.0986,3.0986,3.0986,3.0986,3.0986,3.0986,3.0986,3.0986,3.0986,3.0986,3.0986,1.9931,2.0937,2.2056,2.272,2.3898,2.5117,2.5968,2.6434,2.6796,2.7226,2.781,2.8413,2.8891,3.0406,3.1819,3.2466,3.3904,3.4816,3.445,3.4711,3.4803,3.4437,3.3783,3.343,3.3574,3.2633,3.1967,0.0,0.0,0.0,0.0,3.0495,3.0292,3.0113,2.9895,2.9792,2.9792,2.9792,2.9792,2.9792,2.9792,2.9792,2.9792,2.9792,2.9792,2.9792,2.9792,2.9792,2.9792,2.9792,2.9792,2.9792,2.9792,2.9792,2.9792,2.9792,2.9792,2.9792,2.9908,2.9934,2.9972,3.0292,3.0228,3.0152,3.0723,3.0647,3.0482,3.0911,3.0949,3.0911,3.0986,3.0986,3.0986,3.0986,3.0986,3.0986,3.0986,3.0986,3.0986,3.0986,3.0986,3.0986,3.0986,3.0986,3.0986,3.0986,3.0986,3.0986,3.0986,3.0986,3.0986,3.0986,3.0986,3.0986,3.0986,3.0986,3.0986,3.0986,3.0986,3.0986,3.0986,3.0986,3.0986,3.0986,3.0986,3.0986,3.0986,3.0986,3.0986,3.0986,3.0986,3.0986,2.081,2.1727,2.2761,2.4053,2.4528,2.5057,2.6341,2.7272,2.7748,2.7488,2.8175,2.9211,3.0361,3.1267,3.2289,3.3817,3.423,3.4384,3.4332,3.4332,3.4332,3.4332,3.428,3.4084,3.3705,3.3574,3.3091,0.0,0.0,0.0,0.0,3.0688,3.0458,3.019,3.0009,2.9881,2.9792,2.9792,2.9792,2.9792,2.9792,2.9792,2.9792,2.9792,2.9792,2.9792,2.9792,2.9792,2.9792,2.9792,2.9792,2.9792,2.9792,2.9792,2.9792,2.983,2.983,2.9869,3.0049,3.0113,3.0152,3.0368,3.0406,3.0444,3.066,3.0571,3.052,3.0911,3.0874,3.0773,3.0949,3.0986,3.0986,3.0986,3.0986,3.0986,3.0986,3.0986,3.0986,3.0986,3.0986,3.0986,3.0986,3.0986,3.0986,3.0986,3.0986,3.0986,3.0986,3.0986,3.0986,3.0986,3.0986,3.0986,3.0986,3.0986,3.0986,3.0986,3.0986,3.0986,3.0986,3.0986,3.0986,3.0986,3.0986,3.0986,3.0986,3.0986,3.0986,3.0986,3.0986,3.1013,1.955,2.092,2.2458,2.3278,2.4819,2.6299,2.7009,2.7309,2.7604,2.8243,2.9176,3.017,3.1158,3.2389,3.3361,3.3742,3.4147,3.4241,3.3822,3.3757,3.3757,3.3757,3.3352,3.3365,3.4149,3.3417,0.0,0.0,0.0,0.0,3.2293,3.2097,3.1654,3.0957,3.0761,3.0375,2.9792,2.9792,2.9792,0.0,2.9792,2.9792,2.9792,2.9792,2.9792,2.9792,2.9792,2.9792,2.9792,2.9792,2.9792,2.9792,2.9792,2.9792,2.983,2.9972,3.0049,3.0049,3.0254,3.033,3.0368,3.0571,3.0533,3.0482,3.0836,3.0798,3.0698,3.0949,3.0986,3.0949,3.0986,3.0986,3.0986,3.0986,3.0986,3.0986,3.0986,3.0986,3.0986,3.0986,3.0986,3.0986,3.0986,3.0986,3.0986,3.0986,3.0986,3.0986,3.0986,3.0986,3.0986,3.0986,3.0986,3.0986,3.0986,3.0986,3.0986,3.0986,3.0986,3.0986,3.0986,3.0986,3.0986,3.0986,3.0986,3.0986,3.0986,3.0986,3.0986,3.0986,3.0986,3.1222,1.9877,2.1194,2.2582,2.4104,2.5523,2.6739,2.7195,2.7309,2.7715,2.913,2.9852,3.0486,3.1448,3.276,3.3636,3.3338,3.3716,3.3809,3.3247,3.3156,3.3273,3.3561,3.3313,3.3456,3.4319,3.3862,0.0,0.0,0.0,3.2999,3.2712,3.224,3.1745,3.1214,3.0978,3.0528,2.9792,3.0055,3.0055,2.9792,2.9792,2.9792,2.9792,2.9792,2.9792,2.9792,2.9792,2.9792,2.9792,2.9792,2.9792,2.9792,2.9792,2.9792,2.9792,2.9934,3.0011,3.0113,3.033,3.0444,3.0571,3.0761,3.0761,3.071,3.0949,3.0911,3.0874,3.0986,3.0986,3.0986,3.0986,3.0986,3.0986,3.0986,3.0986,3.0986,3.0986,3.0986,3.0986,3.0986,3.0986,3.0986,3.0986,3.0986,3.0986,3.0986,3.0986,3.0986,3.0986,3.0986,3.0986,3.0986,3.0986,3.0986,3.0986,3.0986,3.0986,3.0986,3.0986,3.0986,3.0986,3.0986,3.0986,3.0986,3.0986,3.0986,3.0986,3.0986,3.0986,3.0999,3.1261,3.1523,2.0099,2.1418,2.2777,2.5168,2.6175,2.6718,2.7102,2.7247,2.7809,2.9578,3.0079,3.0531,3.1669,3.2846,3.3504,3.2925,3.326,3.3352,3.2594,3.262,3.2881,3.3378,3.3535,3.3809,3.4345,3.4397,0.0,0.0,0.0,3.3509,3.3012,3.2267,3.1772,3.1496,3.1261,3.0719,2.9942,3.0382,3.0331,2.9792,2.9792,2.9792,2.9792,2.9792,2.9792,2.9792,2.9792,2.9792,2.9792,2.9792,2.9792,2.9792,2.9792,2.9792,2.9792,2.983,2.9972,3.019,3.0368,3.0571,3.0773,3.0949,3.0986,3.0986,3.0986,3.0986,3.0986,3.0986,3.0986,3.0986,3.0986,3.0986,3.0986,3.0986,3.0986,3.0986,3.0986,3.0986,3.0986,3.0986,3.0986,3.0986,3.0986,3.0986,3.0986,3.0986,3.0986,3.0986,3.0986,3.0986,3.0986,3.0986,3.0986,3.0986,3.0986,3.0986,3.0986,3.0986,3.0986,3.0986,3.0986,3.0986,3.0986,3.0986,3.0986,3.0986,3.0986,3.0986,3.0986,3.0999,3.1536,3.1863,1.7982,2.0204,2.2785,2.4797,2.5947,2.6635,2.6687,2.7019,2.7573,2.8678,2.9578,3.0756,3.2581,3.3343,3.3449,3.2746,3.3165,3.3155,3.185,3.2254,3.2725,3.2803,3.3273,3.3809,3.4345,0.0,0.0,0.0,3.4293,3.4254,3.4175,3.3652,3.3136,3.2703,3.2213,3.1462,3.0507,3.0583,3.0331,2.9792,2.9792,2.9792,2.9792,2.9792,2.9792,2.9792,2.9792,2.9792,2.9792,2.9792,2.9792,2.9792,2.9792,2.9792,2.983,3.0011,3.019,3.0406,3.0584,3.0798,3.0949,3.0986,3.0986,3.0986,3.0986,3.0986,3.0986,3.0986,3.0986,3.0986,3.0986,3.0986,3.0986,3.0986,3.0986,3.0986,3.0986,3.0986,3.0986,3.0986,3.0986,3.0986,3.0986,3.0986,3.0986,3.0986,3.0986,3.0986,3.0986,3.0986,3.0986,3.0986,3.0986,3.0986,3.0986,3.0986,3.0986,3.0986,3.0986,3.0986,3.0986,3.0986,3.0986,3.0986,3.0986,3.0986,3.0986,3.0986,3.0986,3.0999,3.1536,3.2071,1.8498,2.0575,2.2703,2.4414,2.5337,2.5885,2.6123,2.6387,2.6871,2.8082,2.9116,3.0328,3.1972,3.2957,3.3377,3.2829,3.3124,3.2968,3.1837,3.2241,3.2685,3.2685,3.3221,3.3809,3.4345,0.0,0.0,0.0,3.4397,3.4397,3.4397,3.3888,3.3309,3.2634,3.2281,3.1543,3.0351,3.0497,3.0331,2.9792,2.9792,2.9792,2.9792,2.9792,2.9792,2.9792,2.9792,2.9792,2.9792,2.9792,2.9792,2.9792,2.9792,2.9792,2.9792,2.9895,3.0049,3.0254,3.0457,3.0647,3.0849,3.0949,3.0986,3.0986,3.0986,3.0986,3.0986,3.0986,3.0986,3.0986,3.0986,3.0986,3.0986,3.0986,3.0986,3.0986,3.0986,3.0986,3.0986,3.0986,3.0986,3.0986,3.0986,3.0986,3.0986,3.0986,3.0986,3.0986,3.0986,3.0986,3.0986,3.0986,3.0986,3.0986,3.0986,3.0986,3.0986,3.0986,3.0986,3.0986,3.0986,3.0986,3.0986,3.0986,3.0986,3.0986,3.0986,3.0986,3.1143,3.1445,3.2058,3.2633,1.8708,2.0352,2.1742,2.3351,2.4239,2.4861,2.5409,2.5627,2.6059,2.7224,2.8422,2.9639,3.0651,3.2228,3.3263,3.28,3.2959,3.2844,3.2006,3.2436,3.2828,3.2921,3.3443,3.3953,3.4358,0.0,0.0,0.0,3.4267,3.4254,3.4384,3.3744,3.3154,3.2613,3.2129,3.1378,3.0291,3.0387,3.0193,2.9792,2.9792,2.9792,2.9792,2.9792,2.9792,2.9792,2.9792,2.9792,2.9792,2.9792,2.9792,2.9792,2.9869,2.9869,2.9869,2.9934,3.0088,3.0267,3.0406,3.0609,3.0811,3.0949,3.0986,3.0986,3.0986,3.0986,3.0986,3.0986,3.1091,3.1169,3.1026,3.1196,3.1378,3.1235,3.1196,3.1169,3.1013,3.1161,3.1222,3.1061,3.1161,3.1222,3.1011,3.1104,3.1196,3.1196,3.1326,3.1365,3.1222,3.1196,3.1143,3.0999,3.0986,3.0986,3.0986,3.0986,3.0986,3.0986,3.0986,3.0986,3.0986,3.0986,3.0986,3.0986,3.0986,3.0986,3.0986,3.0986,3.1274,3.181,3.2424,3.3012,1.739,1.8272,1.9261,2.1261,2.2546,2.3525,2.4363,2.491,2.5388,2.5913,2.7481,2.8743,2.8853,3.1357,3.3123,3.2344,3.2615,3.2726,3.2164,3.2712,3.3277,3.3494,3.4018,3.4371,3.4397,0.0,0.0,0.0,3.3927,3.3862,3.4371,3.3352,3.2853,3.3129,3.1936,3.1109,3.0874,3.0185,2.9817,2.9792,2.9792,2.9792,2.9792,2.9792,2.9792,2.9792,2.9792,2.9792,2.9792,2.9792,2.9792,2.983,3.0011,3.0075,3.0113,3.0292,3.0495,3.066,3.0698,3.0811,3.0986,3.0986,3.0986,3.0986,3.0986,3.0986,3.0986,3.0986,3.1378,3.1628,3.113,3.1797,3.2463,3.1889,3.1758,3.1602,3.1104,3.1529,3.1846,3.1123,3.1566,3.1809,3.1123,3.1431,3.1758,3.1758,3.2254,3.2398,3.1823,3.1758,3.1549,3.1039,3.0986,3.0986,3.0986,3.0986,3.0986,3.0986,3.0986,3.0986,3.0986,3.0986,3.0986,3.0986,3.0986,3.0986,3.0986,3.0986,3.1274,3.181,3.2424,3.3012,1.7001,1.7921,1.8923,2.0328,2.1885,2.3083,2.3212,2.4598,2.59,2.5872,2.7564,2.9171,2.9461,3.094,3.2092,3.1972,3.2069,3.2081,3.1744,3.2599,3.3214,3.3051,3.3835,3.4397,3.4397,0.0,0.0,0.0,0.0,3.3509,3.3313,3.2921,3.2581,3.2306,3.1576,3.0891,3.0198,2.9931,2.9792,2.9792,2.9792,2.9792,2.9792,2.9792,2.9792,2.9792,2.9792,2.9792,2.9792,2.9792,2.9792,2.983,3.0011,3.0113,3.0113,3.033,3.0444,3.0533,3.066,3.0736,3.0849,3.0949,3.0986,3.1052,3.1418,3.1889,3.2294,3.2121,3.259,3.2978,3.2279,3.2385,3.2646,3.2437,3.2385,3.2476,3.2802,3.2793,3.2607,3.2199,3.2724,3.3001,3.2226,3.2254,3.2385,3.2385,3.2555,3.262,3.2411,3.2385,3.2306,3.211,3.1744,3.1497,3.1497,3.1196,3.0986,3.0986,3.0986,3.1143,3.1522,3.1497,3.1705,3.2071,3.1718,3.1352,3.0986,3.1352,3.1823,3.2398,3.2999,3.3574,1.6627,1.7444,1.8441,1.9654,2.0706,2.1775,2.2893,2.4088,2.5222,2.6043,2.7563,2.8871,2.9412,3.0269,3.1052,3.158,3.1683,3.1678,3.1705,3.2378,3.2926,3.2972,3.3483,3.3901,0.0,0.0,0.0,0.0,0.0,0.0,3.2698,3.2515,3.2111,3.146,3.1164,3.0688,2.9908,2.9895,2.9869,2.9792,2.9792,2.9792,2.9792,2.9792,2.9792,2.9792,2.9792,2.9792,2.9792,2.9792,2.9792,2.983,3.0011,3.0152,3.0228,3.0419,3.052,3.0634,3.0761,3.0811,3.0811,3.0949,3.1117,3.1352,3.168,3.2339,3.2972,3.3064,3.3641,3.4122,3.3663,3.3473,3.3397,3.3397,3.3397,3.3541,3.4086,3.3981,3.3643,3.3207,3.3763,3.3955,3.2883,3.2868,3.2999,3.2999,3.3156,3.3195,3.3012,3.2999,3.2842,3.245,3.2032,3.1732,3.1536,3.1378,3.1196,3.0999,3.1339,3.164,3.1797,3.198,3.2306,3.2685,3.2319,3.194,3.1561,3.1706,3.2202,3.2999,3.3404,3.3875,0.0,0.0,0.0,1.9123,1.8974,1.9502,2.3487,2.3321,2.3224,2.6394,2.7344,2.7765,2.8421,2.9236,3.0131,3.1173,3.1336,3.1511,3.1994,3.2047,3.2426,3.3429,3.3038,3.2921,0.0,0.0,0.0,0.0,3.2111,3.2032,3.2607,3.2071,3.1447,3.0711,3.0698,3.0508,3.0113,3.0075,2.9972,2.9792,2.9792,2.9792,2.9792,2.9792,2.9792,2.9792,2.9792,2.9792,2.9792,2.9792,2.9792,2.983,3.0011,3.0228,3.0406,3.0622,3.0849,3.0986,3.0986,3.0986,3.0986,3.0999,3.1392,3.181,3.1836,3.2319,3.2935,3.3752,3.4417,3.4938,3.519,3.5045,3.484,3.484,3.484,3.4879,3.4879,3.5045,3.4952,3.4134,3.4639,3.4705,3.308,3.3302,3.3695,3.3695,3.414,3.4284,3.3719,3.3654,3.3209,3.198,3.1836,3.1602,3.1078,3.1497,3.1562,3.1052,3.2071,3.245,3.185,3.2411,3.2725,3.2738,3.2725,3.2725,3.2738,3.2137,3.2476,3.3587,3.3613,3.3901,1.7673,0.0,0.0,0.0,0.0,0.0,2.1598,2.2786,2.395,2.5492,2.6627,2.768,2.8623,2.9349,2.9892,3.0181,3.0231,3.0349,3.0622,3.0978,3.143,3.2006,3.2344,3.2605,0.0,0.0,0.0,0.0,3.1889,3.1693,3.147,3.1313,3.1081,3.0698,3.0571,3.0381,3.0113,2.9972,2.9869,2.9792,2.9792,2.9792,2.9792,2.9792,2.9792,2.9792,2.9792,2.9792,2.9792,2.9792,2.9792,2.983,3.0011,3.0228,3.0406,3.0622,3.0849,3.0986,3.0986,3.0986,3.1052,3.1432,3.168,3.1954,3.2842,3.4083,3.5168,3.5203,3.6195,3.7139,3.6584,3.6385,3.6331,3.6331,3.6331,3.6487,3.7106,3.7295,3.7077,3.6235,3.676,3.7001,3.5925,3.5882,3.5993,3.5993,3.6117,3.5934,3.5211,3.5117,3.4607,3.3262,3.2712,3.2398,3.2228,3.1993,3.1732,3.1575,3.228,3.262,3.2463,3.3025,3.3522,3.3914,3.3548,3.3535,3.3927,3.3378,3.3273,3.36,3.3992,3.4254,1.9036,1.8847,1.8868,1.9828,0.0,0.0,2.1664,2.2522,2.346,2.5421,2.6226,2.6929,2.8034,2.8511,2.89,2.9352,2.9428,2.9592,3.005,3.0367,3.0763,3.1319,3.1565,3.1811,0.0,3.2071,3.1836,3.1509,3.1483,3.1339,3.0999,3.0986,3.0949,3.0849,3.0723,3.052,3.0228,3.0113,2.9972,2.9792,2.9792,2.9792,2.9792,2.9792,2.9792,2.9792,2.9792,2.9792,2.9792,2.9792,2.9792,2.983,3.0011,3.0228,3.0406,3.0622,3.0849,3.0986,3.0986,3.0986,3.1078,3.1615,3.1967,3.2411,3.3714,3.4963,3.6047,3.659,3.7682,3.8575,3.8069,3.7691,3.7462,3.7462,3.7462,3.7577,3.8075,3.8464,3.8449,3.7615,3.7872,3.791,3.7049,3.688,3.688,3.688,3.688,3.6724,3.6281,3.6201,3.5568,3.3887,3.3409,3.2855,3.2058,3.211,3.2058,3.1823,3.2816,3.33,3.3077,3.3626,3.4071,3.4384,3.4084,3.4084,3.4397,3.3849,3.3705,3.3927,3.4254,3.4397,2.0329,2.0321,2.0373,2.0984,2.0158,0.0,2.2727,2.2339,2.2286,2.5394,2.5619,2.5598,2.6791,2.7055,2.7444,2.8486,2.8712,2.9101,2.9948,3.0075,3.0342,3.0982,3.0804,0.0,3.1358,3.116,3.0986,3.0986,3.0986,3.0986,3.0986,3.0986,3.0986,3.0986,3.0986,3.0798,3.0444,3.0406,3.019,2.983,2.9792,2.9792,2.9792,2.9792,2.9792,2.983,2.983,2.983,2.983,2.9869,2.983,2.983,3.0011,3.0228,3.0406,3.0622,3.0849,3.0986,3.0986,3.0986,3.1091,3.1693,3.2306,3.3106,3.4482,3.5394,3.6294,3.7886,3.8848,3.9388,3.9388,3.8885,3.8315,3.8315,3.8315,3.8315,3.8315,3.8885,3.9192,3.8464,3.8315,3.8113,3.7319,3.7204,3.7204,3.7204,3.7204,3.7165,3.7049,3.7049,3.6263,3.4241,3.4042,3.333,3.1611,3.2291,3.262,3.2174,3.3562,3.4162,3.3613,3.411,3.4397,3.4397,3.4397,3.4397,3.4397,3.3914,3.3927,3.4397,3.4397,3.4397,2.156,2.1063,2.0628,2.1758,2.1523,0.0,2.1778,2.1699,2.1806,2.2882,2.3037,2.3439,2.5008,2.5636,2.6151,2.6876,2.7682,2.8624,2.9731,2.9869,2.9984,3.0266,3.0266,0.0,3.0802,3.08,3.0849,3.0986,3.0986,3.0986,3.0986,3.0986,3.0986,3.0986,3.0849,3.0736,3.066,3.0305,3.0113,3.0049,2.9869,2.9792,2.9792,2.9792,2.9908,3.0049,3.0049,3.0049,3.0049,3.0228,3.0075,2.983,3.0011,3.0228,3.0406,3.0622,3.0849,3.0986,3.0986,3.0986,3.1156,3.2189,3.3038,3.3914,3.5167,3.6565,3.7924,3.8885,3.9265,3.9388,3.9388,3.9265,3.9156,3.9156,3.9156,3.9156,3.9156,3.9301,3.9337,3.9192,3.9156,3.9104,3.8943,3.8907,3.8907,3.8907,3.8907,3.8671,3.8023,3.7947,3.7157,3.5074,3.4859,3.4701,3.4316,3.3884,3.3745,3.4187,3.4349,3.4162,3.3613,3.411,3.4397,3.4397,3.4397,3.4397,3.4397,3.4293,3.4293,3.4397,3.4397,3.4397,2.2591,2.2163,2.1892,2.2533,2.2305,0.0,0.0,2.1882,2.1732,2.2518,2.2255,2.2322,2.3697,2.4161,2.4644,2.5498,2.6565,2.7482,2.8083,2.9089,2.973,2.9542,2.9872,0.0,2.9971,3.0315,3.0647,3.0849,3.0949,3.0986,3.0986,3.0986,3.0986,3.0986,3.0911,3.0811,3.0698,3.0508,3.0305,3.0113,3.0011,2.9895,2.9792,2.9895,3.0011,3.0113,3.0228,3.0254,3.0254,3.0368,3.0292,3.0113,3.0318,3.0457,3.0571,3.0761,3.0911,3.0986,3.0986,3.0986,3.1169,3.2319,3.2975,3.3682,3.5672,3.7462,3.8885,3.9301,3.9388,3.9388,3.9388,3.9388,3.9388,3.9388,3.9388,3.9388,3.9388,3.9388,3.9388,3.9388,3.9388,3.9388,3.9388,3.9388,3.9388,3.9388,3.9388,3.9265,3.8848,3.8811,3.8004,3.592,3.5718,3.5394,3.4719,3.4215,3.4379,3.538,3.5242,3.5168,3.5261,3.5493,3.5454,3.5073,3.4634,3.4397,3.4397,3.4397,3.4397,3.4397,3.4397,3.4397,2.3421,2.3346,2.3371,2.3158,2.2932,2.2769,0.0,0.0,0.0,0.0,0.0,2.1794,2.2757,0.0,0.0,0.0,0.0,0.0,0.0,2.772,0.0,2.8599,2.9252,0.0,2.9238,2.9718,3.0212,3.0517,3.0538,3.0624,3.0817,3.0884,3.0949,3.0986,3.0986,3.0911,3.0698,3.0698,3.0508,3.0152,3.0113,3.0011,2.9869,3.0049,3.0113,3.019,3.0368,3.0444,3.0444,3.0482,3.0482,3.0482,3.066,3.0698,3.0736,3.0911,3.1086,3.1222,3.1222,3.1296,3.1631,3.276,3.3447,3.4212,3.6624,3.8345,3.9388,3.9388,3.9388,3.9388,3.9388,3.9388,3.9388,3.9388,3.9388,3.9388,3.9388,3.9388,3.9388,3.9388,3.9388,3.9388,3.9388,3.9388,3.9388,3.9388,3.9388,3.9388,3.9388,3.9388,3.8635,3.6722,3.6505,3.5981,3.4732,3.4576,3.502,3.624,3.6169,3.6336,3.6866,3.688,3.6582,3.5936,3.5073,3.4716,3.4868,3.4716,3.4551,3.4397,3.4397,3.4397,2.4054,2.4255,2.4362,2.3358,2.381,2.401,0.0,0.0,2.2681,2.1845,0.0,0.0,0.0,0.0,0.0,0.0,0.0,0.0,2.428,2.531,2.6427,2.7356,2.7995,0.0,0.0,2.9016,2.916,2.9833,2.931,2.9318,3.0166,3.0538,3.0811,3.0986,3.0986,3.0911,3.0698,3.0698,3.0584,3.0368,3.019,3.0075,3.0075,3.0075,3.019,3.0368,3.0571,3.066,3.0698,3.0874,3.0836,3.066,3.0698,3.0698,3.0736,3.0911,3.1394,3.1978,3.1978,3.2412,3.3141,3.4432,3.6066,3.7774,3.8789,3.9265,3.9388,3.9388,3.9388,3.9388,3.9388,3.9388,3.9388,3.9388,3.9388,3.9388,3.9388,3.9388,3.9388,3.9388,3.9388,3.9388,3.9388,3.9388,3.9388,3.9388,3.9388,3.9388,3.9388,3.9388,3.8865,3.7451,3.7267,3.698,3.632,3.6082,3.6302,3.7011,3.6907,3.681,3.688,3.688,3.6855,3.6777,3.5963,3.5883,3.6607,3.5883,3.5155,3.4397,3.4397,3.4397,2.4067,0.0,0.0,0.0,0.0,0.0,2.2706,0.0,2.2594,0.0,0.0,0.0,0.0,0.0,0.0,0.0,2.2774,0.0,0.0,0.0,2.5071,0.0,0.0,0.0,0.0,0.0,0.0,0.0,2.8595,2.873,2.9889,3.0088,3.0373,3.0798,3.0949,3.0949,3.0874,3.0874,3.0761,3.0571,3.0508,3.0381,3.0292,3.0381,3.0495,3.0571,3.0798,3.0874,3.0874,3.0986,3.0949,3.0874,3.0874,3.1161,3.1529,3.1603,3.2101,3.2755,3.2755,3.3204,3.3994,3.5259,3.6802,3.8277,3.859,3.9031,3.9388,3.9388,3.9388,3.9388,3.9388,3.9388,3.9388,3.9388,3.9388,3.9388,3.9388,3.9388,3.9388,3.9388,3.9388,3.9388,3.9388,3.9388,3.9388,3.9388,3.9388,3.9388,3.9388,3.9388,3.8901,3.7554,3.7749,3.7719,3.7075,3.6931,3.7349,3.8398,3.8399,3.8345,3.8345,3.7895,3.7653,3.7653,3.683,3.6543,3.688,3.6543,3.6188,3.5829,3.5386,3.4868,2.4481,0.0,0.0,0.0,0.0,0.0,0.0,0.0,0.0,0.0,0.0,0.0,0.0,0.0,0.0,0.0,0.0,2.2397,0.0,2.241,0.0,0.0,0.0,0.0,0.0,0.0,0.0,0.0,0.0,2.7716,2.9215,2.9385,2.9733,3.0439,3.0758,3.0911,3.0911,3.0986,3.0911,3.0698,3.0698,3.0609,3.0482,3.0609,3.0698,3.0698,3.0911,3.0986,3.1024,3.1222,3.1296,3.1334,3.1505,3.2064,3.2635,3.2254,3.267,3.352,3.3725,3.4483,3.5511,3.6421,3.7554,3.8538,3.8538,3.8922,3.9388,3.9388,3.9388,3.9388,3.9388,3.9388,3.9388,3.9388,3.9388,3.9388,3.9388,3.9388,3.9388,3.9388,3.9388,3.9388,3.9388,3.9388,3.9388,3.9388,3.9388,3.9388,3.9388,3.9388,3.8975,3.7808,3.8108,3.8123,3.7464,3.7569,3.8182,3.9313,3.9388,3.9388,3.9388,3.8848,3.8538,3.8538,3.7691,3.7357,3.7601,3.7357,3.7256,3.7256,3.6399,3.5696,0.0,0.0,0.0,2.4406,0.0,0.0,0.0,0.0,2.3791,0.0,0.0,0.0,0.0,0.0,0.0,2.1581,0.0,0.0,0.0,0.0,0.0,0.0,0.0,0.0,0.0,0.0,0.0,0.0,2.5925,0.0,2.7853,2.8265,2.8873,2.9781,3.04,3.0698,3.0698,3.0911,3.0911,3.0698,3.0698,3.0698,3.0698,3.0698,3.0698,3.0698,3.0911,3.0986,3.1061,3.1773,3.2037,3.216,3.2861,3.3596,3.4061,3.2635,3.3024,3.4366,3.5009,3.6575,3.8262,3.8307,3.8784,3.9337,3.9337,3.9388,3.9388,3.9388,3.9388,3.9388,3.9388,3.9388,3.9388,3.9388,3.9388,3.9388,3.9388,3.9388,3.9388,3.9388,3.9388,3.9388,3.9388,3.9388,3.9388,3.9388,3.9388,3.9388,3.9388,3.9388,3.914,3.8437,3.8377,3.8123,3.7464,3.7988,3.8661,3.9379,3.9388,3.9388,3.9388,3.9388,3.9337,3.9337,3.859,3.8538,3.9301,3.8538,3.8165,3.8127,3.7256,3.6841,0.0,0.0,2.5674,2.477,0.0,0.0,0.0,0.0,0.0,0.0,0.0,0.0,0.0,0.0,0.0,2.2071,0.0,0.0,0.0,0.0,0.0,0.0,0.0,0.0,0.0,0.0,0.0,0.0,2.5018,0.0,0.0,2.7952,2.8775,2.9584,3.0325,3.0773,3.0911,3.0986,3.0986,3.0911,3.0911,3.0911,3.0911,3.0911,3.0911,3.0911,3.0986,3.1259,3.1736,3.2015,3.2398,3.2861,3.3108,3.3665,3.423,3.3754,3.4225,3.5248,3.6333,3.7421,3.8467,3.8931,3.923,3.9388,3.9388,3.9388,3.9388,3.9388,3.9388,3.9388,3.9388,3.9388,3.9388,3.9388,3.9388,3.9388,3.9388,3.9388,3.9388,3.9388,3.9388,3.9388,3.9388,3.9388,3.9388,3.9388,3.9388,3.9388,3.9388,3.9388,3.9155,3.8467,3.8796,3.8796,3.8123,3.8676,3.917,3.9373,3.9388,3.9388,3.9388,3.9388,3.9388,3.9388,3.9119,3.9119,3.9388,3.9119,3.8995,3.901,3.8671,3.7956,2.5812,2.59,0.0,2.5234,2.5259,0.0,2.396,0.0,0.0,0.0,0.0,0.0,0.0,0.0,0.0,0.0,0.0,0.0,0.0,2.0729,0.0,0.0,0.0,2.3258,0.0,2.3672,2.396,2.464,2.4406,2.4815,0.0,0.0,2.835,2.9092,3.0084,3.0685,3.0874,3.0949,3.0986,3.0986,3.0986,3.0986,3.0986,3.0986,3.1161,3.1394,3.1394,3.1809,3.2506,3.2777,3.3164,3.363,3.3934,3.4308,3.4677,3.4413,3.5118,3.6297,3.712,3.8003,3.8826,3.9275,3.9388,3.9388,3.9388,3.9388,3.9388,3.9388,3.9388,3.9388,3.9388,3.9388,3.9388,3.9388,3.9388,3.9388,3.9388,3.9388,3.9388,3.9388,3.9388,3.9388,3.9388,3.9388,3.9388,3.9388,3.9388,3.9388,3.9388,3.9388,3.9245,3.8796,3.9155,3.9245,3.8796,3.917,3.9388,3.9388,3.9388,3.9388,3.9388,3.9388,3.9388,3.9388,3.9388,3.9388,3.9388,3.9388,3.9388,3.9388,3.9388,3.8819]}]]